ECMWFNIL_sfc_gust_000.txt.gz
Wind_Gust
0 0 0 0 0 0 0 0 0 0 0 0 0 0 0 0 0 0 0 0 0 0 0 0 0 0 0 0 0 0 0 0 0 0 0 0 0 0 0 0 0 0
0 0 0 0 0 0 0 0 0 0 0 0 0 0 0 0 0 0 0 0 0 0 0 0 0 0 0 0 0 0 0 0 0 0 0 0 0 0 0 0 0 0
0 0 0 0 0 0 0 0 0 0 0 0 0 0 0 0 0 0 0 0 0 0 0 0 0 0 0 0 0 0 0 0 0 0 0 0 0 0 0 0 0 0
0 0 0 0 0 0 0 0 0 0 0 0 0 0 0 0 0 0 0 0 0 0 0 0 0 0 0 0 0 0 0 0 0 0 0 0 0 0 0 0 0 0
0 0 0 0 0 0 0 0 0 0 0 0 0 0 0 0 0 0 0 0 0 0 0 0 0 0 0 0 0 0 0 0 0 0 0 0 0 0 0 0 0 0
0 0 0 0 0 0 0 0 0 0 0 0 0 0 0 0 0 0 0 0 0 0 0 0 0 0 0 0 0 0 0 0 0 0 0 0 0 0 0 0 0 0
0 0 0 0 0 0 0 0 0 0 0 0 0 0 0 0 0 0 0 0 0 0 0 0 0 0 0 0 0 0 0 0 0 0 0 0 0 0 0 0 0 0
0 0 0 0 0 0 0 0 0 0 0 0 0 0 0 0 0 0 0 0 0 0 0 0 0 0 0 0 0 0 0 0 0 0 0 0 0 0 0 0 0 0
0 0 0 0 0 0 0 0 0 0 0 0 0 0 0 0 0 0 0 0 0 0 0 0 0 0 0 0 0 0 0 0 0 0 0 0 0 0 0 0 0 0
0 0 0 0 0 0 0 0 0 0 0 0 0 0 0 0 0 0 0 0 0 0 0 0 0 0 0 0 0 0 0 0 0 0 0 0 0 0 0 0 0 0
0 0 0 0 0 0 0 0 0 0 0 0 0 0 0 0 0 0 0 0 0 0 0 0 0 0 0 0 0 0 0 0 0 0 0 0 0 0 0 0 0 0
0 0 0 0 0 0 0 0 0 0 0 0 0 0 0 0 0 0 0 0 0 0 0 0 0 0 0 0 0 0 0 0 0 0 0 0 0 0 0 0 0 0
0 0 0 0 0 0 0 0 0 0 0 0 0 0 0 0 0 0 0 0 0 0 0 0 0 0 0 0 0 0 0 0 0 0 0 0 0 0 0 0 0 0
0 0 0 0 0 0 0 0 0 0 0 0 0 0 0 0 0 0 0 0 0 0 0 0 0 0 0 0 0 0 0 0 0 0 0 0 0 0 0 0 0 0
0 0 0 0 0 0 0 0 0 0 0 0 0 0 0 0 0 0 0 0 0 0 0 0 0 0 0 0 0 0 0 0 0 0 0 0 0 0 0 0 0 0
0 0 0 0 0 0 0 0 0 0 0 0 0 0 0 0 0 0 0 0 0 0 0 0 0 0 0 0 0 0 0 0 0 0 0 0 0 0 0 0 0 0
0 0 0 0 0 0 0 0 0 0 0 0 0 0 0 0 0 0 0 0 0 0 0 0 0 0 0 0 0 0 0 0 0 0 0 0 0 0 0 0 0 0
0 0 0 0 0 0 0 0 0 0 0 0 0 0 0 0 0 0 0 0 0 0 0 0 0 0 0 0 0 0 0 0 0 0 0 0 0 0 0 0 0 0
0 0 0 0 0 0 0 0 0 0 0 0 0 0 0 0 0 0 0 0 0 0 0 0 0 0 0 0 0 0 0 0 0 0 0 0 0 0 0 0 0 0
0 0 0 0 0 0 0 0 0 0 0 0 0 0 0 0 0 0 0 0 0 0 0 0 0 0 0 0 0 0 0 0 0 0 0 0 0 0 0 0 0 0
0 0 0 0 0 0 0 0 0 0 0 0 0 0 0 0 0 0 0 0 0 0 0 0 0 0 0 0 0 0 0 0 0 0 0 0 0 0 0 0 0 0
0 0 0 0 0 0 0 0 0 0 0 0 0 0 0 0 0 0 0 0 0 0 0 0 0 0 0 0 0 0 0 0 0 0 0 0 0 0 0 0 0 0
0 0 0 0 0 0 0 0 0 0 0 0 0 0 0 0 0 0 0 0 0 0 0 0 0 0 0 0 0 0 0 0 0 0 0 0 0 0 0 0 0 0
0 0 0 0 0 0 0 0 0 0 0 0 0 0 0 0 0 0 0 0 0 0 0 0 0 0 0 0 0 0 0 0 0 0 0 0 0 0 0 0 0 0
0 0 0 0 0 0 0 0 0 0 0 0 0 0 0 0 0 0 0 0 0 0 0 0 0 0 0 0 0 0 0 0 0 0 0 0 0 0 0 0 0 0
0 0 0 0 0 0 0 0 0 0 0 0 0 0 0 0 0 0 0 0 0 0 0 0 0 0 0 0 0 0 0 0 0 0 0 0 0 0 0 0 0 0

ECMWFNIL_sfc_gust_003.txt.gz
Wind_Gust
13 13 14 14 14 12 12 13 12 12 12 12 13 14 15 13 15 14 14 14 15 16 15 15 16 15 15 15 15 16 16 15 15 15 15 15 15 14 15 14 13 14
15 13 12 11 12 11 11 11 12 14 13 13 12 12 11 12 13 14 15 15 15 15 15 15 15 16 15 16 15 16 15 14 14 12 14 13 12 12 12 11 11 11
13 13 14 14 14 13 13 11 11 11 12 12 11 11 12 11 14 13 15 15 16 15 15 15 15 15 15 15 15 15 15 14 13 12 12 12 11 11 11 10 10 10
13 14 15 16 15 14 12 12 11 11 9 9 12 11 12 11 12 14 13 14 16 15 15 15 15 14 14 14 14 15 14 13 13 12 12 11 10 10 10 9 10 10
18 18 16 14 13 12 11 12 13 13 13 12 10 11 12 12 13 14 14 14 15 15 15 15 14 14 13 13 13 14 13 13 11 10 11 11 10 9 9 8 9 9
17 18 18 17 15 14 15 16 16 14 14 12 13 13 13 14 14 15 16 16 15 16 16 15 14 13 13 13 12 13 12 12 11 10 11 10 10 9 9 8 8 8
15 16 17 16 15 15 16 16 15 14 15 14 13 14 14 15 15 16 18 17 17 17 17 16 15 15 14 13 13 13 13 12 10 10 10 10 10 10 10 9 10 10
16 12 15 16 18 17 17 17 17 17 15 14 15 14 15 16 16 15 16 18 18 18 17 17 16 16 14 13 15 14 13 11 10 9 9 9 9 10 10 10 11 12
17 17 17 16 17 18 19 20 18 16 16 17 16 15 14 15 15 16 17 18 17 18 18 17 17 16 14 13 13 13 13 12 9 9 8 8 8 9 10 10 10 11
19 18 16 17 18 19 19 19 18 16 17 18 17 15 17 15 15 18 18 18 18 18 18 17 17 16 15 14 14 13 13 12 10 9 8 7 8 9 10 9 10 10
18 17 17 19 20 18 20 19 18 18 17 19 18 17 17 17 16 16 18 19 19 19 18 18 17 16 15 15 14 12 12 11 10 8 8 8 8 9 6 10 11 11
19 17 20 21 21 19 18 18 17 17 18 17 20 20 19 19 21 20 20 21 20 19 19 18 16 15 15 15 14 13 12 11 9 8 8 9 9 10 11 11 12 13
19 20 19 18 17 17 14 15 17 16 16 18 20 21 22 21 20 21 18 20 20 20 19 18 16 16 15 14 13 12 11 10 8 8 8 8 9 11 11 12 13 13
19 18 17 18 17 16 17 17 18 20 21 20 19 20 22 23 23 21 18 18 20 19 18 17 17 16 14 13 12 11 10 9 8 8 9 9 9 11 11 12 13 13
17 17 15 16 16 18 18 18 19 19 19 20 20 19 16 18 20 22 21 20 19 19 19 16 16 14 13 13 12 11 9 8 8 8 8 9 10 10 11 11 12 12
18 17 17 17 17 19 20 20 20 19 19 21 22 21 18 17 18 18 20 21 20 19 17 16 15 12 10 8 5 10 10 9 8 8 7 8 9 10 11 11 12 13
15 16 17 18 19 19 17 17 16 13 11 12 21 22 20 22 20 16 17 20 21 19 17 15 15 14 13 10 9 6 8 9 8 8 8 8 9 10 11 12 12 13
14 15 16 18 17 17 16 15 15 17 17 19 21 18 14 17 18 18 17 15 17 18 16 14 13 12 15 13 11 10 5 10 9 8 8 9 9 11 12 12 14 14
16 15 16 16 15 14 14 17 20 21 21 20 19 17 16 16 15 18 18 18 19 19 16 14 14 14 14 14 12 11 9 7 10 9 10 10 10 12 13 14 14 15
17 17 16 14 12 13 16 18 22 23 20 20 21 22 23 20 18 18 17 17 18 18 17 16 16 15 14 14 12 11 10 9 10 11 11 12 12 13 13 14 14 16
16 17 19 17 15 15 16 17 19 17 19 20 22 24 23 23 22 19 15 14 14 14 15 16 16 15 14 13 12 11 11 9 12 12 13 13 13 13 14 15 16 17
15 17 19 17 16 15 17 17 16 20 21 19 18 17 17 19 17 18 18 16 15 15 15 15 15 14 13 13 12 11 10 13 13 13 13 13 14 14 15 16 16 17
15 16 18 18 18 17 18 18 18 18 15 17 19 19 20 20 20 18 19 19 17 15 15 14 14 14 13 13 12 12 8 14 13 14 14 14 16 16 17 17 17 18
16 16 17 18 17 19 19 19 20 20 20 19 19 17 17 16 17 16 15 16 17 17 16 15 13 13 15 14 14 13 11 14 14 14 14 16 18 17 18 19 18 16
18 18 18 20 21 21 19 18 17 19 18 15 18 18 17 17 15 16 14 13 13 13 11 13 11 10 12 14 14 13 13 15 16 16 16 17 19 20 18 19 20 16
17 18 19 20 21 22 19 20 18 15 15 18 18 19 19 17 15 15 15 13 11 11 11 12 11 10 12 12 13 12 11 15 15 16 18 19 19 21 22 21 21 22

ECMWFNIL_sfc_gust_006.txt.gz
Wind_Gust
17 16 18 19 18 17 17 16 15 16 16 15 15 15 17 16 17 15 14 15 15 16 16 15 15 15 15 14 13 13 14 13 13 13 13 12 13 11 12 11 10 9
17 15 15 17 18 18 16 16 16 17 17 15 15 15 16 17 17 16 16 16 16 16 16 15 14 14 14 14 13 13 13 12 12 12 12 11 11 11 10 9 8 8
17 17 17 15 16 17 17 17 17 17 18 17 16 17 18 18 18 17 17 17 16 16 15 14 14 13 13 13 13 12 13 12 12 11 10 11 10 9 9 7 9 8
21 20 19 18 16 16 18 18 17 17 17 19 19 19 20 19 19 19 18 17 17 17 16 15 14 14 14 14 13 14 13 12 12 11 10 10 9 9 9 8 9 9
20 20 18 17 17 16 17 18 20 19 19 19 19 20 22 21 21 21 20 19 18 17 17 17 15 15 14 14 13 14 13 14 12 10 10 10 10 9 9 8 9 9
17 19 18 18 16 17 18 19 20 21 20 19 20 21 22 23 22 22 21 21 20 20 19 18 17 15 14 13 13 13 13 13 13 12 12 11 10 9 9 7 7 8
18 17 18 18 17 17 18 18 19 19 20 20 21 21 22 24 24 24 24 23 22 21 21 19 18 16 15 14 12 13 13 13 13 13 12 12 10 11 10 8 9 10
20 19 19 19 19 18 18 18 18 19 18 20 20 22 23 25 26 24 24 24 23 23 22 20 19 18 16 15 15 14 14 12 12 12 11 11 10 9 9 9 8 10
20 21 21 19 20 19 19 20 18 18 19 20 21 22 23 24 25 25 25 25 24 23 22 21 20 19 17 16 16 16 16 14 12 12 11 11 10 9 9 9 9 10
18 19 19 20 22 22 21 20 19 18 19 20 21 21 24 24 25 26 26 26 25 24 23 22 22 20 19 18 18 17 16 16 15 13 13 11 10 9 9 10 10 11
17 19 19 21 22 18 18 18 18 19 19 22 21 22 23 24 25 26 26 27 27 26 25 24 23 22 21 20 18 17 17 16 15 14 12 11 10 9 5 10 10 10
17 18 19 20 22 22 23 23 25 21 21 21 23 23 24 24 25 27 27 28 27 26 25 24 24 23 22 21 20 18 17 15 14 13 12 11 11 10 9 9 9 10
17 17 18 17 19 18 19 22 25 21 22 22 22 23 24 25 25 27 26 26 27 26 25 25 25 23 22 21 20 19 18 17 15 14 12 11 10 10 10 9 10 10
14 15 16 17 17 18 20 20 20 21 21 20 19 21 22 24 28 26 25 25 27 27 26 25 24 23 22 22 20 19 18 16 15 13 12 11 10 11 11 10 10 10
13 13 14 16 17 18 18 19 20 21 21 21 20 21 21 22 21 24 26 24 23 23 24 23 23 22 22 22 21 19 17 16 14 13 11 11 11 11 11 11 11 10
14 13 14 13 15 18 18 18 19 19 20 21 21 20 20 22 24 25 25 25 25 25 24 23 21 19 13 13 10 18 17 15 13 12 12 11 10 10 11 11 10 10
16 15 14 14 14 15 15 17 18 18 19 19 19 19 20 21 23 24 25 28 29 29 24 22 23 15 15 12 11 8 13 14 13 12 11 11 11 11 11 11 11 12
15 15 16 15 15 15 14 15 16 17 17 17 19 21 22 23 25 27 28 26 24 25 21 20 17 15 16 15 13 10 6 13 12 12 12 12 12 12 12 12 12 12
16 16 16 15 15 15 14 14 14 17 18 18 19 20 21 24 26 26 26 26 23 23 24 19 22 19 18 17 14 12 8 8 13 12 12 12 12 13 13 13 14 14
16 16 16 15 15 14 13 14 15 17 17 17 18 20 23 25 25 26 26 25 24 23 23 23 22 17 17 16 15 13 12 10 11 12 11 12 13 14 14 15 15 16
16 16 16 16 16 16 14 15 17 17 18 18 20 22 24 26 26 26 24 23 22 22 24 22 22 19 17 17 15 14 14 11 11 12 13 13 14 15 16 16 16 17
16 16 16 16 17 17 17 17 17 19 20 19 19 21 21 21 21 23 23 23 22 22 22 21 22 20 17 17 16 14 13 15 13 14 14 15 15 15 16 17 17 17
17 18 17 17 18 18 18 17 18 20 21 20 20 21 22 22 23 22 23 22 20 19 19 19 21 19 16 15 14 13 12 16 13 14 15 15 16 15 17 18 18 18
19 19 20 19 19 19 19 17 18 20 22 22 23 23 22 22 21 20 21 20 19 19 19 18 19 18 15 13 12 14 13 15 14 15 15 16 17 17 18 19 17 8
19 20 20 21 21 21 19 19 19 21 22 21 23 22 23 22 20 21 21 21 20 19 11 15 17 18 18 14 13 14 16 16 16 17 17 17 19 19 18 20 19 13
19 20 21 21 22 21 21 20 19 22 21 21 22 23 23 21 21 20 21 20 18 17 18 16 15 17 20 14 11 8 8 16 17 19 20 20 21 22 22 20 21 22

ECMWFNIL_sfc_gust_012.txt.gz
Wind_Gust
15 14 14 12 13 13 13 12 11 10 10 12 11 12 12 10 10 7 6 6 6 5 6 6 7 6 7 5 7 9 10 8 7 7 9 8 7 7 7 8 6 4
15 14 13 12 11 12 12 10 10 11 8 9 10 10 11 12 11 9 9 7 7 7 6 6 6 7 7 7 5 7 7 6 7 8 5 6 7 7 5 6 4 3
15 13 14 13 11 11 12 9 9 10 7 8 9 10 11 11 10 11 10 9 9 8 7 5 5 5 6 7 5 6 8 6 6 5 5 8 5 5 4 4 3 3
14 13 13 12 11 11 12 10 8 10 7 8 9 10 13 12 10 11 10 11 9 9 8 7 6 6 7 7 5 7 7 7 7 6 6 5 4 5 5 4 4 5
12 12 10 10 10 8 12 11 9 10 9 8 8 10 13 12 11 12 11 11 10 11 10 9 8 7 6 6 7 7 6 7 6 6 6 5 4 4 3 4 3 2
11 13 11 9 7 4 10 11 8 8 9 9 8 11 12 13 13 13 13 13 13 13 12 11 11 10 9 9 7 8 7 8 7 6 7 7 8 6 8 5 4 4
9 8 8 10 7 6 6 7 6 7 8 7 9 10 12 14 14 15 16 14 16 16 16 14 12 11 11 10 9 9 9 8 10 9 9 8 8 5 5 3 3 4
10 7 8 10 7 6 6 6 4 5 7 8 8 10 11 15 17 15 14 17 16 18 16 17 16 15 13 12 12 11 10 9 9 10 9 9 6 8 7 6 3 5
8 9 10 9 9 7 6 8 7 5 8 6 6 9 12 13 16 16 18 18 18 17 18 18 18 17 14 12 12 12 13 10 9 9 8 8 8 7 9 9 7 5
19 19 9 7 8 7 7 10 9 8 6 10 12 13 11 11 15 17 18 18 17 18 19 18 19 16 16 16 16 15 14 14 12 9 9 8 9 9 9 8 7 5
11 13 14 7 7 8 11 14 12 9 10 11 18 21 20 20 14 16 16 18 18 19 20 19 18 19 18 17 15 13 14 13 13 12 10 10 9 7 4 4 4 4
13 10 9 8 9 11 12 12 9 9 10 10 13 17 21 25 21 15 17 19 20 20 19 18 19 18 19 19 18 15 14 12 12 11 11 11 10 7 8 6 4 4
12 8 4 5 7 11 12 12 13 14 11 11 10 17 19 21 20 20 17 16 20 20 19 17 18 18 17 16 17 17 16 15 13 11 11 9 9 10 8 8 8 7
5 6 8 9 10 10 12 13 14 13 12 13 10 17 23 22 23 19 20 24 22 20 19 15 14 14 16 16 17 16 15 14 13 10 12 9 7 9 7 6 6 6
7 6 5 5 5 5 5 9 12 16 20 22 25 28 26 24 17 14 17 19 18 16 11 13 14 16 15 15 16 15 14 13 14 15 11 11 10 9 7 7 7 6
12 10 11 11 10 11 13 13 13 12 12 17 21 24 24 24 21 19 17 21 18 10 14 18 20 16 12 13 12 13 14 16 13 13 13 11 11 10 8 9 8 7
4 4 3 5 5 6 6 9 10 9 11 12 12 16 16 14 13 15 16 16 12 8 9 9 9 16 13 13 14 13 13 10 12 11 11 10 11 9 10 10 9 10
5 4 4 4 5 7 7 7 4 5 6 6 6 6 6 9 9 12 15 13 11 10 9 8 9 9 14 17 16 14 11 11 8 7 8 8 9 10 10 9 10 9
5 5 5 3 4 5 6 6 7 9 8 6 6 4 2 2 5 7 8 8 13 12 14 14 10 6 12 16 16 15 13 11 13 9 9 8 7 8 8 7 7 7
6 5 5 4 4 5 5 8 8 8 6 5 5 5 5 6 6 7 7 6 7 10 13 13 14 14 15 14 15 15 14 10 9 9 8 8 8 8 7 5 3 4
6 5 6 6 7 7 5 8 8 6 8 7 7 7 8 8 9 8 9 9 9 11 11 13 14 15 16 16 14 14 11 6 3 6 8 5 4 4 4 5 4 5
5 4 5 6 7 7 8 9 8 7 8 7 8 8 8 8 7 8 10 13 13 14 10 14 12 15 14 15 15 13 10 5 3 5 4 3 5 5 6 6 7 6
6 7 6 7 7 8 8 8 6 8 8 8 9 9 9 9 8 9 9 11 13 10 13 14 15 13 14 15 15 15 9 6 3 4 6 7 6 5 6 6 7 8
8 9 9 9 8 10 9 6 6 8 10 9 10 10 11 10 10 11 10 9 10 11 16 16 14 12 14 15 16 13 9 7 5 7 8 9 8 8 6 7 8 9
9 9 10 9 11 11 8 8 8 8 9 9 10 10 10 11 11 13 11 8 8 13 15 17 15 12 12 15 14 12 7 6 7 6 4 5 5 6 8 7 6 8
9 10 11 12 12 10 8 8 8 10 10 10 10 13 13 12 11 11 8 14 14 14 13 15 17 13 11 12 11 12 11 11 10 7 6 6 4 5 6 5 5 10

ECMWFNIL_sfc_gust_015.txt.gz
Wind_Gust
14 12 14 15 13 12 14 15 14 15 14 13 13 10 11 8 7 7 8 9 7 7 6 5 5 7 8 8 8 8 7 7 7 7 7 7 6 6 8 6 6 5
12 12 12 12 11 10 12 14 15 16 15 13 13 13 11 10 6 9 8 8 7 7 6 4 3 6 7 8 8 8 6 7 7 6 9 7 5 6 6 4 5 5
9 11 13 11 13 11 11 13 14 14 15 14 14 14 13 10 10 9 10 8 7 6 6 4 3 3 6 7 7 6 7 5 4 5 7 6 5 6 4 3 6 6
6 9 11 11 12 13 9 12 12 12 14 14 14 15 15 11 11 10 9 9 8 7 5 3 3 4 6 6 7 6 5 5 6 6 5 4 5 5 5 4 4 7
7 9 7 9 10 13 10 10 12 12 14 15 14 14 15 12 11 10 10 8 8 8 6 6 3 3 5 5 6 7 5 7 5 6 5 4 4 5 3 5 2 4
7 9 9 12 9 13 11 10 13 11 12 13 15 15 14 13 11 11 10 9 8 9 7 5 5 5 6 5 5 7 5 6 6 5 5 6 4 3 5 5 4 2
22 21 14 9 7 8 8 8 10 10 11 13 14 14 15 14 14 14 12 11 9 10 9 7 5 5 4 6 5 7 6 6 6 4 6 6 6 4 3 4 3 3
25 24 28 24 20 9 8 7 7 7 7 10 14 14 16 16 15 13 13 12 11 10 9 8 7 6 6 5 5 7 7 7 8 6 6 6 6 5 3 2 3 2
15 11 8 11 15 13 6 7 7 7 7 9 7 8 9 14 15 13 12 13 11 10 10 9 9 7 7 6 6 7 8 5 9 7 6 7 8 7 6 4 3 2
11 10 9 7 6 6 5 3 7 7 7 8 7 8 10 6 7 9 12 13 11 9 10 10 11 11 10 9 9 8 9 7 8 7 6 7 8 7 7 7 7 5
18 16 16 12 11 14 9 9 7 8 8 10 8 7 7 8 7 8 8 7 8 8 10 12 14 14 14 11 9 9 9 8 8 8 7 7 9 8 8 11 8 9
4 8 15 18 18 18 17 13 12 10 7 6 8 8 6 6 7 7 11 13 13 13 13 9 11 13 14 14 14 12 11 11 11 10 8 8 9 8 6 9 8 7
5 8 7 9 10 12 10 7 4 4 4 4 2 3 5 7 7 10 12 12 10 9 12 13 12 11 12 15 16 15 14 14 14 12 10 9 8 7 7 7 6 5
7 7 5 5 5 6 7 7 6 8 7 5 4 7 8 6 3 6 9 11 14 15 14 7 8 12 12 8 12 17 16 14 14 13 12 10 8 7 7 7 6 5
8 7 6 6 8 8 7 8 8 5 4 5 6 7 6 3 2 2 3 5 7 9 9 9 10 12 12 11 12 14 14 14 13 13 12 10 7 7 7 7 6 6
9 6 7 7 7 8 8 9 9 9 9 8 9 9 7 3 3 3 4 7 7 7 9 8 9 10 11 16 12 9 9 13 12 12 11 10 10 8 6 7 7 6
11 8 8 7 8 8 8 10 12 12 12 13 14 13 11 8 9 10 11 10 10 10 10 10 11 12 15 17 19 17 12 11 13 12 12 12 12 12 11 9 6 6
10 10 8 9 8 8 7 7 7 9 10 12 12 12 11 10 10 11 10 11 9 10 11 10 11 10 18 18 18 17 13 14 13 13 13 13 12 12 10 9 9 7
3 3 4 6 5 5 5 6 4 2 2 4 9 12 9 12 13 11 13 15 13 13 13 10 8 9 14 16 16 15 15 14 12 13 13 13 13 12 11 10 10 9
1 4 7 6 6 6 5 5 4 3 2 1 1 1 6 9 11 14 13 13 15 14 12 8 8 8 12 13 13 13 16 13 12 12 12 12 12 12 11 11 10 10
4 7 7 6 6 6 6 5 4 5 6 6 3 1 1 3 7 7 8 9 9 10 9 8 11 8 8 10 12 15 16 11 10 11 10 10 7 6 7 8 9 9
5 6 6 6 4 3 3 2 3 2 3 4 4 7 4 2 3 4 7 7 7 10 9 7 3 8 9 12 15 15 14 10 11 11 15 11 7 8 6 5 6 6
6 7 6 4 3 2 1 1 1 2 3 4 5 5 4 5 8 6 6 8 8 8 10 8 6 7 12 13 13 15 11 9 9 10 12 11 5 5 6 5 4 4
5 6 5 4 3 3 2 2 1 1 2 3 4 5 7 6 7 5 7 7 8 9 14 13 8 7 10 11 13 13 10 10 10 11 7 5 4 4 4 4 6 11
2 3 4 5 3 1 2 2 3 4 5 2 4 4 6 7 5 8 2 7 4 10 11 13 11 8 11 13 15 13 13 10 13 14 10 4 4 3 3 10 16 15
2 1 2 3 2 5 5 6 6 2 3 4 6 5 8 7 3 3 10 5 7 9 11 12 15 9 11 16 17 17 14 12 9 11 10 9 10 11 11 12 12 13

ECMWFNIL_sfc_gust_018.txt.gz
Wind_Gust
14 14 14 12 10 10 12 11 9 10 10 11 12 10 10 6 4 6 5 6 6 8 7 8 7 7 8 7 6 7 7 7 7 6 8 9 7 8 10 8 7 8
10 10 13 10 8 5 7 11 11 12 12 12 13 12 9 7 6 8 7 6 5 6 6 7 8 8 8 8 7 8 7 7 6 5 9 8 6 8 8 7 6 5
12 8 13 13 13 8 9 9 10 10 10 11 13 13 11 8 9 7 8 8 7 4 5 6 7 7 8 7 7 7 8 6 6 5 7 6 6 9 6 7 6 6
12 13 12 14 13 12 10 11 10 11 7 8 13 14 14 11 11 10 8 9 8 6 5 6 7 6 6 6 7 6 5 6 6 6 6 5 5 7 6 7 7 6
16 15 14 14 14 15 14 14 14 12 13 14 8 10 13 13 13 12 12 10 9 7 6 6 6 8 7 7 6 6 4 6 4 6 7 6 3 6 3 7 7 6
10 8 4 6 14 16 16 15 16 15 13 10 13 11 12 13 13 13 12 11 8 9 7 6 7 7 8 8 7 8 7 6 3 5 5 5 3 3 5 6 7 6
15 13 9 4 4 5 12 14 13 14 15 15 11 12 11 11 12 12 12 12 12 11 10 9 8 8 7 9 8 7 7 7 6 6 6 3 3 2 1 4 4 4
16 17 14 12 11 7 5 5 12 15 14 11 14 14 13 14 14 13 13 14 14 13 12 12 11 12 11 10 11 9 7 8 8 8 7 6 3 5 2 3 5 4
14 16 13 10 10 8 7 5 5 10 11 16 17 15 13 15 15 14 14 13 12 14 15 16 16 14 12 12 11 11 10 8 9 9 9 8 7 7 6 5 4 4
15 14 12 13 12 10 11 9 8 5 13 15 15 13 15 11 9 12 11 12 12 13 13 12 11 11 12 12 13 12 12 12 10 10 9 10 10 8 7 6 6 5
14 12 12 11 11 9 8 6 7 7 4 11 11 12 11 9 8 7 10 11 13 12 11 11 11 9 9 10 10 11 14 13 12 11 10 10 10 9 8 8 7 7
11 9 10 10 9 8 10 14 14 8 11 7 8 12 9 9 10 10 11 11 10 11 12 11 10 11 14 16 16 13 11 11 11 11 11 10 9 9 9 9 9 8
9 9 9 5 3 3 2 2 5 6 8 10 7 9 11 8 9 11 10 11 11 10 11 12 13 13 15 16 15 14 14 13 12 11 11 10 8 10 9 9 9 8
13 11 7 8 7 6 6 8 5 3 3 6 6 5 9 9 9 9 9 7 10 10 10 7 10 12 13 12 9 8 10 11 12 12 11 9 8 8 9 10 10 10
9 7 6 9 10 12 13 10 6 7 7 7 14 14 13 9 8 8 9 8 6 8 7 5 7 8 8 8 9 9 9 10 11 12 13 11 9 9 9 10 9 10
10 8 9 9 11 12 12 11 10 9 9 9 9 11 8 8 8 8 9 9 8 7 6 7 9 10 10 13 11 13 13 13 11 12 13 12 11 10 9 10 10 8
5 7 7 10 10 9 8 8 8 6 8 8 7 7 9 10 11 10 10 10 10 9 9 10 11 11 12 14 15 14 12 12 14 13 12 13 13 14 13 11 7 9
5 3 4 5 5 7 8 8 6 6 6 6 6 6 8 5 7 10 8 7 7 7 8 9 9 9 13 14 15 15 12 13 12 13 13 13 14 15 13 13 13 11
6 6 6 6 6 6 6 5 7 5 5 5 8 10 4 5 10 6 8 6 7 8 9 9 9 9 13 15 15 14 14 9 8 11 14 13 14 16 16 14 11 11
6 7 5 4 4 4 5 5 5 5 5 5 7 6 6 7 7 9 9 7 8 8 8 6 8 9 12 13 14 13 11 10 8 10 9 10 8 7 9 11 12 11
8 8 8 7 6 7 6 6 5 3 3 2 5 5 7 10 10 8 9 7 6 5 6 8 11 9 9 8 8 10 10 9 6 6 9 10 11 10 7 9 9 10
8 7 6 6 5 5 6 4 3 2 2 2 4 3 2 2 2 5 8 7 6 3 5 9 5 3 5 8 11 11 10 8 6 8 9 8 9 8 8 7 7 7
6 8 7 6 5 6 4 2 1 1 1 1 3 4 4 5 6 5 6 4 4 7 9 7 3 3 5 7 8 11 10 9 11 11 10 10 9 8 9 8 6 7
6 8 9 7 7 6 4 3 3 3 2 1 1 2 5 5 4 6 5 2 3 6 9 7 3 2 4 9 12 13 11 13 11 13 9 10 9 9 10 11 11 13
5 3 5 6 7 6 6 5 5 6 3 3 2 2 3 3 4 4 3 4 4 6 6 7 5 3 5 9 12 14 14 12 13 13 13 9 11 12 11 12 13 13
2 3 5 7 6 6 5 7 5 3 4 3 2 1 2 4 4 5 4 5 6 3 7 8 10 5 6 10 12 13 14 15 12 15 12 10 9 12 12 10 10 11

ECMWFNIL_sfc_gust_021.txt.gz
Wind_Gust
8 10 12 12 12 10 10 10 7 8 6 5 6 5 7 4 3 5 6 7 7 9 7 7 7 7 9 8 8 9 9 9 7 7 9 10 8 9 11 8 6 9
14 15 10 10 10 8 6 7 10 9 8 6 5 5 4 3 3 7 7 7 6 7 7 7 7 8 8 9 8 10 9 9 8 5 10 9 7 9 9 7 7 5
11 10 13 12 13 10 9 7 7 9 9 8 4 3 4 3 5 4 7 8 8 7 6 6 6 6 7 7 7 8 9 8 8 5 8 7 7 9 6 7 7 6
14 14 12 10 13 12 9 8 4 4 4 6 7 5 2 2 2 3 4 7 8 7 7 7 7 6 7 7 7 8 7 7 5 5 7 5 6 7 6 6 6 6
13 12 12 12 9 11 11 10 9 7 6 8 5 4 5 2 2 2 2 3 5 6 7 9 8 9 8 9 8 9 7 8 5 6 8 6 2 6 4 7 6 6
7 9 12 13 13 13 12 13 12 10 7 5 10 7 6 5 5 4 4 4 4 6 6 7 9 9 10 10 10 10 10 9 6 6 7 6 3 2 6 6 6 6
12 10 12 11 8 9 10 6 8 12 11 12 7 9 8 8 8 8 7 7 6 6 6 6 6 6 5 6 6 7 7 8 7 7 9 5 5 3 3 5 6 5
13 12 12 13 14 12 13 16 12 9 11 7 10 12 10 12 12 9 7 7 7 6 5 4 3 4 4 5 7 7 6 6 8 8 8 7 6 6 3 3 5 5
16 15 13 12 12 12 12 12 10 8 5 7 11 8 8 9 10 10 9 8 6 6 5 4 3 4 4 5 7 9 10 8 8 8 8 8 7 6 6 5 5 6
13 14 15 14 14 12 11 8 6 6 6 6 7 6 10 12 9 8 6 7 7 6 7 7 6 6 6 6 6 5 6 8 8 9 9 9 9 8 8 9 8 6
10 13 15 15 14 12 11 9 10 10 8 10 11 11 8 6 11 5 7 9 13 12 10 9 10 8 8 8 7 7 7 7 6 6 6 7 9 9 9 10 9 9
11 9 12 13 12 11 13 14 16 16 15 13 11 9 12 17 18 10 11 13 12 11 10 10 9 9 10 11 10 8 7 7 6 6 7 6 7 8 9 9 10 9
11 8 5 2 7 10 10 12 12 11 12 10 5 9 7 5 5 5 7 8 9 11 10 9 9 8 10 10 8 6 6 6 7 7 7 8 8 9 9 9 9 9
11 9 7 7 7 6 5 7 5 6 8 7 9 11 12 10 8 8 7 7 12 11 11 9 8 7 9 9 6 6 7 7 8 8 9 8 8 8 8 9 10 9
8 7 8 9 11 13 8 7 9 11 11 11 10 8 7 10 10 5 4 8 11 12 14 13 15 14 12 11 10 8 9 11 12 12 12 11 9 9 8 8 8 9
9 10 11 12 13 11 11 12 11 8 8 8 16 19 11 8 10 11 12 13 15 16 16 18 18 13 10 13 11 12 11 11 10 11 11 11 11 10 8 8 10 10
9 11 11 12 13 11 11 9 9 13 12 11 11 16 17 10 12 12 13 15 15 14 13 12 12 10 11 11 12 13 11 10 11 12 11 11 11 11 12 13 11 10
11 11 12 12 9 10 9 9 10 11 12 11 9 7 10 15 9 14 14 12 11 10 11 12 10 9 12 12 12 12 10 10 9 11 11 12 11 12 13 12 12 10
6 9 9 7 9 9 7 6 9 9 8 8 11 10 9 12 14 11 12 10 11 13 14 11 11 11 12 13 12 11 12 10 9 9 10 10 11 12 12 11 9 10
8 7 7 7 6 4 4 5 6 8 7 8 7 7 13 13 13 14 11 13 13 11 10 8 9 11 12 12 12 11 11 9 10 9 8 8 10 11 11 9 11 13
9 8 7 6 5 5 6 5 6 4 4 4 7 7 6 5 8 8 10 7 8 9 10 9 11 5 7 11 10 10 11 9 6 5 6 6 7 7 6 7 7 8
6 7 6 6 6 6 7 5 4 5 6 3 6 6 6 5 5 4 3 3 3 5 5 9 5 2 4 7 8 6 9 7 6 6 5 4 5 5 6 7 9 9
5 9 8 8 7 8 7 6 7 3 2 4 7 5 7 8 4 3 2 2 4 3 6 10 3 3 4 7 7 7 7 6 6 6 7 8 7 6 7 6 6 7
4 8 9 7 7 8 7 6 4 4 4 4 4 5 6 4 3 3 2 2 3 5 5 6 6 3 5 7 9 11 9 10 9 10 8 10 9 8 7 8 8 12
4 2 4 7 8 8 8 7 6 5 4 5 5 7 6 3 4 8 6 7 6 6 7 5 3 5 4 5 9 10 9 8 11 11 11 8 10 9 8 9 9 10
3 4 4 5 5 4 4 6 4 3 2 3 4 7 6 6 5 7 7 7 8 9 10 9 4 3 4 3 8 10 11 12 10 14 12 9 7 10 11 9 9 10

ECMWFNIL_sfc_gust_024.txt.gz
Wind_Gust
10 9 13 8 8 6 7 6 4 8 6 6 8 3 5 3 6 6 5 4 4 6 5 6 7 7 8 7 8 9 10 10 9 8 11 12 10 11 12 10 9 11
14 10 9 8 8 7 7 7 7 7 7 6 6 6 3 5 5 5 6 5 5 5 4 5 5 7 7 8 8 11 9 9 9 5 12 11 9 11 10 9 9 8
14 11 11 11 12 8 7 7 6 4 5 6 5 5 6 5 6 5 5 4 4 5 6 6 6 7 6 6 6 8 10 9 10 6 11 10 8 11 8 8 8 8
14 13 10 9 9 9 8 7 4 4 3 5 5 5 6 5 6 6 5 6 5 5 5 6 7 7 7 7 7 8 6 7 6 8 11 8 8 10 9 9 9 8
13 10 8 10 9 9 10 11 10 7 6 5 4 4 5 5 5 5 6 6 6 5 4 5 5 5 5 7 7 8 8 8 7 7 9 8 5 9 6 9 9 9
7 8 9 10 11 12 12 12 11 10 8 5 7 6 6 5 5 5 4 5 5 6 5 5 5 5 5 5 6 7 6 7 5 6 8 7 5 5 7 7 9 9
11 11 12 10 9 11 13 10 10 11 12 10 7 6 6 6 6 5 5 5 6 5 5 5 5 5 5 5 5 5 5 5 4 5 8 5 6 5 5 6 7 8
12 12 14 11 12 12 11 11 12 12 10 8 8 5 5 6 6 5 5 5 6 6 6 6 5 6 5 6 6 6 4 4 4 4 6 5 5 6 4 4 7 8
10 11 13 13 13 12 12 14 12 10 10 10 9 8 6 6 6 5 2 3 4 5 6 6 6 7 6 7 7 8 8 6 6 6 6 7 5 5 5 5 5 6
11 9 10 13 14 13 14 13 11 10 9 11 11 10 10 8 7 7 6 4 3 3 5 6 6 5 6 6 7 8 8 8 8 8 8 8 9 8 8 7 7 6
9 10 13 13 15 13 14 13 10 9 9 11 11 11 10 9 6 5 6 5 5 2 2 3 4 5 5 6 7 6 6 6 6 7 7 8 9 10 9 9 8 9
7 8 11 14 15 14 15 13 12 10 10 9 10 10 9 9 9 8 8 8 7 5 4 4 6 6 8 8 8 8 8 7 7 7 8 9 8 8 9 10 10 10
8 10 11 10 10 11 9 8 8 6 6 6 7 9 10 10 9 8 6 8 7 7 7 7 7 6 5 6 7 8 8 8 8 8 7 7 8 9 9 9 10 11
9 7 8 9 7 6 7 5 5 6 7 8 9 8 7 7 8 7 7 6 7 7 8 8 8 7 8 9 10 11 10 11 11 9 10 9 9 9 8 10 9 10
6 5 3 4 5 5 5 6 8 9 9 11 10 7 8 5 5 6 9 9 9 9 9 9 8 8 6 7 10 10 9 11 11 13 13 12 11 9 8 9 9 8
5 5 4 3 3 6 6 8 8 8 9 9 10 14 15 11 11 9 8 8 7 4 4 11 11 11 12 13 8 8 8 11 11 13 13 11 10 8 8 9 9 11
4 5 3 4 4 4 5 7 8 8 6 7 9 9 12 12 13 10 10 5 10 13 13 13 12 12 13 13 13 13 10 9 11 11 10 10 9 10 12 12 11 10
8 6 6 7 5 7 8 8 6 4 5 7 7 4 4 9 10 11 9 8 9 9 8 10 9 10 13 12 9 9 8 10 9 9 9 9 9 10 10 10 10 9
8 11 11 10 10 9 6 7 6 7 5 5 6 10 16 19 14 5 9 8 8 9 11 10 9 8 8 8 9 9 9 8 8 7 7 8 8 8 9 9 8 8
6 8 10 11 8 6 7 8 8 8 9 8 10 12 13 12 8 8 7 7 8 10 10 7 9 6 6 9 9 7 7 8 7 6 6 7 8 8 8 8 9 9
5 5 6 5 4 6 7 7 7 5 6 7 11 13 12 12 10 10 9 7 7 7 7 7 8 4 7 9 7 6 7 7 4 3 3 5 7 7 8 8 8 9
5 7 7 4 3 3 5 6 6 8 9 8 6 5 4 5 3 4 7 5 3 2 3 8 7 5 5 6 5 5 6 6 6 5 4 3 3 5 6 7 7 7
2 5 6 5 5 6 7 7 9 8 8 9 12 10 11 9 9 7 6 6 4 4 6 7 7 5 3 3 3 6 6 7 7 7 7 7 7 8 8 7 5 4
4 3 4 8 8 10 10 9 7 7 10 10 15 12 11 11 12 11 9 8 8 7 5 4 5 6 5 4 6 9 7 9 9 9 8 9 9 10 10 10 11 12
6 6 5 3 6 8 9 11 10 10 6 5 10 11 11 10 9 13 9 7 6 6 5 6 2 4 4 3 7 9 9 8 10 10 10 8 9 11 10 10 11 11
7 5 6 8 7 3 1 1 2 5 7 7 6 10 10 7 7 10 11 8 8 8 9 7 5 4 4 3 5 8 8 10 10 13 11 10 8 10 12 10 10 11

ECMWFNIL_sfc_gust_027.txt.gz
Wind_Gust
16 15 14 14 14 14 15 12 9 13 12 9 10 10 11 10 9 10 10 10 9 10 10 10 10 9 9 8 7 9 10 10 10 9 10 11 12 12 13 12 11 13
15 14 14 12 14 15 14 12 10 11 13 10 10 11 11 11 10 10 10 11 11 11 10 10 10 10 9 9 8 9 10 10 10 8 10 11 11 12 13 13 13 13
15 14 13 13 13 16 16 13 10 9 11 10 9 10 12 11 11 11 11 11 11 11 10 10 11 11 10 9 9 10 10 10 10 8 9 10 9 11 11 11 13 12
13 14 13 13 11 13 14 15 11 10 11 11 10 10 11 11 11 12 12 12 12 12 11 10 11 11 11 11 10 11 11 11 10 9 11 11 11 12 12 12 12 12
12 11 11 13 13 12 13 15 14 12 12 11 9 10 12 12 12 12 11 11 11 12 12 12 11 11 11 11 11 12 11 11 10 10 13 12 11 11 10 11 12 12
8 10 11 13 13 14 14 13 15 13 11 11 12 12 12 12 12 12 12 12 10 11 11 11 12 11 11 12 11 11 10 11 10 11 13 13 12 10 11 11 13 13
11 11 11 11 12 12 13 12 11 12 13 11 11 11 12 12 12 12 12 12 12 11 12 12 12 11 11 11 12 12 11 11 11 11 13 12 12 11 10 10 12 13
10 11 12 11 11 11 11 13 12 12 11 11 11 10 11 12 14 12 12 12 11 11 10 10 10 10 10 9 10 10 10 9 10 11 11 11 10 12 11 10 10 11
9 10 11 12 12 11 12 12 12 10 13 13 13 12 11 11 13 13 13 12 11 11 11 10 10 10 9 8 8 8 10 9 8 9 10 11 11 11 12 11 10 11
10 10 11 11 12 12 12 12 11 11 11 13 13 12 11 9 12 13 14 13 12 12 11 11 11 10 10 9 9 9 9 9 9 9 10 9 9 10 11 10 10 10
9 9 10 11 12 12 13 12 11 10 10 12 11 12 11 12 12 12 14 14 13 14 13 12 11 11 10 10 9 9 9 9 9 9 8 9 9 10 7 11 11 12
11 10 11 13 13 13 14 11 11 11 11 10 11 12 10 12 13 13 13 13 12 12 12 12 12 11 10 10 10 9 9 8 8 8 9 9 9 9 11 11 11 12
11 12 12 13 13 13 11 11 11 11 13 14 13 12 11 11 10 12 10 11 12 13 12 11 11 10 10 10 10 11 10 10 10 10 10 9 10 11 11 11 12 11
11 10 11 12 11 10 10 9 10 12 13 12 12 12 12 12 11 11 11 10 11 11 12 12 12 13 12 12 11 10 9 9 9 9 10 11 11 12 12 12 12 11
9 9 9 10 10 10 10 11 12 12 11 11 12 12 11 11 11 12 12 11 11 12 14 13 12 10 9 8 9 9 8 10 11 12 13 13 13 13 12 13 13 13
7 9 10 9 10 11 11 12 12 12 11 12 12 11 11 10 10 9 10 11 12 13 13 12 11 11 13 14 6 9 9 11 11 12 14 14 14 13 12 13 13 13
7 7 8 9 9 9 10 12 13 12 12 12 11 11 11 11 10 12 12 12 12 14 14 13 11 12 13 10 9 9 10 11 12 13 13 13 13 14 14 14 13 14
7 8 9 9 9 10 10 10 9 10 10 10 11 12 12 11 12 13 11 13 13 12 13 12 10 7 9 12 12 11 9 12 12 12 12 12 13 14 14 14 13 12
9 9 10 10 10 10 9 9 9 9 10 11 13 15 13 15 15 13 12 12 10 12 16 17 17 6 10 10 10 7 9 9 12 12 12 12 13 13 14 13 11 10
10 11 11 10 9 9 10 11 11 12 12 12 14 14 16 20 8 12 11 11 12 12 13 12 11 7 5 4 4 5 8 9 11 11 11 12 11 11 11 11 10 10
10 10 11 10 9 10 11 12 13 12 12 11 15 17 18 16 10 10 11 11 11 13 13 13 11 8 7 7 7 8 8 7 10 10 9 9 9 9 10 11 10 10
11 8 8 10 9 10 11 12 12 12 11 11 12 13 12 11 8 8 10 12 13 13 12 12 11 5 8 9 9 9 10 11 10 10 8 7 8 8 7 7 7 7
10 9 9 8 10 11 13 12 12 12 10 11 13 11 12 12 10 9 8 10 11 10 9 8 8 5 3 7 9 11 10 11 10 9 8 9 9 9 9 9 8 7
7 6 7 6 7 11 10 9 10 10 10 12 13 12 11 10 9 10 9 8 8 9 8 9 9 6 2 4 8 11 8 11 11 10 10 10 11 10 9 11 13 11
10 9 8 7 7 8 7 6 7 7 8 7 7 9 11 11 10 11 10 9 9 8 5 8 10 7 4 5 8 11 10 10 12 13 13 11 12 12 10 11 13 13
11 9 7 7 9 8 8 11 10 9 9 9 9 11 12 12 11 11 12 10 8 8 8 7 9 10 8 5 8 9 8 11 12 14 14 14 12 14 14 13 15 16

ECMWFNIL_sfc_gust_030.txt.gz
Wind_Gust
17 16 17 17 16 16 16 15 15 16 16 16 16 16 16 15 13 12 13 13 13 13 13 12 13 12 13 12 11 12 14 13 13 13 13 12 13 12 12 11 10 11
16 16 16 16 16 16 16 15 15 16 16 15 16 16 16 15 13 13 14 14 14 14 13 13 13 13 12 13 11 12 13 13 12 12 12 11 11 12 11 11 11 10
15 15 16 16 18 16 16 15 15 15 16 16 16 16 16 15 14 13 14 14 15 14 13 13 13 12 12 12 11 12 13 12 12 11 11 12 11 12 11 10 12 10
13 13 14 16 17 18 16 16 14 16 16 17 16 17 17 15 15 14 14 14 15 15 14 13 13 12 12 13 11 13 13 13 13 12 12 12 12 12 11 11 11 11
13 13 14 16 17 17 16 16 15 15 15 15 16 16 18 17 16 16 15 15 15 15 15 14 13 13 12 12 12 14 13 14 13 12 14 13 13 12 12 12 12 12
14 15 15 16 16 17 17 15 15 16 16 15 15 16 16 16 16 16 16 16 16 17 16 15 14 13 13 13 12 13 12 13 13 13 15 14 14 13 14 13 13 13
15 14 14 15 17 16 15 16 14 15 15 15 15 15 16 16 16 17 17 16 17 17 17 16 15 14 13 12 13 13 12 13 13 13 14 14 13 12 12 11 12 13
16 15 16 15 17 16 14 16 16 14 14 15 15 15 16 17 17 16 16 16 16 17 16 17 16 16 14 13 14 13 13 11 12 13 13 14 12 13 12 11 10 12
17 16 16 15 15 14 14 15 16 15 15 15 16 15 15 16 16 16 17 17 16 16 16 16 16 16 14 13 14 14 15 13 11 11 12 12 12 12 14 13 11 11
13 14 13 13 13 13 14 14 15 16 16 14 15 15 16 14 15 16 16 16 17 17 16 15 16 15 15 14 15 14 14 15 13 12 11 11 11 12 13 12 12 11
12 12 12 11 12 12 13 13 14 15 15 16 14 15 15 15 15 16 16 17 16 18 18 17 17 16 16 15 13 12 12 12 12 12 11 11 10 10 6 10 11 10
10 10 11 12 12 12 13 14 13 14 15 14 15 16 15 15 15 15 15 17 17 17 17 18 18 17 17 17 16 14 12 12 11 11 11 11 12 11 12 12 11 12
11 12 13 14 14 14 14 14 14 13 16 17 15 16 16 16 15 15 13 14 15 15 17 17 17 17 16 16 17 17 16 15 13 13 13 12 12 13 13 13 13 13
7 8 11 13 14 14 14 13 16 16 17 16 16 16 16 17 15 15 13 13 13 15 15 15 15 15 17 16 15 15 14 14 14 12 12 13 12 13 13 14 14 14
7 8 9 10 13 13 13 14 15 15 16 17 16 16 14 16 17 15 16 16 15 13 15 13 15 15 16 15 15 14 14 14 13 13 12 13 14 15 15 16 16 16
8 7 9 10 11 12 12 12 13 14 15 16 17 16 15 15 17 16 17 18 19 18 15 13 14 15 9 6 4 12 14 14 12 11 13 15 15 15 15 16 17 16
8 7 7 9 10 11 12 14 15 14 14 16 16 16 15 15 16 17 17 18 19 19 18 15 15 15 11 9 9 4 9 11 11 11 13 17 18 17 17 16 16 16
8 7 8 8 9 12 12 12 12 13 15 15 15 16 17 15 11 16 17 17 17 18 18 17 18 12 16 13 10 10 6 11 11 13 15 18 18 18 17 16 14 14
9 9 9 9 10 12 11 11 13 14 14 15 15 15 13 12 13 16 17 17 16 17 17 17 17 11 12 13 12 11 9 9 14 16 17 15 15 15 14 13 12 13
10 9 9 9 10 11 11 13 14 15 14 14 13 14 13 14 14 16 18 19 18 19 19 18 19 13 11 12 12 13 11 10 14 16 15 14 14 14 13 13 12 12
15 13 10 8 9 10 12 13 14 14 14 15 16 15 15 16 15 14 18 16 18 18 19 18 17 13 11 11 10 11 11 8 15 14 15 15 14 12 10 10 9 9
15 15 14 12 9 10 12 13 13 14 15 15 15 17 17 17 19 18 16 17 17 16 16 18 13 11 9 10 10 11 11 15 16 15 16 14 13 11 11 9 9 9
14 14 13 12 12 12 12 12 11 12 12 14 16 17 18 19 17 17 16 16 16 16 15 16 13 10 7 8 10 12 12 17 17 18 15 13 11 12 12 11 10 9
14 15 13 13 12 11 11 11 12 12 12 13 15 15 16 16 16 17 14 15 15 17 17 15 14 11 8 9 11 16 14 17 17 15 13 14 13 11 12 14 15 13
15 15 15 14 14 13 11 13 13 14 12 13 15 15 15 15 16 16 16 15 14 13 4 10 15 12 8 9 10 13 16 15 16 15 15 14 14 14 13 14 14 12
14 14 14 15 15 14 12 12 12 12 12 14 14 16 17 18 19 21 20 17 15 15 13 10 14 15 14 10 9 10 12 14 15 14 15 15 14 17 15 14 15 15

ECMWFNIL_sfc_gust_033.txt.gz
Wind_Gust
15 14 14 15 14 14 13 12 12 12 10 11 12 13 14 13 12 11 11 11 11 11 11 12 12 12 13 11 11 14 15 14 14 14 14 14 14 13 13 13 10 10
14 13 13 13 13 13 12 12 12 12 11 10 12 14 14 14 13 13 12 13 12 13 12 12 12 12 12 13 12 13 15 13 13 14 13 12 13 13 13 11 10 10
13 12 12 12 13 12 13 12 12 11 11 11 12 13 14 13 14 13 13 12 13 13 12 12 12 12 13 13 12 13 14 13 13 13 13 14 13 13 12 12 12 10
13 12 12 12 13 14 13 13 12 12 12 14 14 14 14 13 13 13 13 12 13 13 13 12 12 11 13 13 12 14 13 13 13 12 12 12 12 13 12 11 11 13
14 14 13 14 14 14 12 11 11 12 13 14 14 14 15 14 14 14 13 13 12 13 14 14 13 13 12 12 12 13 13 14 12 11 12 12 12 11 11 12 12 13
15 16 15 16 15 14 13 12 12 13 14 13 14 15 15 15 15 15 15 14 14 14 14 14 14 13 13 13 12 12 12 14 13 12 14 13 13 12 14 13 12 13
15 15 16 16 14 13 13 15 13 13 13 13 14 13 15 15 15 16 16 15 16 16 16 15 14 14 13 13 13 13 13 13 13 13 14 14 13 12 12 11 12 14
15 14 16 16 17 16 14 15 15 15 14 14 12 14 15 16 17 15 15 15 16 16 16 16 16 15 14 13 15 14 13 11 12 13 13 14 10 12 11 11 9 11
16 15 15 15 16 15 15 18 16 14 16 15 14 14 14 15 16 16 16 16 16 16 16 16 16 15 13 13 14 14 14 12 11 11 12 11 11 12 13 12 10 11
16 15 16 15 17 16 15 15 16 15 16 16 16 15 16 14 15 16 16 15 16 16 16 16 16 15 15 15 16 15 14 14 12 11 12 11 11 12 13 12 12 11
13 14 15 15 15 15 14 14 15 16 16 17 16 16 15 14 16 15 15 16 15 17 18 17 17 17 16 15 15 14 14 14 14 13 12 12 10 9 7 11 12 11
13 13 14 16 16 15 15 15 15 16 16 16 16 17 16 15 15 16 16 17 17 17 17 18 18 18 18 18 17 15 14 13 13 13 13 14 13 12 13 11 11 12
13 14 15 15 16 16 15 15 16 15 17 17 17 17 17 16 16 16 15 16 18 17 17 17 17 18 17 17 18 17 16 15 14 14 13 12 13 14 14 13 13 13
11 11 13 15 15 15 15 15 15 16 16 15 16 17 17 17 17 17 16 15 16 17 17 16 16 17 17 18 18 18 16 16 16 14 15 14 12 14 13 14 14 14
9 10 11 12 12 13 14 15 16 15 16 16 16 16 16 18 18 18 18 17 16 16 17 17 17 17 18 18 18 18 18 17 17 17 15 15 16 16 16 16 16 16
10 8 11 13 15 16 16 15 15 15 16 17 17 17 16 16 16 17 18 19 19 18 17 17 16 17 8 5 6 16 18 18 17 16 16 16 16 16 17 18 18 17
8 8 8 9 10 13 13 13 13 13 13 15 16 16 16 17 17 17 18 18 19 19 19 19 19 16 11 8 5 2 14 17 16 17 17 17 17 18 17 18 19 19
11 11 9 9 9 9 9 10 11 12 14 14 15 15 16 15 16 17 17 17 17 19 20 20 19 11 15 12 8 6 4 15 18 18 18 19 19 20 21 21 18 12
10 9 9 9 9 9 9 10 12 12 13 14 15 15 16 17 17 17 17 18 18 18 19 18 15 12 13 10 7 7 8 8 19 19 21 20 21 21 20 19 15 9
10 9 8 9 9 9 10 11 12 13 12 13 13 15 17 16 17 18 18 18 19 19 19 18 16 11 12 12 11 11 11 7 16 17 18 19 20 19 18 16 15 16
13 12 10 9 7 8 9 11 13 12 14 15 15 15 17 15 16 17 19 19 21 21 21 20 17 18 16 16 14 14 10 6 16 18 18 17 14 16 20 18 14 16
11 11 10 9 8 8 10 11 11 13 14 15 16 16 16 17 17 17 18 19 20 21 22 22 14 18 18 18 15 11 10 14 18 18 18 17 16 14 16 16 13 13
13 12 10 10 10 10 11 10 10 12 13 14 16 16 17 19 20 21 19 21 22 22 24 23 15 12 15 16 14 14 10 19 17 18 16 16 14 14 13 12 7 11
15 15 14 12 11 11 10 10 10 11 12 14 16 17 18 19 18 19 19 19 19 20 21 20 18 13 14 14 14 17 14 18 17 19 20 18 16 14 13 13 15 15
15 15 15 15 14 13 11 11 12 13 14 13 15 16 17 18 18 18 17 17 17 18 6 15 14 12 12 13 15 16 17 16 20 22 17 17 16 15 13 14 14 13
14 14 13 14 16 16 14 13 13 14 13 15 15 18 18 18 17 18 17 17 16 18 16 18 17 17 17 14 15 14 16 16 17 17 16 16 16 17 14 15 15 15

ECMWFNIL_sfc_gust_036.txt.gz
Wind_Gust
10 7 6 6 7 6 5 6 5 6 5 6 7 7 9 8 8 8 7 7 7 7 8 7 6 5 7 9 11 11 10 8 8 8 10 9 8 8 8 7 6 6
11 9 7 6 5 5 4 4 4 4 5 6 9 9 9 8 7 8 7 8 8 9 8 7 6 7 7 8 7 7 8 7 8 11 10 10 9 7 6 5 7 9
10 9 8 7 7 5 6 4 4 4 5 7 10 9 9 8 8 7 7 7 9 8 7 7 8 7 7 7 7 7 7 8 10 10 10 10 7 7 5 4 6 7
10 10 9 8 8 8 6 6 4 5 6 8 9 9 8 8 8 8 7 9 8 7 6 5 5 6 9 8 7 7 8 8 7 6 6 6 7 7 6 7 10 12
10 10 9 10 10 9 8 8 6 6 7 7 9 8 9 8 8 9 7 7 7 7 6 7 6 4 4 7 7 7 7 7 6 7 8 7 6 7 6 6 8 10
10 12 12 13 11 10 9 9 9 8 8 8 8 8 9 8 8 9 8 7 8 8 7 6 6 5 6 5 5 5 6 8 7 8 10 10 10 9 12 8 8 8
12 11 10 12 11 10 9 7 7 7 7 7 8 7 8 8 8 9 10 8 10 9 9 7 6 5 4 4 4 6 6 6 7 8 11 9 8 7 8 8 10 10
12 11 12 11 10 10 8 8 8 7 7 7 6 8 8 8 10 7 8 9 9 11 8 9 8 8 5 5 7 5 4 5 5 8 9 8 4 8 8 7 5 8
15 14 12 11 9 9 9 9 8 8 8 7 7 7 6 6 8 7 9 9 10 9 10 9 9 8 6 8 5 4 5 4 6 7 5 5 6 7 10 7 7 7
14 14 13 12 10 10 10 7 8 9 9 9 9 8 10 6 9 10 9 8 8 10 11 9 10 7 7 8 8 6 5 6 6 6 4 4 4 7 11 6 6 5
10 13 13 13 10 10 10 13 9 9 9 12 8 9 9 7 9 9 9 10 8 12 12 11 11 10 9 8 6 5 4 5 5 6 4 3 3 5 6 5 6 4
10 9 10 12 11 9 9 9 10 8 9 7 10 10 8 7 9 8 10 12 12 12 12 12 12 10 11 11 11 8 6 5 4 4 5 4 4 3 6 4 5 5
11 11 10 9 9 8 6 5 8 7 8 9 7 9 8 7 9 9 6 9 11 8 11 10 11 11 9 9 11 11 8 8 6 6 5 5 6 6 6 4 6 7
13 11 11 11 10 8 8 6 6 8 6 5 6 7 9 9 10 8 8 7 8 9 9 8 9 10 10 10 10 9 8 8 8 6 8 6 6 6 7 6 5 5
7 10 8 9 8 8 7 6 7 9 8 14 10 4 6 7 7 9 9 10 9 8 8 8 8 10 12 9 10 10 10 9 8 11 8 9 8 9 6 7 6 4
9 9 8 8 8 8 8 7 9 8 8 9 14 11 4 6 6 5 8 10 10 8 7 7 8 9 6 10 3 8 11 11 8 9 11 8 9 9 7 4 6 15
7 10 11 8 7 6 8 8 9 10 11 11 10 8 9 4 6 8 8 9 10 8 8 7 7 6 8 6 7 4 8 11 11 11 9 10 9 8 7 5 13 19
7 9 12 11 8 8 8 9 9 8 10 9 8 7 10 5 10 9 7 7 9 10 10 8 9 13 6 4 3 5 7 8 7 9 9 8 11 11 13 19 17 16
6 5 8 11 13 12 9 7 7 9 9 10 12 13 10 7 10 8 6 5 5 8 8 9 14 5 12 6 2 2 3 4 7 8 8 9 8 13 19 17 16 12
9 7 7 7 6 8 12 13 15 15 13 14 17 18 14 9 6 6 6 8 8 8 9 8 15 14 14 9 11 8 7 5 8 6 8 7 10 12 6 9 10 11
13 13 11 7 5 6 5 9 15 16 16 16 17 16 16 13 10 10 11 11 12 12 10 9 12 13 18 14 13 13 10 4 6 9 9 7 13 9 10 8 8 15
14 11 8 10 7 7 5 6 5 8 9 8 7 8 10 9 10 11 12 14 14 14 13 11 13 14 15 14 14 10 6 6 7 9 11 11 7 13 17 16 13 12
17 17 12 11 10 9 8 5 5 6 7 8 11 12 11 12 12 12 12 13 13 13 14 13 11 15 16 16 16 14 8 9 10 11 13 11 6 12 14 9 9 12
15 16 15 14 14 13 12 10 10 10 6 8 11 12 14 12 11 13 13 13 14 15 14 13 11 14 19 17 13 15 13 14 14 16 13 9 9 8 8 9 10 9
13 13 14 13 14 13 12 12 10 9 9 9 7 11 11 12 12 13 11 10 10 12 10 14 8 8 9 11 15 16 15 12 14 15 12 10 9 9 9 12 10 11
12 12 11 12 13 13 12 12 11 12 11 10 10 13 13 14 15 16 13 11 11 12 9 10 9 9 15 15 15 15 16 14 14 13 11 11 10 12 10 11 13 10

ECMWFNIL_sfc_gust_042.txt.gz
Wind_Gust
10 10 13 12 12 11 12 11 10 11 10 9 11 8 11 6 5 7 5 6 6 8 7 7 8 8 9 8 8 8 7 7 6 5 6 6 6 8 8 7 5 8
9 11 11 11 10 10 10 11 11 12 9 9 9 10 7 8 4 7 6 6 6 6 6 7 8 9 9 9 8 10 8 8 7 5 9 8 7 9 8 8 8 7
10 11 12 12 13 9 8 8 10 11 11 9 9 10 9 7 7 5 6 6 6 6 7 7 8 7 9 9 8 8 9 7 7 6 10 8 8 11 8 9 8 7
8 9 8 9 10 10 10 11 10 11 11 10 7 9 10 7 7 6 5 6 7 6 5 7 7 6 8 8 9 8 7 7 5 7 10 9 7 10 9 10 9 8
10 10 10 10 10 12 12 14 12 11 10 9 7 6 9 7 7 6 6 6 7 6 6 7 7 7 7 8 9 9 6 7 5 9 11 9 6 10 6 11 10 9
9 11 11 11 12 14 14 14 12 12 11 8 10 7 6 6 7 6 6 6 6 7 7 7 7 6 7 7 8 7 7 8 5 7 9 9 7 7 9 9 10 10
12 11 11 11 11 13 14 12 11 11 11 10 8 7 8 7 6 6 6 6 6 7 8 7 8 7 6 7 7 7 6 6 4 6 8 6 8 7 6 7 8 8
16 10 4 10 11 11 13 12 11 11 9 8 8 7 8 8 6 5 5 6 6 5 6 7 7 7 6 7 8 7 5 4 5 6 6 6 7 7 6 7 7 8
14 10 9 5 10 9 10 11 10 9 8 10 8 7 5 7 7 6 5 5 5 4 5 5 6 6 5 7 7 8 7 5 4 6 6 6 7 6 7 7 7 7
11 11 12 10 8 6 8 7 8 8 7 9 8 6 6 4 5 6 6 6 6 5 5 5 5 6 6 7 8 8 7 6 4 5 5 5 6 6 6 7 8 7
7 7 7 10 10 9 5 6 7 8 7 9 8 7 5 5 5 5 6 5 7 6 5 5 5 6 7 6 6 7 8 7 7 6 6 6 6 6 6 6 5 6
13 12 11 8 5 5 3 3 8 7 7 7 10 9 6 7 8 6 9 8 7 7 6 6 6 7 7 7 6 7 8 9 8 8 8 7 6 5 5 4 6 4
9 8 9 9 4 7 7 4 6 6 7 8 8 9 9 9 7 8 7 10 9 8 8 9 8 7 6 6 5 7 8 9 7 7 6 7 6 7 6 5 6 6
9 4 7 9 9 8 8 3 4 5 5 4 6 7 7 9 9 9 9 8 10 9 10 10 9 7 6 6 6 7 7 6 6 6 6 6 5 4 5 7 6 3
9 11 10 8 6 7 8 10 8 5 4 4 4 4 4 3 5 6 8 6 6 8 8 7 10 12 10 9 8 8 7 7 6 7 8 7 6 5 4 5 5 5
10 10 3 4 7 10 13 12 10 7 6 6 6 6 5 5 3 2 5 9 9 6 7 8 9 9 12 15 12 12 9 9 8 7 8 9 8 6 4 5 7 6
7 12 9 10 10 7 8 4 9 10 6 7 7 6 7 5 6 5 2 3 6 10 9 10 10 10 13 17 16 15 12 10 11 9 7 10 10 10 9 8 5 5
8 9 12 12 9 7 4 7 10 12 7 7 7 8 7 5 8 5 5 3 2 3 7 12 12 8 12 16 17 17 13 14 12 13 11 12 13 12 11 11 10 8
5 5 5 6 5 4 5 9 8 7 9 9 10 8 10 8 4 5 5 6 4 2 5 6 9 8 12 13 13 14 16 14 13 12 14 13 15 14 13 12 12 11
14 11 7 6 7 6 6 4 4 5 6 6 6 11 13 12 5 3 3 5 5 2 4 4 5 9 14 15 13 13 14 12 10 10 11 14 15 16 15 15 14 14
12 13 14 14 14 13 12 10 11 11 12 11 12 15 16 14 10 6 3 2 4 3 2 4 6 7 8 12 14 14 13 11 8 8 10 11 13 13 17 16 14 16
15 14 13 13 13 13 15 15 14 11 11 12 8 9 10 8 7 4 6 5 4 3 4 6 8 7 11 10 9 7 5 4 5 9 11 11 12 7 11 8 9 10
16 16 16 16 15 17 17 16 15 14 14 10 9 9 6 7 6 6 6 6 6 4 6 7 8 10 11 13 11 10 6 5 5 4 8 12 15 11 15 20 12 11
16 15 15 14 14 14 12 11 10 10 10 9 8 11 11 8 8 8 8 8 8 9 9 9 11 11 13 12 14 14 11 11 10 10 12 8 11 10 11 13 17 18
15 17 16 16 16 14 12 11 11 11 11 13 14 11 10 9 9 8 10 8 9 10 9 11 11 12 13 14 13 15 14 8 10 10 10 13 15 15 11 12 14 14
13 14 14 15 15 16 16 15 14 14 13 12 13 13 15 15 14 14 13 14 13 10 8 11 12 13 13 15 15 15 16 12 10 10 12 14 12 12 13 13 11 11

ECMWFNIL_sfc_gust_045.txt.gz
Wind_Gust
12 10 12 11 9 9 9 8 6 9 7 7 10 7 9 7 5 5 4 4 4 6 4 4 4 5 5 5 5 5 4 4 5 7 8 9 9 10 9 7 5 7
8 8 8 8 8 5 7 9 9 10 9 7 9 8 5 7 4 6 5 5 5 6 6 5 4 6 5 6 6 7 4 4 5 4 9 8 10 10 10 9 8 5
9 8 10 11 11 9 9 7 9 7 9 7 6 6 7 6 8 5 6 5 6 6 6 5 5 5 6 5 5 5 6 4 4 4 7 9 9 9 7 8 8 9
9 10 12 10 9 10 7 9 6 7 6 8 6 6 7 5 7 6 6 6 7 5 5 5 6 5 6 6 6 6 4 4 3 5 8 5 5 8 8 7 7 6
7 4 5 8 7 8 8 10 9 8 8 7 5 5 6 6 6 6 5 6 6 5 4 6 5 6 5 6 6 7 3 6 3 6 10 8 5 8 7 9 9 8
9 8 3 8 8 10 8 9 9 9 8 6 7 6 5 4 6 5 5 6 5 5 4 4 6 4 5 5 5 5 5 6 3 6 9 8 5 4 9 9 10 9
12 10 8 5 4 5 7 7 7 8 8 8 7 6 6 6 5 5 5 6 5 4 4 4 5 4 3 5 6 4 4 5 3 5 8 4 7 6 5 8 10 10
11 9 8 7 7 9 9 8 8 9 8 7 8 6 7 7 6 4 5 6 6 3 2 3 3 4 3 5 6 5 3 3 5 4 6 4 5 6 5 6 9 11
12 10 10 7 7 8 9 9 7 7 7 9 7 7 5 9 7 6 6 6 6 4 3 3 2 3 2 5 5 6 5 3 3 4 5 5 5 5 5 5 8 9
14 11 11 9 7 5 9 8 8 8 6 8 7 6 7 4 6 7 6 6 6 4 3 2 2 1 2 2 5 5 5 4 2 3 2 3 5 5 5 6 8 8
12 11 11 10 9 8 4 5 8 8 7 8 7 6 4 5 4 4 6 5 7 6 4 3 4 4 4 2 1 2 4 5 3 2 3 3 4 5 6 6 7 9
14 13 9 7 9 9 9 5 2 6 5 5 6 7 3 4 6 3 6 6 5 5 5 5 3 3 5 5 5 3 3 3 3 3 3 3 3 4 4 4 7 7
13 14 16 12 9 10 11 9 6 5 5 8 5 5 6 5 3 4 3 5 5 4 4 5 4 4 4 4 4 5 5 4 3 3 2 3 4 5 4 3 5 7
8 11 12 16 11 10 11 9 5 4 2 3 5 6 6 6 8 7 6 5 6 7 6 5 5 5 4 3 3 5 5 5 6 5 5 4 4 4 4 5 5 6
14 11 10 11 11 11 10 8 8 8 6 4 3 3 2 3 3 4 5 5 4 4 3 4 5 7 7 6 5 4 4 6 6 6 7 6 4 2 1 1 2 3
10 9 12 6 9 10 9 8 8 10 10 8 8 6 7 3 5 4 4 4 6 5 3 4 6 5 7 10 8 8 8 7 6 5 6 6 5 3 2 2 3 3
11 12 13 14 10 10 8 9 10 11 11 11 9 8 8 8 5 5 2 5 5 6 7 7 7 8 9 10 12 13 10 8 8 7 5 6 7 7 8 6 4 2
10 10 11 10 10 12 10 10 11 12 13 11 10 11 11 7 9 5 5 2 4 5 6 7 9 9 12 10 11 12 11 11 9 9 8 7 7 8 8 7 6 5
17 17 15 14 12 10 8 10 12 10 11 11 9 5 7 9 8 7 5 6 2 2 6 7 8 10 14 13 13 13 13 10 9 9 11 10 9 9 9 9 7 7
20 19 19 18 17 16 16 16 14 11 7 8 9 8 9 8 7 8 8 7 6 4 5 4 7 6 10 14 15 15 14 10 7 8 10 11 12 11 11 12 12 14
18 17 17 17 17 17 17 17 16 15 15 13 12 10 10 10 10 9 9 9 9 6 5 8 7 5 7 8 10 13 15 12 8 6 7 8 10 9 10 13 14 12
16 16 16 16 16 17 17 16 15 15 14 12 12 12 10 9 10 8 9 10 9 9 9 8 8 8 7 7 8 7 5 7 7 9 10 11 10 9 8 11 8 10
16 16 16 16 15 17 17 15 15 15 13 12 13 12 12 12 10 8 8 8 9 8 8 10 10 6 6 9 8 7 5 6 6 7 7 9 11 9 12 8 7 7
14 15 16 16 16 16 14 12 11 10 12 10 11 12 13 12 10 11 9 9 10 11 10 9 11 12 8 7 11 10 9 9 9 9 7 8 8 8 10 11 10 13
12 13 13 13 14 12 12 12 12 10 8 8 10 10 11 11 12 12 12 12 11 10 11 12 11 12 15 14 9 13 12 11 9 9 9 10 9 10 7 8 11 16
14 15 14 15 13 12 12 11 9 11 13 12 11 10 11 11 11 12 13 13 13 13 12 11 12 13 13 16 16 12 13 12 8 9 11 12 10 11 8 8 13 12

ECMWFNIL_sfc_gust_048.txt.gz
Wind_Gust
11 10 13 11 11 12 12 10 7 10 7 8 10 8 10 6 3 2 2 3 4 6 6 7 6 6 7 6 6 6 5 6 5 6 6 6 6 6 9 8 7 8
8 9 9 9 9 7 9 11 10 10 9 7 7 9 4 6 3 2 3 5 4 5 6 7 6 6 5 6 7 8 6 6 6 4 7 6 6 6 7 8 8 6
9 10 12 12 12 9 9 7 8 8 10 7 6 7 8 4 6 3 4 4 5 5 6 7 7 5 5 5 5 5 7 6 6 4 6 7 6 7 7 8 8 8
8 10 11 10 10 11 10 11 7 7 7 8 6 5 7 5 5 5 4 5 6 5 4 6 8 6 6 7 7 7 6 5 4 5 5 3 3 4 7 7 7 8
9 9 8 9 8 10 10 11 10 8 7 7 6 5 8 7 6 5 5 5 4 5 5 6 6 7 5 7 7 8 6 7 5 5 5 4 4 5 6 8 9 9
7 8 9 9 10 12 11 11 11 10 9 7 7 6 6 5 5 5 5 6 4 5 5 5 6 6 7 6 8 8 7 8 5 7 7 6 5 5 7 7 9 9
9 8 9 10 9 9 11 10 9 9 9 9 8 6 7 6 5 5 5 5 5 4 5 5 6 5 5 6 7 8 7 7 7 8 8 4 6 5 5 7 7 8
9 7 8 9 9 8 10 10 10 10 10 9 8 6 7 8 6 5 5 6 6 5 5 5 5 6 5 6 7 8 6 5 7 8 7 5 5 4 4 6 7 9
8 8 8 7 8 8 9 9 9 9 8 11 9 7 4 6 8 7 7 5 6 5 5 5 5 6 4 6 5 7 7 6 6 7 6 5 6 4 5 6 7 8
9 9 10 8 8 5 6 8 9 8 7 9 8 7 8 4 4 7 6 6 6 5 5 5 4 4 5 5 6 6 8 7 6 7 7 5 5 5 5 6 8 8
10 11 12 11 10 10 8 6 6 7 6 8 9 7 5 6 5 4 5 6 8 6 5 4 5 5 4 4 6 5 6 8 7 6 6 6 6 6 6 8 8 8
11 13 13 13 12 12 10 8 9 8 7 7 6 8 4 4 5 3 4 5 5 5 5 5 5 5 5 6 6 7 7 6 6 6 5 6 5 5 6 7 7 9
8 9 13 14 13 12 11 10 10 9 9 9 5 3 5 5 2 4 2 4 3 3 4 6 6 5 5 4 4 5 7 8 6 6 5 4 4 3 4 5 7 9
10 11 10 13 14 13 13 11 10 12 11 10 5 5 5 4 6 6 4 3 4 4 1 2 3 4 4 4 4 4 5 5 6 7 5 4 3 2 2 2 3 5
13 12 13 12 13 15 9 12 11 10 9 8 7 7 7 4 4 2 2 2 1 2 2 3 4 5 5 6 7 6 6 7 7 7 7 6 3 2 2 3 3 4
12 12 12 12 11 10 9 10 13 8 8 10 8 6 6 6 2 1 2 2 2 1 1 2 4 5 5 7 5 6 7 6 6 6 6 7 7 5 3 3 4 5
13 13 12 13 10 10 8 8 10 9 11 11 10 7 6 7 7 7 7 4 2 3 3 4 5 5 6 8 7 5 5 7 8 7 6 7 6 7 8 8 6 6
15 15 17 14 12 11 11 9 10 11 10 11 11 9 8 7 10 7 7 8 7 6 5 7 7 6 6 6 8 8 6 6 6 7 8 7 7 8 9 8 9 8
17 18 17 17 15 13 13 14 15 15 14 14 13 8 8 13 10 10 11 10 10 10 10 9 7 7 8 6 6 6 6 5 5 5 6 7 7 8 9 9 9 9
17 18 18 15 14 15 15 16 17 15 12 11 11 12 13 12 12 13 12 12 11 10 9 10 11 12 13 11 9 7 4 4 5 5 5 6 7 8 8 9 10 11
16 18 17 15 15 15 16 16 14 13 14 12 12 12 13 13 13 13 13 12 13 11 10 12 14 16 17 16 13 9 4 3 5 5 6 7 7 7 9 9 9 10
16 15 15 14 14 15 17 16 14 13 13 10 11 11 10 11 12 13 14 14 13 13 13 14 15 19 19 18 15 11 7 4 4 6 8 9 9 8 9 11 9 8
14 14 14 14 13 16 15 13 13 13 12 10 13 13 14 14 12 10 10 12 13 14 14 12 13 17 19 19 19 15 9 8 7 6 7 9 12 10 10 9 8 7
12 12 13 13 14 15 13 11 10 10 11 10 12 11 14 11 9 9 10 12 12 13 13 11 12 13 17 19 19 18 12 12 9 8 8 8 11 10 9 7 6 6
10 11 12 12 13 11 11 11 11 11 8 9 10 9 9 7 9 11 10 11 11 9 12 13 11 11 14 16 17 18 15 12 11 9 9 10 9 13 9 5 4 8
11 12 12 12 11 10 11 10 7 9 12 11 10 10 10 10 10 11 12 12 11 12 13 12 13 12 13 14 14 15 15 14 10 11 12 13 11 10 13 4 8 14

ECMWFNIL_sfc_gust_051.txt.gz
Wind_Gust
16 12 15 14 15 16 15 14 13 14 13 12 14 12 12 9 10 9 9 8 8 9 9 9 9 9 8 8 9 9 9 9 10 10 10 10 10 11 12 13 12 13
11 12 12 12 12 13 14 14 13 13 12 11 10 11 8 8 8 8 9 10 10 11 11 10 10 10 9 9 9 9 9 9 9 10 10 10 10 11 11 11 11 12
12 12 13 14 15 14 13 11 12 11 11 10 9 9 10 8 9 8 9 9 11 11 10 10 10 9 9 9 9 8 9 9 9 8 8 9 10 10 9 10 11 12
12 13 13 13 14 14 13 13 11 11 10 11 11 10 10 10 9 10 9 9 10 11 10 9 9 9 9 8 8 8 9 9 8 8 9 9 9 9 9 10 11 12
12 12 11 12 11 13 13 14 14 12 12 11 11 11 11 11 10 10 9 9 10 11 11 11 9 9 8 8 7 7 8 8 8 9 9 9 9 9 10 11 13 13
11 13 15 15 14 15 13 14 14 13 13 12 11 11 11 10 10 10 10 10 10 10 11 11 11 10 9 9 7 6 7 7 8 8 9 8 9 8 10 11 13 14
14 13 13 13 13 13 13 12 12 12 12 12 12 11 11 11 11 10 10 10 10 10 10 10 12 11 9 9 8 8 7 7 8 8 9 8 8 8 9 10 11 12
13 13 14 14 14 12 12 13 12 11 11 12 12 11 11 12 12 10 10 10 9 10 10 10 11 11 10 9 9 8 8 6 7 8 8 9 9 9 9 9 10 12
12 12 13 13 13 12 12 11 10 10 10 12 12 12 10 10 11 11 11 10 11 10 10 10 10 11 9 9 8 7 8 7 6 7 7 9 9 11 11 11 12 12
13 13 13 13 13 12 12 11 11 10 9 10 12 12 13 10 11 12 11 10 10 10 10 10 10 10 10 9 9 8 7 7 6 6 6 6 8 10 12 12 13 13
14 14 15 15 14 14 14 14 12 11 9 10 11 12 11 12 11 10 11 10 9 10 10 9 9 9 10 9 9 8 8 7 7 6 6 6 7 8 6 10 12 12
13 13 15 16 17 16 16 16 15 13 13 10 10 10 10 9 10 9 9 10 10 9 9 9 8 7 8 8 9 9 8 7 6 6 6 6 7 7 7 8 9 10
16 15 15 15 16 17 16 16 16 15 16 15 12 12 11 9 8 9 8 8 9 8 8 8 8 8 7 8 9 9 8 8 7 7 7 7 7 7 7 7 8 10
20 19 17 15 15 15 14 15 15 15 14 13 13 13 12 11 9 8 7 6 7 7 8 7 8 8 8 8 9 9 8 8 8 7 6 7 8 8 7 7 7 9
16 15 14 16 14 13 15 15 14 14 12 11 11 12 11 12 11 7 6 8 8 7 7 7 7 7 8 8 9 9 8 9 9 10 8 8 7 8 8 8 8 8
15 14 15 13 13 14 13 14 15 13 11 11 12 11 11 12 11 8 7 6 7 8 8 7 9 9 10 8 10 10 10 9 8 9 10 9 9 8 9 8 7 7
18 17 16 17 15 16 13 13 13 12 11 11 11 11 12 10 9 9 11 9 8 9 12 11 12 14 11 4 4 7 10 8 9 9 9 10 9 10 10 10 9 8
18 18 19 17 17 17 17 16 14 14 13 12 13 12 12 11 13 12 12 12 11 14 17 16 15 15 13 9 3 4 3 7 7 7 8 8 9 10 10 9 10 9
17 19 18 18 17 16 15 15 15 15 14 14 14 10 11 14 13 14 13 12 14 17 17 16 15 14 14 14 10 5 3 5 8 7 7 7 7 7 7 8 7 8
16 18 18 17 16 16 15 16 17 17 15 13 11 13 15 14 14 14 14 15 15 16 17 17 17 14 14 14 12 10 4 4 7 7 7 7 7 7 8 8 9 9
18 17 16 15 16 17 18 17 16 14 15 14 15 15 15 16 14 15 15 15 15 14 16 18 19 14 16 16 14 11 7 2 7 6 7 8 8 8 9 9 8 7
17 17 17 15 15 15 16 16 16 15 15 12 14 15 14 13 14 14 15 16 15 14 15 16 18 18 17 17 17 14 8 8 8 7 7 7 8 8 8 8 8 8
16 16 15 14 14 15 15 15 15 15 14 12 14 15 14 14 13 14 13 14 15 16 15 15 17 18 17 18 18 17 9 10 9 8 7 7 7 7 7 7 8 10
15 16 16 15 16 17 16 14 13 13 14 13 13 13 14 12 10 11 13 14 15 16 15 13 15 16 16 17 17 17 12 13 12 11 10 10 8 7 8 8 8 7
16 17 17 17 18 16 15 15 15 14 12 12 12 12 12 12 12 11 12 13 14 13 12 14 13 13 14 15 16 17 16 12 12 11 11 12 12 12 10 10 10 8
16 17 17 16 16 15 15 15 14 14 14 13 12 12 11 11 11 12 13 13 12 13 14 15 15 15 17 14 15 15 16 15 14 14 14 14 12 13 13 11 11 12

ECMWFNIL_sfc_gust_054.txt.gz
Wind_Gust
11 10 14 15 15 16 17 18 17 17 16 16 16 16 16 14 15 13 12 11 12 13 13 12 11 10 12 13 13 13 13 12 12 11 12 12 11 12 13 13 12 14
13 13 12 14 14 14 15 15 15 17 16 15 15 15 15 15 14 13 11 11 12 13 13 12 11 10 10 12 12 13 13 13 13 15 13 12 11 13 12 12 12 14
15 14 14 14 14 14 16 15 15 16 16 15 14 14 15 14 14 12 11 11 12 13 13 12 11 10 9 10 12 12 13 12 13 13 14 15 13 12 12 13 13 13
16 15 14 14 15 17 17 17 17 17 16 16 15 14 15 13 13 12 11 10 12 12 12 12 11 11 10 10 10 11 11 11 12 13 13 13 13 13 13 13 13 15
16 15 14 15 15 16 16 18 18 18 17 17 15 15 15 14 13 14 12 12 11 12 12 12 11 11 10 9 10 11 11 12 11 11 13 13 13 13 13 13 14 15
15 16 16 16 16 18 20 20 20 19 18 16 16 16 15 15 14 14 14 13 13 12 11 12 12 11 10 10 9 10 10 11 11 10 12 11 12 12 14 14 15 16
17 15 15 16 18 20 21 20 20 19 19 17 17 16 16 15 14 15 15 13 13 13 13 12 12 11 10 10 10 11 10 9 11 11 12 12 11 11 12 13 16 17
21 18 18 18 19 21 20 22 20 19 17 17 16 16 15 15 15 13 13 13 13 13 12 13 14 13 11 11 12 11 11 9 9 10 9 11 9 11 12 12 13 15
22 23 21 19 20 21 20 20 19 17 18 17 17 16 14 14 14 13 13 13 14 13 14 13 14 14 11 10 10 10 12 12 9 9 10 10 10 11 13 14 15 15
24 24 23 23 23 21 19 18 18 17 17 17 17 16 16 13 13 14 14 14 14 14 14 14 13 13 13 12 12 10 11 14 12 11 11 11 11 10 11 13 15 16
24 25 24 24 22 21 18 17 17 17 16 18 17 16 16 15 15 14 14 15 13 15 15 14 14 13 12 11 11 8 8 10 11 11 10 11 11 11 5 11 13 15
21 22 21 20 20 18 18 17 17 16 17 17 17 17 16 16 15 15 14 15 14 13 13 13 12 12 12 11 11 11 9 8 9 9 10 11 11 10 11 10 12 15
21 21 20 18 18 18 18 18 18 17 19 18 16 16 15 15 14 14 12 12 13 12 12 12 12 11 11 10 11 12 11 11 10 9 10 9 8 10 10 10 10 14
21 20 20 20 19 20 20 20 19 19 18 17 17 15 14 14 13 13 11 11 12 11 11 11 11 10 11 11 11 11 11 10 10 9 10 10 8 8 9 9 9 12
21 18 18 18 23 22 22 21 20 19 18 17 15 14 13 13 12 12 12 13 12 12 12 9 8 8 14 13 8 12 10 11 10 12 11 11 11 10 8 8 9 10
24 19 19 16 18 22 21 20 20 18 17 15 14 13 12 11 11 11 11 10 11 12 11 10 12 15 16 17 12 12 9 11 10 10 13 12 11 10 10 9 9 10
21 22 20 19 17 17 17 18 16 15 15 15 13 11 11 11 12 11 12 13 13 14 15 15 15 16 16 12 12 10 10 7 7 9 10 12 12 11 11 11 10 11
20 21 21 19 17 17 17 19 18 17 12 12 11 10 10 11 12 10 11 14 16 18 17 16 14 14 13 12 10 10 8 11 8 8 11 12 13 13 12 12 12 11
18 19 19 17 16 17 16 16 16 16 15 14 13 11 12 13 13 12 13 15 18 19 17 16 15 13 13 12 9 9 7 11 11 9 10 11 11 11 11 12 13 13
19 20 20 19 18 18 18 17 17 17 14 14 13 13 14 14 14 14 14 16 18 19 18 17 17 13 12 12 11 9 6 7 10 7 8 8 8 8 7 8 8 10
19 20 20 20 19 20 19 18 17 16 16 14 14 13 13 13 12 14 15 15 16 18 18 18 18 13 13 13 13 10 9 9 8 8 9 9 9 9 9 8 9 8
18 19 20 19 19 19 20 20 18 17 17 15 14 14 12 13 15 16 16 16 15 16 17 18 18 15 14 15 16 14 13 12 8 8 8 9 10 8 9 10 10 10
18 17 18 18 17 17 17 17 17 16 15 14 15 14 13 13 14 14 14 15 15 15 15 16 17 17 15 16 16 18 13 10 9 10 9 7 9 8 11 8 8 9
17 16 17 16 16 18 16 15 14 14 13 12 13 12 14 13 12 14 15 15 15 15 15 14 16 16 15 16 17 18 15 12 9 7 7 8 10 10 11 11 11 9
18 18 18 17 16 15 14 13 12 11 10 11 11 11 10 11 11 11 13 14 14 14 9 12 14 14 14 15 17 18 19 13 11 10 8 9 9 8 7 12 13 10
18 18 17 17 16 15 14 13 12 12 11 11 9 10 10 11 11 11 12 12 11 12 12 12 12 15 17 12 14 16 18 18 12 11 11 11 10 10 10 8 7 10

ECMWFNIL_sfc_gust_057.txt.gz
Wind_Gust
14 14 20 17 18 19 23 22 20 16 15 14 14 14 14 13 14 12 11 10 10 10 10 10 11 10 11 11 11 11 11 11 12 12 13 13 14 14 14 16 15 15
19 16 14 16 18 19 22 15 14 16 14 13 13 13 13 14 13 13 12 11 12 12 12 11 11 11 11 11 11 11 12 12 12 13 13 14 13 13 13 13 14 14
18 16 15 17 20 17 16 14 13 13 14 12 12 13 14 13 13 12 11 11 12 12 12 11 10 10 10 10 12 11 11 13 12 12 12 14 12 12 14 14 13 12
16 18 23 21 20 19 18 18 16 15 14 14 14 15 15 14 12 13 11 10 12 12 12 11 10 10 11 10 11 11 11 11 11 12 13 14 13 13 13 12 13 12
20 19 21 22 19 17 17 18 16 15 15 15 14 15 15 14 14 14 12 12 12 12 12 11 10 9 9 10 10 10 11 12 11 13 13 12 12 13 14 16 16 16
21 22 21 20 19 19 20 16 16 16 17 15 14 15 15 14 14 15 13 14 14 15 14 12 11 10 8 9 9 9 10 11 11 11 12 11 10 12 13 13 13 13
23 22 20 20 20 19 18 18 17 16 17 15 15 14 15 14 14 14 15 14 14 13 14 13 11 9 8 9 10 11 10 10 11 12 13 11 11 11 12 13 14 14
24 21 22 20 20 20 19 21 18 17 16 16 14 15 14 15 14 13 13 14 14 14 13 14 14 12 10 10 11 10 10 10 12 12 12 12 10 12 11 13 13 14
22 21 20 19 20 20 20 22 20 18 17 17 16 15 14 13 14 12 13 13 13 12 13 13 14 13 10 10 9 11 11 9 8 8 8 10 10 11 13 13 13 13
23 22 20 18 19 19 20 20 20 19 18 17 16 15 15 12 13 13 12 12 12 13 14 14 14 13 12 11 12 10 11 12 10 9 10 9 9 11 13 13 13 14
20 20 19 20 21 20 20 20 19 19 18 18 17 15 14 13 13 12 13 13 12 14 14 14 12 13 13 11 10 8 9 11 12 12 10 10 7 7 4 10 12 13
13 13 19 21 20 19 21 20 19 18 18 16 16 16 13 13 14 14 13 14 13 12 12 12 12 12 12 12 13 11 9 9 10 10 11 11 10 9 8 10 13 13
12 10 9 10 18 19 18 19 19 17 18 17 15 15 14 14 14 13 11 12 12 11 11 10 11 11 8 9 10 13 11 11 10 10 9 9 10 10 9 10 12 14
13 12 14 15 18 20 18 18 18 18 17 18 16 15 15 15 14 13 11 10 11 10 11 10 9 10 11 12 13 11 10 11 12 12 13 11 9 9 9 8 10 12
12 16 22 19 20 21 21 20 20 19 18 17 16 15 14 15 14 14 13 13 12 10 11 10 10 18 18 17 18 12 11 10 11 14 13 13 12 12 9 9 9 11
19 16 20 24 22 22 22 21 21 20 19 18 18 17 15 14 13 13 13 13 13 12 11 15 16 14 16 16 11 14 16 14 10 12 13 13 12 12 11 9 10 11
20 21 18 21 22 23 21 21 22 21 19 18 16 16 14 12 13 12 9 10 13 16 16 15 15 15 16 15 15 15 16 15 10 10 11 11 12 9 12 11 10 14
23 22 21 19 21 22 21 19 20 20 18 16 15 14 13 12 12 12 14 15 16 17 16 15 14 13 14 14 14 15 12 15 14 8 10 11 12 12 11 13 12 13
21 23 21 18 17 17 17 17 17 19 17 15 14 12 11 12 13 12 13 14 15 16 16 15 13 13 12 12 11 12 13 13 17 9 10 11 11 11 11 11 13 13
21 24 21 19 17 17 18 18 17 17 12 11 11 10 10 11 12 13 13 14 15 15 15 15 13 12 12 12 11 11 11 10 16 12 8 8 8 8 7 8 9 11
19 20 20 20 20 18 18 18 16 12 11 9 11 13 13 13 13 13 13 13 14 14 14 13 13 13 14 15 15 13 12 7 13 8 9 6 7 7 9 7 8 8
18 19 21 20 21 19 19 18 15 12 12 12 14 15 15 14 14 12 11 13 13 13 12 13 15 16 16 16 16 16 15 12 12 10 10 10 9 9 9 11 11 9
19 20 20 19 18 18 18 17 14 11 13 12 15 15 15 13 12 12 11 11 12 12 13 15 16 16 16 16 16 19 14 13 7 9 7 7 7 7 11 10 9 9
18 18 19 18 17 18 16 14 14 14 13 12 15 17 15 12 12 13 12 12 12 12 12 13 14 14 15 16 17 19 16 15 13 7 6 8 8 10 9 9 16 18
17 17 18 17 17 16 15 15 14 12 12 12 14 14 12 10 8 12 10 10 12 13 8 12 14 13 14 15 17 18 19 16 16 14 8 8 10 9 8 10 18 18
17 17 17 17 16 16 15 13 11 11 11 11 10 11 10 8 8 9 10 10 10 10 11 12 12 14 16 14 16 17 18 18 14 14 13 12 11 13 12 10 16 20

ECMWFNIL_sfc_gust_060.txt.gz
Wind_Gust
30 25 23 18 15 14 14 13 11 10 10 8 13 13 12 8 8 7 7 7 7 6 6 6 6 5 8 5 5 5 8 7 6 8 8 8 9 11 9 9 7 5
23 21 19 17 15 14 13 13 13 11 10 11 9 7 9 9 8 6 6 6 7 7 7 7 8 8 6 8 7 6 7 9 9 11 8 10 9 9 8 8 9 8
19 19 18 17 16 16 16 13 12 12 13 12 8 9 9 9 8 8 6 6 7 8 6 6 6 5 6 7 5 5 5 7 7 7 8 10 7 8 8 6 8 8
17 18 17 16 16 16 14 14 13 12 10 8 10 8 9 9 6 7 6 6 6 8 6 6 5 5 7 7 7 6 8 6 8 7 7 6 6 9 9 8 10 10
20 17 13 13 13 14 12 13 11 9 10 10 7 9 9 6 7 8 7 6 6 8 7 6 6 5 4 6 7 5 8 7 6 6 6 5 5 6 8 7 8 10
18 15 13 13 13 12 6 10 8 11 10 8 10 10 8 8 8 9 9 8 11 9 8 8 6 6 6 6 4 5 5 7 8 7 7 7 8 7 9 9 8 9
19 17 15 14 15 12 10 6 9 9 8 9 11 8 9 8 9 10 12 8 11 13 12 8 5 5 3 5 4 6 5 5 8 8 10 9 6 6 9 9 11 11
21 17 18 15 15 12 10 7 9 7 8 9 7 10 9 8 9 8 9 8 8 8 7 11 8 6 4 5 9 6 4 5 7 8 10 9 4 6 5 6 7 7
20 17 17 17 16 16 14 14 8 8 10 8 9 9 7 7 9 8 10 9 9 7 9 8 8 8 3 4 6 4 6 5 6 8 4 9 6 5 9 7 6 5
17 17 18 17 19 19 14 13 10 10 9 9 10 9 10 6 9 9 9 6 8 8 9 8 7 9 4 4 8 7 6 6 3 4 5 5 7 9 12 8 5 6
17 16 17 17 18 17 16 13 10 8 8 10 9 9 10 9 9 8 7 7 6 10 10 9 8 9 6 5 6 3 3 5 4 5 4 5 2 9 6 7 6 4
16 14 18 19 21 20 16 16 11 4 6 9 11 11 10 8 8 8 9 11 10 9 10 9 6 7 7 4 7 4 5 4 4 5 3 4 6 3 5 7 6 7
17 13 9 11 17 19 17 14 11 10 10 8 10 9 8 7 9 8 4 7 7 7 8 6 7 10 9 6 6 7 3 4 4 4 3 3 3 2 7 4 7 10
18 11 17 13 14 17 15 15 16 16 16 12 10 10 8 9 9 9 6 5 8 5 10 16 17 17 17 16 17 13 5 2 2 4 3 4 2 4 7 5 13 16
20 13 12 13 9 15 15 13 17 18 12 11 10 9 8 11 9 9 8 9 8 14 17 17 16 15 15 14 13 15 14 6 3 8 5 5 5 3 5 5 15 14
18 11 10 7 10 15 13 11 13 15 12 11 11 10 9 8 7 7 9 9 14 18 18 15 14 12 13 12 8 11 11 15 12 3 5 3 3 4 6 3 14 11
18 15 12 11 9 13 13 13 12 10 9 9 11 11 8 6 9 19 18 18 19 17 16 14 13 14 16 12 11 12 12 11 13 7 3 3 2 5 6 3 12 15
18 17 14 11 11 14 11 10 14 15 18 18 17 15 13 16 18 17 16 16 16 16 15 14 12 15 15 16 13 12 9 11 10 11 6 5 3 4 3 3 10 11
16 18 18 17 18 17 17 17 18 18 18 17 17 13 13 15 15 15 15 14 16 16 15 14 12 15 17 17 15 13 12 10 10 12 12 4 3 3 3 3 10 11
18 19 21 19 18 17 17 17 18 17 14 13 13 13 13 13 13 13 13 13 14 15 14 13 13 14 17 17 15 14 13 9 10 12 9 6 5 5 5 8 7 4
17 19 19 18 18 16 15 17 19 17 16 13 14 13 14 13 12 12 12 13 13 12 12 12 13 16 16 17 16 15 14 5 7 9 8 5 7 8 8 6 6 9
17 19 16 17 17 17 17 18 18 18 15 14 14 14 12 10 10 11 11 13 12 12 12 13 14 18 16 17 18 18 15 8 6 6 5 4 2 2 2 3 5 3
16 15 17 17 16 17 16 14 13 14 12 11 13 11 12 14 12 12 12 11 12 12 13 13 14 16 17 18 18 20 14 11 10 8 3 6 10 9 14 19 18 15
16 15 16 18 17 17 15 14 14 11 11 11 12 12 13 12 11 10 11 12 12 12 12 12 12 14 17 18 19 20 14 11 11 13 11 13 8 4 11 16 19 24
14 15 16 18 17 16 14 14 11 9 9 11 11 13 11 10 9 10 11 10 11 12 11 14 13 13 16 17 19 19 18 12 14 15 14 14 13 12 12 15 14 18
11 11 13 15 15 12 11 9 8 8 10 9 8 11 9 7 8 12 12 9 9 10 12 13 13 13 15 16 17 18 18 14 14 16 15 15 14 14 12 14 14 15

ECMWFNIL_sfc_gust_063.txt.gz
Wind_Gust
7 7 6 16 19 20 20 18 16 15 14 14 14 13 13 11 9 12 11 11 10 11 11 11 10 11 12 10 9 9 9 10 10 10 9 10 10 10 10 9 7 8
1 3 2 5 10 14 16 18 17 16 15 13 13 13 10 11 10 13 12 11 10 12 12 11 10 9 10 12 12 11 11 12 10 10 11 9 9 9 8 9 8 8
5 7 6 10 12 12 14 13 14 13 14 13 11 11 12 12 12 12 12 11 13 13 12 10 10 9 9 9 9 10 12 11 10 8 9 9 8 9 7 9 9 9
9 8 9 9 11 12 11 12 8 11 9 11 9 14 14 11 12 13 12 13 13 12 11 10 10 10 9 9 8 10 10 10 9 10 9 8 8 9 9 10 9 8
10 9 7 8 9 11 10 10 11 10 10 10 10 14 14 11 12 11 12 13 12 10 10 10 8 9 10 10 8 9 8 9 7 8 9 9 8 9 9 10 9 9
7 8 8 10 10 12 11 10 10 9 10 12 14 14 13 13 12 11 12 13 12 11 10 9 7 10 13 10 9 9 8 8 7 6 8 9 8 8 9 9 9 8
10 10 12 14 11 8 10 10 10 11 13 14 14 13 13 13 12 11 13 13 12 11 9 8 9 7 7 9 9 10 9 8 8 8 8 7 7 7 9 8 10 9
10 8 4 13 12 9 9 11 13 13 14 15 14 12 13 12 12 11 12 13 12 11 9 10 8 9 9 10 10 8 7 8 10 9 8 7 6 8 11 11 9 9
9 10 7 8 13 10 10 9 11 12 13 15 15 12 10 11 11 10 11 11 10 11 10 9 8 9 7 9 8 8 6 8 8 8 9 9 8 9 8 10 10 6
12 14 10 11 9 11 11 10 12 11 14 14 13 10 10 10 9 9 10 12 12 12 10 9 8 7 7 11 9 8 6 6 5 7 9 10 9 8 8 11 13 11
15 9 10 10 12 12 10 12 11 13 14 14 10 9 9 12 10 7 8 9 11 11 9 10 10 8 8 7 6 4 5 6 6 8 9 6 5 6 9 11 11 11
12 13 13 10 12 14 12 11 12 12 11 12 10 11 11 11 10 7 9 10 10 10 8 9 9 10 10 4 5 5 6 2 5 6 4 6 6 7 10 9 10 10
14 11 11 14 17 13 7 12 12 12 13 11 10 12 11 11 8 9 7 11 15 17 17 16 14 15 13 12 12 9 6 6 8 4 5 5 7 9 11 10 9 8
10 11 9 8 8 6 5 13 13 14 13 11 12 12 10 9 9 12 16 17 18 17 15 15 15 16 14 12 11 11 10 7 6 6 6 6 9 9 12 10 10 9
9 13 9 12 11 10 9 12 11 13 12 12 12 11 11 10 13 18 19 19 17 16 16 16 18 15 12 11 10 11 9 10 9 7 3 4 9 9 12 10 7 7
14 13 13 12 14 12 15 16 16 15 11 11 13 13 15 18 19 18 17 17 18 16 15 16 15 13 12 12 8 6 6 10 9 10 6 2 4 9 11 10 8 7
14 13 13 16 14 11 14 15 10 9 16 18 18 18 17 16 19 18 16 16 16 16 16 15 14 12 11 9 10 9 6 9 8 8 8 5 4 11 10 8 5 6
11 15 15 14 14 13 16 12 11 14 15 17 19 18 17 18 19 16 15 14 16 17 16 13 12 12 12 11 9 9 7 7 6 7 8 9 5 7 12 11 9 9
13 12 16 18 14 14 13 11 14 15 16 19 19 16 17 19 16 17 16 14 16 17 15 13 11 14 14 13 13 11 10 6 5 6 9 10 10 10 8 7 10 12
16 15 16 17 16 15 11 9 15 15 14 16 17 18 19 17 17 17 15 15 15 15 15 13 14 14 15 15 14 13 11 6 4 5 6 4 8 10 12 10 7 9
17 17 17 18 16 15 14 15 14 14 15 14 16 16 17 17 17 17 15 14 14 14 16 16 15 15 15 16 16 15 12 6 6 6 8 12 14 15 14 13 13 16
14 16 18 18 16 15 16 16 16 15 15 13 17 16 15 16 15 16 16 15 13 15 17 15 15 17 16 17 16 15 11 11 11 13 15 16 18 17 17 17 16 16
14 15 16 16 14 17 16 14 15 16 15 14 18 16 17 17 16 16 15 16 16 15 15 13 13 16 17 18 17 16 11 13 13 15 17 20 19 18 18 18 18 16
16 14 15 15 15 15 15 14 13 15 17 15 17 16 17 15 15 17 16 16 15 14 12 13 13 16 18 18 18 18 13 14 12 15 16 16 17 16 14 15 19 21
15 16 16 16 15 14 15 16 15 15 14 16 14 15 15 13 14 17 16 15 14 13 14 17 15 15 18 19 19 18 16 14 14 14 16 13 13 15 13 14 14 14
13 14 14 15 14 14 13 15 12 14 16 14 13 11 12 12 12 16 17 14 13 13 15 15 17 15 18 20 19 19 16 16 14 16 14 11 10 11 13 11 12 12

ECMWFNIL_sfc_gust_066.txt.gz
Wind_Gust
8 8 7 7 6 8 10 11 10 10 11 12 13 11 13 12 11 11 12 12 12 11 10 10 10 12 12 10 10 11 10 10 10 10 11 11 10 11 11 9 7 11
9 9 8 8 7 8 9 10 9 11 11 11 11 11 9 10 10 12 14 14 13 12 11 12 13 13 12 12 10 11 9 9 10 8 11 9 9 10 10 9 8 6
10 11 11 9 9 9 11 10 11 10 12 12 9 10 11 8 11 10 14 14 14 12 11 11 11 11 12 11 10 10 10 9 10 8 10 10 8 10 8 9 7 9
10 12 12 11 10 10 11 12 11 10 7 10 11 12 12 11 9 10 11 13 13 12 11 10 10 10 10 10 9 9 9 10 9 8 8 6 8 9 8 9 8 9
15 13 10 10 8 9 11 14 14 12 11 12 11 10 11 14 15 11 11 11 12 10 10 11 9 10 10 11 10 10 9 10 7 8 8 8 6 8 8 9 9 9
10 10 9 10 9 10 11 12 14 13 12 10 14 12 12 13 14 12 12 13 11 12 11 10 10 10 11 10 11 11 10 10 9 8 8 8 7 7 9 9 9 8
11 11 10 9 10 11 15 15 12 12 12 14 12 13 15 14 14 14 13 12 12 11 11 10 10 10 9 10 10 11 10 10 9 10 9 8 8 8 7 9 9 9
12 14 15 13 17 17 16 15 13 13 14 14 14 14 13 15 16 14 13 12 12 11 10 10 11 11 9 11 11 11 8 9 10 10 9 9 8 8 8 9 8 8
14 16 13 14 17 15 14 15 14 13 15 17 18 20 14 14 16 15 13 12 11 11 10 10 10 10 9 10 11 11 10 7 9 9 9 9 8 10 9 7 7 7
9 9 13 16 17 15 15 16 18 14 17 20 17 17 18 13 15 13 11 12 12 10 10 9 9 9 9 10 11 11 10 10 9 9 10 10 9 8 8 9 9 8
11 13 14 12 12 11 12 9 12 16 15 13 13 16 13 15 14 11 12 12 13 11 11 9 8 9 9 7 7 8 10 11 10 9 11 9 10 10 11 11 9 10
14 14 13 12 10 9 12 12 13 16 14 12 12 14 13 13 14 12 14 12 9 7 9 10 8 7 7 5 4 5 6 7 11 11 10 10 8 9 10 11 11 10
12 14 14 11 11 11 15 16 16 14 13 14 15 14 14 14 13 14 13 15 13 13 12 10 9 9 9 6 5 5 6 7 7 7 7 7 7 10 10 10 9 8
15 8 12 16 13 11 17 15 13 13 15 16 15 14 16 18 18 17 14 16 15 15 11 10 11 11 9 7 6 6 8 6 6 8 9 8 9 9 9 8 7 8
12 9 13 15 15 13 12 9 10 17 14 13 16 17 19 18 18 18 19 17 14 14 13 11 13 10 8 6 5 7 6 8 8 8 9 12 10 8 7 7 6 6
12 11 15 18 18 16 15 12 10 9 9 20 22 21 20 19 17 16 17 16 16 14 13 13 11 7 9 8 6 3 6 8 9 9 7 9 11 9 5 5 6 6
13 10 13 16 14 19 16 14 15 16 15 22 24 22 22 18 19 18 14 12 14 14 14 12 9 9 9 6 6 7 5 8 10 9 8 8 10 11 9 7 5 7
13 14 14 15 14 15 18 14 14 18 20 21 26 25 20 18 20 16 13 11 14 15 15 11 9 10 9 8 7 7 5 7 7 9 9 9 9 8 10 9 9 10
13 15 14 15 15 14 17 16 12 17 21 22 24 21 19 21 17 16 13 11 15 17 14 11 10 12 11 9 7 6 6 8 10 10 13 9 6 7 9 11 10 10
11 15 15 15 13 17 22 17 13 19 18 18 20 21 21 19 16 16 13 14 14 15 14 12 12 12 11 9 8 8 10 11 12 15 15 15 13 11 11 12 11 10
12 13 14 14 12 15 20 18 15 19 19 16 18 18 19 17 17 16 14 12 12 12 14 14 12 11 11 11 11 13 18 13 16 16 16 16 16 16 17 16 13 13
14 14 14 13 11 16 20 17 16 18 19 16 18 18 16 17 14 15 15 14 10 11 16 14 12 14 14 15 14 15 17 17 18 19 18 18 19 16 17 16 15 13
17 15 14 14 11 15 20 17 18 16 14 15 20 17 17 17 15 14 12 13 13 13 16 14 14 14 15 17 16 14 15 18 19 20 21 22 19 15 16 16 15 13
19 17 15 15 14 15 13 17 15 12 9 13 20 19 20 16 15 17 14 13 15 15 14 16 13 14 17 18 17 16 13 18 17 20 17 18 17 15 14 15 17 18
20 19 17 16 16 15 12 16 16 10 12 14 19 19 18 15 17 19 16 14 14 15 14 18 15 15 18 19 19 15 13 13 17 18 18 14 14 14 11 11 12 12
19 19 18 18 16 15 13 14 13 12 14 16 15 17 18 16 17 18 19 16 14 16 17 14 18 16 18 20 18 17 13 13 11 18 17 13 11 11 12 11 10 10

ECMWFNIL_sfc_gust_069.txt.gz
Wind_Gust
10 12 13 12 13 12 13 14 14 14 13 15 16 15 16 15 12 13 12 11 11 12 11 11 10 10 10 10 10 10 11 11 11 10 11 11 9 10 12 9 8 11
15 14 14 14 11 9 11 16 16 15 15 15 16 15 12 10 11 13 12 11 11 14 12 10 11 11 11 11 11 12 10 10 11 8 10 10 9 9 10 10 10 7
10 15 18 13 15 10 12 14 16 17 18 17 13 11 12 14 13 9 8 10 12 11 10 9 10 10 11 11 11 11 12 11 11 9 10 11 9 10 8 9 8 9
13 13 9 14 16 16 12 13 14 16 15 13 13 14 13 11 11 10 10 11 11 10 8 9 11 11 12 12 11 11 11 12 11 11 10 7 9 9 9 8 7 7
9 13 17 13 12 18 16 14 15 15 15 16 12 9 11 13 13 10 10 11 11 10 11 12 10 11 11 11 11 11 9 10 8 10 10 9 8 9 8 9 8 8
14 17 15 13 10 12 14 15 14 14 13 10 11 9 10 10 10 10 11 13 14 13 11 11 10 10 11 10 10 10 10 9 9 9 9 9 8 6 8 9 9 9
14 12 13 13 13 15 16 15 13 11 11 8 7 8 8 10 7 9 10 12 16 16 17 15 11 11 10 11 10 10 9 10 9 10 10 8 8 7 6 8 9 9
13 13 17 16 13 13 13 12 10 10 8 9 12 12 15 13 9 9 9 13 15 15 14 14 11 11 10 11 12 11 10 9 11 10 9 8 7 8 7 8 8 8
17 17 18 15 14 12 11 10 8 7 11 13 15 14 14 12 12 11 10 10 12 13 12 11 10 10 10 11 11 12 12 9 10 11 10 9 9 9 9 7 7 7
13 14 12 12 14 13 12 10 9 12 16 17 16 17 16 13 10 11 13 15 13 10 11 10 10 10 10 10 12 12 11 11 10 10 10 10 11 10 9 10 10 9
15 15 15 15 13 10 8 7 10 13 14 15 15 15 13 12 8 6 14 17 17 13 10 11 11 11 10 8 8 9 11 11 10 9 10 10 10 10 9 10 10 11
10 10 12 14 10 10 14 12 14 14 17 16 18 19 13 13 14 11 16 15 14 8 8 8 8 10 10 10 9 8 8 9 9 10 9 8 8 8 9 10 11 10
11 12 14 14 16 16 14 14 16 16 16 16 12 11 14 13 14 13 12 11 10 9 8 8 8 7 8 7 7 8 8 8 8 8 7 7 7 9 8 8 8 8
12 11 13 17 15 12 15 15 16 19 17 16 14 14 14 16 16 13 9 11 11 11 8 8 10 9 7 6 6 8 9 7 8 8 7 6 5 5 6 7 6 7
7 11 14 14 7 8 12 16 17 16 16 17 15 10 11 12 14 15 15 14 12 11 10 9 11 9 7 6 8 7 8 9 8 9 8 7 5 3 3 3 5 5
8 11 13 10 7 12 12 16 18 17 15 15 17 13 13 9 13 15 16 15 15 12 10 10 9 7 7 6 5 8 9 10 9 9 8 8 8 7 5 7 6 6
7 10 10 9 7 11 15 17 15 15 17 15 13 14 15 13 16 17 15 13 14 14 12 9 8 7 6 5 6 5 8 10 11 9 7 8 8 9 9 8 8 8
7 8 8 7 5 8 17 18 16 17 16 18 13 13 11 15 17 17 16 14 13 13 13 9 8 7 6 6 6 6 6 10 9 11 9 7 6 9 9 9 9 9
12 6 7 5 9 7 12 18 19 18 17 17 15 9 11 14 16 18 15 11 13 14 12 8 7 8 8 6 7 9 10 11 11 10 11 9 9 10 10 9 8 9
17 9 7 7 6 13 15 18 17 17 16 15 14 9 13 14 15 18 14 13 12 13 12 10 9 9 7 8 12 14 14 13 12 14 13 13 11 11 11 10 8 9
18 17 12 12 11 10 19 20 19 17 17 15 14 11 12 14 16 17 14 12 11 11 14 12 10 9 9 14 17 17 17 14 15 15 16 15 14 12 12 11 9 11
20 20 12 16 15 11 19 19 18 18 18 12 15 13 12 14 13 15 14 12 9 11 16 14 11 12 11 15 18 18 17 16 15 17 16 15 14 12 12 10 9 10
19 18 15 16 17 16 14 19 21 18 15 9 16 14 16 14 14 15 13 12 12 13 17 14 12 12 11 14 17 19 16 16 16 17 16 16 14 12 12 12 11 10
19 18 17 17 20 18 13 13 17 16 15 12 13 16 17 13 13 16 16 14 14 15 13 16 12 12 11 12 12 14 17 18 15 19 15 15 13 12 12 14 15 18
18 21 20 20 21 18 15 13 15 17 16 15 12 14 16 12 13 18 18 16 14 14 16 17 13 12 13 12 14 12 15 16 17 18 18 12 12 13 11 11 12 12
16 22 22 20 18 18 17 16 13 15 16 15 12 11 15 14 15 18 20 16 13 14 17 15 15 13 14 14 13 13 10 14 13 19 17 14 11 12 13 11 10 10

ECMWFNIL_sfc_gust_072.txt.gz
Wind_Gust
2 4 6 11 11 9 9 13 17 18 17 13 12 13 10 7 10 13 13 11 10 11 12 12 12 13 13 14 12 13 13 14 14 13 14 14 13 13 13 12 11 13
3 5 6 6 9 11 13 15 14 13 14 13 10 10 12 6 10 10 11 11 12 16 12 11 10 12 12 13 15 15 13 10 12 12 13 13 13 13 13 14 13 10
8 8 11 15 17 17 16 14 13 11 12 15 15 13 17 12 10 8 10 13 15 13 11 11 11 12 13 9 10 15 15 13 13 11 13 15 12 14 13 13 11 12
16 10 8 9 13 14 9 11 12 14 13 14 15 17 16 13 12 12 12 13 12 9 12 13 13 11 13 12 12 11 13 15 15 14 13 10 11 12 12 11 10 10
13 6 4 9 14 14 10 11 13 15 18 17 10 12 15 13 12 10 12 13 14 15 16 15 13 12 12 12 12 14 15 13 11 12 12 12 10 11 11 12 12 12
7 5 8 12 14 13 11 11 13 10 13 13 15 13 13 12 11 11 13 14 15 17 15 13 12 12 12 11 12 13 14 13 11 12 12 12 11 9 11 11 12 12
11 10 10 12 14 13 15 16 15 9 13 16 12 15 14 13 13 13 13 13 13 14 15 14 13 11 11 11 11 11 15 15 13 14 13 11 12 10 9 10 11 12
13 12 12 15 18 14 16 16 11 6 10 12 16 13 12 14 14 13 13 13 13 13 12 8 10 12 11 12 14 12 9 10 9 11 11 11 11 11 10 10 10 11
11 11 13 14 16 14 13 12 7 12 11 14 12 9 13 16 15 14 14 15 15 15 13 12 12 13 13 13 14 15 15 12 11 12 11 12 11 11 12 11 10 10
8 9 12 14 14 10 12 12 11 14 13 13 9 9 13 11 12 14 14 14 14 14 14 13 13 10 11 13 14 13 12 11 11 11 11 11 12 11 12 13 12 10
10 9 8 8 11 10 12 12 12 12 13 14 11 11 12 11 11 12 14 14 15 16 15 14 12 12 12 14 14 11 14 13 12 12 11 11 11 12 11 12 11 12
13 12 11 11 11 7 10 12 14 17 17 17 16 15 14 14 14 14 15 15 14 14 14 12 11 14 14 14 13 12 16 13 11 12 11 10 10 10 11 11 12 11
15 14 14 11 11 9 10 13 16 17 19 20 17 15 16 16 15 14 14 15 14 12 13 13 14 13 13 14 12 13 14 12 11 10 9 9 9 9 10 10 10 10
17 14 13 14 14 12 9 13 16 17 18 15 15 17 18 17 17 16 13 13 13 13 10 11 12 11 11 12 12 11 11 11 11 10 10 8 8 7 8 8 7 7
21 19 13 12 14 15 13 13 14 17 17 16 17 18 15 12 12 14 14 11 9 10 10 11 13 13 12 13 11 9 10 11 11 11 11 10 8 7 7 8 7 7
21 20 17 13 13 13 14 15 15 17 17 16 17 16 16 16 16 12 14 15 14 11 10 9 9 8 7 10 9 13 11 10 10 10 10 10 11 10 9 8 7 7
19 20 18 14 13 13 12 14 16 15 14 14 13 13 13 15 16 16 14 13 15 15 13 10 8 7 5 6 9 11 11 11 12 10 9 10 11 12 12 11 9 8
20 19 18 14 12 12 12 9 12 10 10 11 12 9 9 12 14 14 14 13 12 13 13 11 8 3 4 6 8 11 9 12 10 12 10 10 11 12 11 11 10 9
21 19 18 11 6 7 5 2 5 9 12 13 12 11 11 13 12 13 12 10 14 16 13 10 7 2 5 6 8 10 10 10 11 11 13 12 11 11 11 11 10 10
22 19 18 16 12 10 8 7 9 9 10 9 12 15 15 12 12 12 11 11 12 15 14 11 7 3 6 10 12 13 15 13 13 14 13 13 12 11 11 10 9 11
22 20 19 17 16 14 15 15 12 12 14 12 13 16 16 15 13 11 10 11 11 12 15 12 8 6 10 13 15 17 18 14 16 16 16 14 12 10 10 10 9 10
21 20 19 18 16 16 18 17 16 13 13 15 17 18 17 17 17 15 12 11 10 10 14 13 12 11 10 14 18 18 18 17 16 17 16 14 13 10 10 9 8 9
22 19 19 18 17 17 19 19 16 14 15 14 19 17 19 19 17 15 11 13 13 11 15 14 13 10 11 12 16 20 16 17 17 17 15 15 13 10 11 10 10 8
22 19 18 18 19 19 18 17 16 14 17 15 18 17 18 15 15 17 15 16 15 13 10 15 14 11 11 11 11 13 16 19 16 19 15 15 14 11 11 12 13 15
21 20 17 18 19 18 17 16 15 14 14 15 17 16 16 14 15 16 16 17 17 15 15 16 14 13 14 13 12 11 16 17 18 19 18 13 14 14 11 11 12 14
21 20 19 19 19 18 17 15 14 15 17 16 16 15 18 19 20 19 20 17 16 17 18 15 15 15 15 16 13 12 9 15 15 21 19 16 12 14 15 11 12 12

ECMWFNIL_sfc_gust_075.txt.gz
Wind_Gust
11 10 13 17 18 19 17 16 17 16 18 17 17 17 20 21 17 17 14 15 17 18 14 16 19 20 17 15 14 15 18 20 18 18 19 19 18 21 22 22 20 21
13 13 15 16 17 16 16 16 17 19 18 16 16 16 15 16 18 18 19 20 17 15 14 15 17 18 18 17 16 17 18 17 19 20 18 20 20 22 23 21 21 21
13 13 15 16 17 14 15 16 15 13 13 14 15 16 15 15 18 21 20 19 20 20 18 15 16 18 19 19 19 18 18 20 20 19 20 22 22 23 23 22 22 20
17 15 16 16 15 17 17 15 14 12 13 17 18 19 14 15 17 19 20 19 19 20 16 15 16 18 19 21 20 19 20 20 20 18 17 17 21 21 20 21 21 20
18 18 17 18 16 16 16 15 15 14 15 17 17 17 16 17 20 20 19 19 18 18 17 16 15 17 18 18 20 19 19 19 18 18 18 19 17 18 18 16 20 20
19 18 18 18 17 15 15 14 14 15 16 17 19 17 18 18 20 20 19 18 20 20 20 18 16 15 18 19 20 20 19 19 19 20 21 21 19 19 19 20 20 21
21 20 17 16 15 12 14 16 16 18 20 21 18 18 18 20 21 22 20 20 20 21 21 22 20 20 19 18 18 20 19 17 17 20 21 17 17 18 18 19 20 21
22 19 20 16 15 16 17 19 21 21 21 19 19 17 19 20 21 21 20 20 20 21 22 22 22 22 20 20 19 19 19 16 17 20 20 20 15 16 18 20 19 20
20 18 18 18 17 17 16 19 20 20 17 18 17 17 19 21 21 21 21 20 20 20 21 21 21 21 21 21 21 21 21 18 18 20 22 21 21 20 19 20 21 21
19 19 18 18 17 17 18 18 19 19 18 18 18 19 19 19 19 19 19 20 21 20 21 20 21 21 22 22 22 21 21 20 20 21 21 21 19 21 22 23 23 21
20 19 19 18 16 15 15 17 18 19 19 18 18 21 19 18 18 18 19 21 22 22 22 22 21 21 21 21 20 19 20 19 19 20 20 18 19 20 18 23 22 21
21 19 20 20 19 18 18 19 20 19 19 20 19 21 20 19 18 19 20 21 22 23 23 23 23 22 22 21 21 21 18 17 18 18 18 15 19 18 22 23 20 19
25 24 23 21 20 20 19 21 21 20 20 22 19 20 19 18 18 19 19 21 22 22 23 22 22 22 22 22 22 21 21 23 22 19 17 17 17 16 21 22 19 17
24 24 24 24 23 21 20 19 20 20 20 18 17 19 20 19 20 19 20 21 23 23 22 21 21 21 22 21 21 21 22 21 19 17 18 21 19 18 18 16 16 13
25 24 22 24 25 24 21 20 20 19 19 19 19 18 19 20 19 19 21 22 21 21 21 20 22 22 22 21 21 19 18 20 19 20 20 18 17 14 19 15 15 11
26 25 25 24 24 23 22 20 21 20 20 19 20 20 20 18 20 20 22 23 21 22 21 21 22 20 13 15 13 18 18 15 15 16 16 10 11 16 16 14 13 13
24 25 24 23 23 24 22 21 21 20 21 21 20 19 19 18 19 19 20 20 22 22 22 20 17 12 12 14 15 16 18 17 17 19 18 16 17 15 16 18 16 14
25 25 23 23 23 23 24 23 22 20 19 21 21 19 16 14 16 18 18 19 20 23 17 14 13 9 13 16 15 16 15 19 15 16 19 18 15 18 16 13 14 13
24 24 23 22 22 21 20 20 20 19 18 17 15 11 11 13 13 12 14 15 15 15 16 14 11 9 14 15 15 16 16 15 16 17 17 20 19 15 13 14 13 13
24 23 23 22 20 19 19 19 20 19 18 17 16 14 10 8 7 8 7 9 11 13 13 12 11 8 11 13 15 15 15 10 15 15 14 15 14 12 12 13 13 14
24 22 22 22 21 20 19 19 19 18 20 20 18 16 15 14 13 11 11 11 11 12 12 11 8 7 12 16 17 18 17 12 15 15 14 13 12 11 11 10 10 10
24 22 23 22 23 23 23 23 21 20 20 20 18 18 14 12 13 14 15 19 21 19 17 16 19 12 14 18 20 20 18 16 16 15 15 14 14 12 11 10 9 10
22 22 23 23 23 24 24 24 23 22 20 19 20 19 17 17 16 17 18 20 23 22 21 19 17 21 16 19 20 19 14 16 16 17 16 16 14 12 13 12 10 9
23 22 22 22 22 24 24 23 23 23 23 20 19 20 18 16 13 19 19 19 22 23 21 16 17 21 20 16 13 16 17 18 16 18 16 16 15 13 13 14 15 13
22 23 22 21 23 22 23 24 23 22 20 19 17 17 15 15 18 20 20 22 21 17 22 22 19 19 22 19 17 12 15 15 16 18 17 13 15 15 14 14 14 14
23 23 23 22 22 21 21 21 19 22 22 17 15 15 18 17 18 20 20 19 18 20 21 21 20 20 22 21 15 13 8 14 14 18 17 15 13 15 16 14 14 14

ECMWFNIL_sfc_gust_078.txt.gz
Wind_Gust
16 16 16 17 17 15 15 15 16 17 17 16 16 18 21 20 18 18 20 21 20 19 20 21 19 18 20 18 17 23 24 23 22 19 22 23 22 22 23 22 21 21
17 17 17 17 17 14 15 15 16 17 17 17 17 17 18 18 16 17 19 19 20 21 21 20 18 18 20 20 22 22 20 20 22 22 22 22 24 22 22 22 22 21
16 17 18 17 18 16 15 16 17 17 18 18 17 17 17 17 16 15 17 18 20 20 21 21 20 19 19 19 20 19 18 19 23 22 23 25 24 22 21 22 22 21
17 17 18 15 16 18 18 17 16 18 18 19 18 18 19 17 16 16 17 18 20 20 20 21 21 20 20 19 21 21 23 22 21 21 22 23 24 24 22 22 22 23
17 17 16 15 14 15 18 19 18 18 19 19 18 16 18 17 16 17 17 18 19 20 20 22 22 22 20 20 20 19 21 19 16 19 23 23 23 23 22 22 22 23
17 17 16 15 15 14 17 18 18 19 20 19 17 15 18 16 18 19 19 19 20 21 21 20 21 20 20 23 22 21 21 21 19 23 24 23 23 22 23 21 22 22
19 18 17 16 14 17 17 18 17 18 19 16 15 17 20 18 18 18 19 19 20 21 22 23 21 21 22 22 22 21 20 18 20 23 25 24 23 23 22 21 23 24
19 18 19 18 16 15 16 18 18 16 15 19 17 17 18 18 18 16 16 19 20 22 22 22 22 21 23 24 24 22 19 19 19 22 24 23 23 24 25 22 21 23
21 19 20 18 18 18 15 16 16 16 17 16 17 17 16 17 18 17 17 19 20 21 22 22 23 23 23 24 24 23 23 22 23 25 24 24 23 23 25 24 24 23
22 23 21 20 19 18 17 17 17 16 17 17 16 16 18 17 18 18 17 18 20 21 22 22 23 23 23 24 24 24 23 24 23 23 24 24 25 24 24 24 25 24
24 23 22 21 21 21 20 19 18 18 16 17 16 17 17 18 19 18 18 20 21 22 23 23 23 23 23 23 24 23 24 24 24 24 23 23 24 26 18 24 24 24
26 25 24 22 21 20 20 20 20 18 17 16 17 19 18 19 19 19 18 19 20 22 23 23 22 23 24 24 25 25 25 25 24 22 22 23 25 23 24 24 25 24
26 26 26 23 22 23 22 21 20 18 18 18 16 18 19 19 18 19 19 19 21 22 24 24 23 23 24 24 25 26 26 26 24 23 21 23 23 23 22 23 23 22
26 25 24 26 25 24 23 22 20 18 17 17 17 18 18 18 20 21 20 19 20 21 22 21 20 23 23 25 25 24 25 24 22 22 21 21 19 20 20 21 21 20
27 25 25 25 25 23 23 23 24 24 21 17 16 18 18 18 19 20 20 21 21 22 21 20 23 24 24 23 24 23 24 24 24 24 22 22 20 18 18 19 20 19
27 26 27 26 26 24 23 23 25 24 24 23 22 20 20 19 20 19 20 21 21 22 21 19 22 24 17 16 13 21 22 24 23 23 23 22 20 19 19 19 19 18
26 28 28 28 27 26 25 24 24 22 22 23 23 22 24 24 22 21 19 21 23 22 23 22 21 22 13 15 16 16 22 23 24 24 21 19 18 22 21 19 18 15
27 27 28 28 28 27 27 25 24 23 23 23 22 20 21 23 24 23 20 19 21 23 22 22 21 13 17 18 16 17 13 23 24 24 21 19 18 20 20 20 19 17
27 27 27 28 28 28 27 26 26 25 25 25 24 23 19 18 19 20 19 20 21 23 24 21 23 13 21 19 17 17 15 17 22 23 24 22 21 19 19 19 18 19
28 28 28 27 27 28 27 27 27 26 24 23 23 23 22 20 17 16 16 16 15 14 15 15 13 18 17 16 17 17 16 14 19 21 22 22 21 21 20 22 22 22
28 28 28 27 27 27 27 26 26 26 25 24 23 22 22 21 19 17 17 16 15 13 12 13 17 16 8 10 14 16 16 14 20 21 22 21 21 20 21 21 20 20
27 27 27 27 26 26 26 26 26 25 25 24 22 20 20 20 20 20 19 19 17 15 13 15 17 17 11 9 8 12 15 13 11 16 18 19 18 21 19 18 17 16
26 26 25 26 25 25 26 25 25 25 24 23 21 20 19 20 21 21 21 20 20 18 16 14 16 18 19 14 12 15 13 12 16 16 15 16 17 16 16 14 12 11
26 25 24 24 24 25 25 25 24 23 23 22 21 20 20 20 20 23 24 23 23 21 18 16 14 23 26 23 22 20 23 17 18 18 18 18 17 15 14 15 16 19
25 25 24 24 25 24 24 24 23 21 20 21 20 19 19 18 19 18 18 19 20 23 19 19 19 21 27 23 24 24 20 15 16 17 18 16 15 15 15 15 15 16
24 24 24 24 24 23 24 24 22 21 21 21 22 21 21 20 18 20 21 21 21 21 20 20 23 20 23 24 25 23 21 15 12 15 13 15 15 16 17 15 16 17

ECMWFNIL_sfc_gust_081.txt.gz
Wind_Gust
17 17 19 21 20 18 17 18 18 21 18 17 19 18 18 17 17 15 15 16 17 18 19 19 19 19 21 20 18 18 19 21 21 21 23 23 19 18 21 22 19 16
16 16 18 19 19 19 18 18 17 18 19 17 15 16 16 19 19 20 19 16 16 17 17 18 19 20 19 19 19 19 20 22 22 22 22 23 22 21 20 19 15 17
16 17 18 18 21 22 23 21 18 18 18 16 14 16 18 15 21 21 22 21 18 17 18 19 20 20 20 19 18 16 20 21 23 22 22 23 21 21 19 15 16 17
18 18 19 18 20 21 23 23 21 18 17 16 13 13 13 17 19 23 22 22 20 17 18 19 19 19 20 21 20 18 19 23 23 21 22 20 20 20 18 19 18 22
19 20 19 19 19 20 21 22 23 21 18 18 15 9 15 16 15 22 21 22 19 17 18 20 20 20 19 22 22 21 20 20 19 20 21 20 20 19 22 21 23 25
20 20 20 20 19 19 21 21 24 23 19 17 17 13 12 10 16 20 21 21 19 20 19 20 20 20 21 21 24 25 24 23 20 21 24 24 21 20 22 22 24 24
20 20 20 21 21 22 23 21 22 23 20 17 17 17 15 13 16 18 19 20 22 20 21 22 21 21 21 22 23 24 27 24 23 25 25 24 23 23 20 18 19 21
20 19 21 22 22 22 22 23 22 23 22 20 19 18 15 17 17 16 17 15 17 24 22 23 24 23 21 21 23 24 24 26 25 26 25 25 24 24 22 20 20 20
22 21 22 21 21 22 22 24 25 24 24 22 22 19 17 17 18 18 17 13 17 23 25 24 28 27 22 22 24 24 26 26 25 25 26 26 23 24 25 24 22 25
22 22 22 22 22 21 21 22 24 25 25 26 22 20 20 19 18 19 18 17 21 28 27 26 29 26 22 22 24 25 26 27 26 27 27 26 25 25 24 25 26 26
22 22 22 22 22 22 21 22 21 23 23 24 25 22 19 19 20 18 19 24 23 25 24 25 26 26 22 22 23 23 25 25 26 27 27 27 26 25 19 25 24 26
23 23 23 22 22 22 21 22 23 22 23 24 25 26 23 22 20 22 22 22 24 24 28 29 21 16 20 21 22 23 24 24 24 24 25 27 26 25 25 24 25 25
23 22 23 22 22 22 22 22 22 23 24 25 25 26 25 25 23 22 21 23 24 24 25 26 19 21 18 19 23 26 25 23 27 25 22 25 24 24 19 21 22 27
22 21 21 22 22 22 22 23 23 23 22 23 23 24 24 25 25 24 24 23 24 24 25 23 16 18 17 23 25 26 25 20 22 18 23 19 13 18 19 21 24 24
23 21 22 23 23 23 23 23 24 24 24 23 21 21 21 23 24 25 26 26 25 23 25 20 20 17 21 23 26 26 23 22 19 18 18 18 22 22 22 22 24 24
24 23 24 24 24 24 24 24 25 25 25 25 25 24 24 24 25 24 25 25 27 28 23 18 20 22 15 11 13 22 21 19 21 22 19 18 20 23 23 24 25 23
25 25 25 24 24 24 24 25 27 27 26 25 25 26 27 26 26 27 26 25 26 27 29 23 17 18 13 11 13 18 18 18 15 14 16 19 24 26 25 25 25 23
26 25 25 25 25 26 25 25 26 27 27 26 25 25 25 24 25 25 25 25 24 24 24 24 21 19 23 22 19 15 14 18 18 17 20 26 26 25 24 22 23 22
26 26 26 26 25 25 24 26 26 27 27 26 26 25 23 24 24 25 24 25 25 25 24 21 19 17 23 21 19 17 17 19 20 19 23 22 24 24 24 25 21 21
26 26 26 25 24 25 25 26 26 27 26 25 25 24 24 24 23 24 24 24 25 24 24 23 19 18 23 22 19 14 14 17 21 23 20 22 22 23 22 23 23 22
25 25 26 26 25 25 25 25 26 25 25 25 26 25 26 25 24 24 24 24 25 25 25 23 20 20 23 22 20 15 12 14 20 19 20 21 24 20 20 22 21 24
25 25 25 25 25 24 24 24 23 24 25 25 24 24 24 24 24 25 25 25 26 25 25 25 23 20 26 25 21 16 11 13 14 16 18 18 15 13 16 16 15 15
25 25 24 25 25 25 25 24 25 25 24 24 23 24 24 25 25 24 23 23 25 27 28 26 24 23 27 26 22 15 8 13 14 16 17 18 17 17 14 11 10 10
24 24 24 25 25 26 27 26 25 24 24 24 22 22 23 24 23 24 24 23 24 26 30 26 25 24 26 26 21 18 11 13 16 10 11 14 12 10 14 17 17 19
23 24 23 24 25 24 24 25 25 25 23 23 24 21 21 22 22 24 25 25 24 24 25 28 26 23 27 28 22 24 19 9 11 12 16 17 17 17 16 16 19 19
23 23 23 23 24 24 23 24 24 24 25 24 23 24 24 21 21 21 24 26 25 23 26 26 27 25 29 30 25 27 23 17 17 20 19 20 21 20 17 22 21 19

ECMWFNIL_sfc_gust_084.txt.gz
Wind_Gust
16 18 18 19 20 19 16 16 14 8 7 11 8 9 13 12 8 9 9 7 12 14 12 12 12 13 16 18 16 16 17 18 18 17 18 19 19 17 18 18 16 16
16 16 16 17 17 18 18 15 14 11 9 10 10 11 12 11 11 8 6 9 12 13 12 10 12 16 17 17 16 16 18 19 18 17 19 20 19 17 19 18 18 15
16 16 15 15 16 16 18 18 15 13 9 8 13 12 11 9 11 11 8 11 9 9 11 12 12 14 17 17 15 16 16 16 18 15 16 18 19 17 18 20 18 18
18 20 19 18 17 17 16 17 19 16 12 11 10 10 10 14 14 14 12 13 12 11 10 10 11 13 14 17 15 17 17 19 17 14 15 15 15 16 15 15 17 16
18 19 20 21 20 20 19 19 19 20 16 14 12 12 12 11 15 15 13 13 12 12 10 12 12 14 16 14 12 18 18 19 17 15 16 17 14 14 16 17 17 20
19 19 19 19 20 21 22 21 21 21 21 18 16 12 13 13 14 16 13 13 11 12 13 13 12 12 13 13 11 15 18 19 19 18 19 20 16 13 16 18 21 22
21 19 19 20 20 20 19 21 22 21 23 22 20 17 12 15 17 17 15 14 15 15 15 11 9 11 11 12 11 12 17 21 21 20 22 19 17 18 17 15 16 21
21 20 22 23 20 19 19 20 20 22 21 22 22 20 17 11 16 18 15 16 13 16 15 13 10 9 10 11 12 11 17 22 19 22 21 21 16 20 22 21 18 18
22 22 23 22 22 20 20 22 21 21 21 23 22 22 21 20 13 15 19 16 17 16 17 15 12 10 10 12 14 14 15 17 20 20 20 22 20 19 18 19 20 19
21 23 22 22 22 21 21 20 22 20 20 23 24 25 27 23 22 19 18 16 17 18 18 17 15 13 11 13 16 15 15 23 28 25 23 24 19 18 18 19 20 21
18 20 21 21 20 20 20 21 19 20 19 21 21 23 24 27 24 21 19 19 18 17 17 17 17 17 16 15 16 17 18 18 22 24 20 20 20 16 13 19 21 23
18 17 19 20 20 19 19 19 18 20 20 19 22 23 21 22 23 26 22 22 19 19 16 15 13 15 17 18 18 16 15 17 21 20 21 21 19 12 18 20 23 21
19 19 20 20 19 19 18 21 22 20 23 23 24 23 23 23 24 24 23 23 23 21 20 17 15 16 18 18 17 16 16 17 22 18 17 17 16 16 16 17 17 17
19 18 18 18 19 21 23 22 24 23 24 24 24 25 25 26 25 25 23 23 25 23 22 20 20 19 15 23 24 23 19 17 16 19 20 19 15 14 16 16 21 23
20 18 18 19 22 23 24 24 26 24 24 24 24 25 26 26 25 25 25 25 24 23 23 19 18 18 21 23 24 26 25 22 18 16 16 17 20 20 19 19 17 16
23 21 23 24 25 24 23 25 25 24 25 24 23 24 24 25 24 26 26 26 26 25 25 22 18 14 22 28 24 21 20 20 20 16 18 17 17 18 17 18 19 17
24 23 24 23 23 24 25 24 25 26 25 24 23 24 24 25 25 25 25 26 26 25 25 25 22 19 29 27 28 27 21 20 22 22 18 19 19 19 18 17 17 17
23 23 23 23 23 24 24 24 25 26 25 24 25 25 25 24 26 25 24 25 25 25 24 24 22 18 28 27 27 28 22 20 19 20 21 18 14 18 20 17 15 14
23 23 23 24 24 23 23 24 25 25 25 25 25 25 24 24 25 25 24 25 25 25 25 24 23 18 25 29 29 26 25 22 19 20 21 20 17 15 15 15 13 13
23 23 23 24 24 24 24 23 24 25 24 24 24 24 25 25 26 25 23 24 25 25 25 25 23 22 27 31 31 28 25 21 18 20 21 20 20 17 15 18 17 16
22 23 23 24 24 24 25 26 25 24 25 25 25 24 24 25 24 24 24 24 25 25 25 26 24 24 28 33 32 30 27 20 17 19 19 19 19 17 15 18 16 16
23 23 23 24 24 25 25 26 26 25 25 24 23 23 22 23 21 21 24 25 25 27 26 27 25 24 32 33 33 30 28 18 17 17 18 16 20 17 15 11 12 14
23 25 23 24 23 25 25 25 25 25 21 21 24 24 25 25 25 23 24 24 27 26 29 29 29 27 32 34 32 32 23 18 18 17 15 15 14 17 13 11 11 14
23 24 23 23 24 25 25 24 23 20 22 19 22 23 24 24 23 24 24 24 24 26 30 30 29 28 32 34 34 34 28 22 22 18 15 18 21 20 16 12 15 20
22 23 23 24 23 23 21 21 21 21 20 20 20 21 23 23 23 23 23 25 26 24 22 31 32 30 31 33 35 34 32 21 23 20 21 22 19 18 14 18 19 21
22 23 21 21 23 21 21 21 21 24 22 21 20 23 24 23 23 23 24 25 27 26 26 28 32 32 32 34 34 34 34 27 22 21 20 19 19 18 16 18 17 17

ECMWFNIL_sfc_gust_087.txt.gz
Wind_Gust
12 12 10 10 10 10 11 14 14 12 12 10 7 9 8 9 7 8 8 8 7 8 7 8 9 10 8 11 14 15 14 14 14 13 14 15 16 14 18 19 17 18
11 10 12 12 12 13 14 14 14 14 15 16 13 9 8 7 8 8 9 8 8 10 10 9 8 7 7 5 10 12 12 12 13 12 13 16 16 16 17 17 16 18
13 11 9 11 14 15 15 15 14 14 15 17 17 16 13 8 8 5 7 9 8 9 10 9 9 11 8 10 12 14 11 11 14 13 16 16 15 15 15 16 16 17
13 13 13 12 12 13 13 13 14 14 16 18 18 19 18 16 10 8 8 9 9 9 9 9 10 8 6 6 9 12 10 12 12 11 12 13 14 11 14 14 16 18
11 13 15 14 13 13 11 11 15 17 15 14 16 17 18 18 18 15 11 9 7 8 9 10 9 8 7 8 8 11 11 11 10 10 10 12 12 14 15 14 13 15
8 12 12 12 13 13 13 13 12 13 15 14 15 15 16 17 17 17 16 14 9 8 8 8 9 9 6 10 11 11 12 13 12 9 11 13 13 12 14 14 16 18
8 11 11 9 8 10 11 12 13 13 13 14 14 15 17 17 19 19 17 16 15 10 7 9 10 8 5 7 10 10 10 11 11 11 11 11 11 13 14 14 14 16
8 8 8 8 7 9 9 12 14 16 15 14 15 16 17 19 20 19 18 18 18 17 12 10 10 9 8 7 8 9 10 9 10 12 13 13 11 13 13 12 6 12
9 12 12 10 14 13 14 16 15 17 18 20 21 21 20 21 22 21 20 21 19 19 15 16 15 14 13 11 11 11 12 11 11 11 12 12 13 14 14 10 13 15
14 14 15 16 18 18 19 19 19 19 19 20 20 21 23 21 21 21 21 22 21 21 19 18 19 20 24 26 26 24 21 17 14 12 12 14 13 13 13 11 16 17
14 16 18 20 19 18 19 19 19 19 19 19 20 20 20 21 20 20 20 21 22 22 23 22 20 25 28 29 28 27 26 26 24 19 14 12 11 13 13 15 18 17
18 17 20 20 20 19 19 19 20 18 19 17 19 20 19 19 19 20 21 20 21 20 22 22 20 25 24 22 21 22 23 25 24 23 22 18 16 20 19 16 17 17
19 19 20 20 20 20 20 21 21 21 20 19 19 18 19 21 20 21 20 20 20 20 22 22 18 19 20 23 23 22 21 21 21 22 23 22 17 18 16 14 14 16
18 18 17 18 18 18 19 20 21 21 20 19 18 19 21 22 22 25 20 20 22 21 21 22 18 21 22 23 23 22 22 22 21 21 22 22 21 18 16 16 17 16
17 16 16 17 18 18 18 19 20 20 20 19 19 18 20 20 21 23 26 26 25 24 22 21 20 21 22 28 29 29 24 22 22 22 21 21 21 20 16 14 15 12
17 17 17 16 16 15 15 16 17 18 19 19 19 19 18 18 19 21 25 26 25 26 24 21 20 15 31 36 29 28 26 23 21 21 20 20 21 21 18 14 15 14
17 18 18 18 17 17 14 14 15 17 19 19 19 19 21 19 18 22 24 25 25 25 26 24 22 24 31 29 31 32 27 21 22 22 21 20 20 20 20 16 13 14
18 18 18 17 17 18 17 15 13 15 17 18 18 21 22 21 20 20 21 24 24 25 25 26 22 22 29 32 32 32 29 28 22 20 20 20 19 20 20 17 14 13
19 19 18 18 18 18 17 17 16 15 16 18 18 19 19 21 20 21 21 23 25 27 27 27 25 23 30 33 33 33 33 28 20 18 18 19 20 19 19 19 15 14
20 19 19 18 17 19 19 18 17 18 17 13 15 17 20 19 19 21 21 22 24 24 24 24 23 25 31 34 34 34 34 29 20 17 17 17 19 20 20 18 16 16
19 18 19 18 19 19 19 20 18 18 20 17 14 16 18 19 20 21 22 22 22 22 21 23 24 27 30 34 34 35 35 25 20 19 17 16 16 17 18 20 19 20
16 16 17 18 19 18 20 21 19 19 20 19 16 15 16 16 17 20 22 23 23 24 23 24 24 26 31 33 34 35 33 24 25 24 23 21 20 20 20 20 20 21
13 14 14 16 16 17 18 19 19 19 20 19 18 18 16 16 16 19 20 21 22 22 23 22 23 26 30 33 33 35 29 27 27 24 22 21 21 20 19 19 19 21
10 10 11 12 13 17 17 16 15 16 18 18 19 19 18 16 13 16 17 17 18 20 23 21 21 25 30 32 34 34 30 28 27 23 21 22 21 20 18 17 20 28
9 8 10 11 12 14 17 17 16 17 16 16 17 16 17 17 15 13 15 17 17 18 20 22 21 23 28 31 34 33 33 25 25 21 22 22 22 22 19 19 23 20
9 9 9 11 11 11 15 15 13 14 15 15 15 16 16 16 17 14 14 17 17 19 21 22 23 23 27 30 31 32 32 29 22 24 26 24 22 22 24 23 24 24

ECMWFNIL_sfc_gust_090.txt.gz
Wind_Gust
9 7 9 9 9 10 11 12 11 11 10 11 12 13 14 13 13 12 11 9 8 9 9 8 8 9 13 14 9 9 10 12 14 13 10 11 11 12 14 11 12 13
11 11 10 9 10 10 9 8 9 10 10 10 10 11 12 12 13 11 11 11 9 9 10 10 8 8 10 13 8 9 11 12 14 12 12 14 15 10 14 15 15 14
10 10 10 9 9 8 8 7 7 8 9 10 10 10 12 10 12 13 13 13 12 11 9 9 9 7 9 11 12 11 13 13 14 9 9 15 12 14 13 13 14 17
5 6 6 7 7 7 7 7 8 9 8 11 11 12 12 12 11 13 13 15 15 15 13 10 10 9 8 10 11 11 11 11 11 11 13 12 12 14 14 13 16 15
6 7 8 8 8 9 8 9 11 12 12 13 13 14 16 17 16 16 14 15 15 15 14 16 14 12 12 10 10 11 11 12 11 10 11 11 11 10 11 12 13 14
10 10 10 9 10 10 12 14 17 17 18 17 17 16 16 17 18 17 17 18 16 17 17 17 17 21 24 23 19 14 13 11 12 11 13 13 12 10 11 13 15 16
13 12 12 12 14 14 15 17 17 18 19 19 19 19 19 19 19 19 19 18 17 18 17 19 23 24 25 24 23 23 22 21 20 17 13 12 11 12 11 13 15 16
13 12 12 13 14 15 15 16 16 17 16 17 16 17 17 18 18 17 19 20 19 20 20 19 23 21 20 19 21 21 21 23 22 22 21 17 12 12 11 13 14 16
13 13 14 13 14 14 15 14 14 14 15 16 17 16 16 16 16 16 17 18 18 19 20 18 19 17 20 19 21 19 19 20 19 20 21 21 19 15 14 13 14 14
13 14 15 14 13 14 16 15 15 13 13 15 16 17 19 17 17 15 16 17 16 18 18 15 19 18 19 19 20 21 21 22 22 20 19 20 20 19 17 14 15 16
12 12 13 13 14 15 16 17 16 15 14 14 15 16 17 18 20 18 17 20 20 20 18 15 19 19 21 22 22 21 20 20 20 20 20 20 19 20 18 18 16 17
12 11 11 12 14 14 14 14 15 15 15 15 14 15 15 18 18 19 21 21 21 21 19 19 17 20 22 23 24 23 22 21 21 21 20 20 20 19 19 20 18 16
13 13 12 10 12 12 12 13 14 14 16 17 17 15 16 20 21 20 22 21 20 21 21 21 17 19 24 26 25 24 23 22 22 22 21 21 18 20 20 21 21 18
14 13 13 12 8 9 11 13 13 15 15 18 17 17 17 19 21 21 20 20 21 20 21 20 20 21 25 28 27 25 24 22 20 21 22 21 20 20 20 21 22 21
14 12 12 13 13 10 12 14 14 14 15 18 18 18 17 17 17 19 21 21 20 21 20 19 20 23 25 30 30 28 25 23 20 20 21 21 21 20 20 21 21 21
14 14 13 13 15 15 13 12 12 12 15 17 18 16 16 17 18 17 16 19 20 21 20 19 21 23 32 35 27 29 27 24 21 19 18 19 21 21 20 20 22 21
15 15 14 16 15 15 13 13 13 11 13 15 16 15 16 18 18 18 18 18 20 20 20 19 20 27 29 26 28 31 29 23 20 19 18 19 18 19 20 21 22 22
15 15 15 15 15 16 15 15 15 13 12 14 15 16 17 17 18 17 18 18 19 19 19 20 18 20 27 28 29 30 28 28 18 17 18 18 19 20 18 18 20 22
13 14 14 15 15 15 15 16 15 15 14 14 15 13 12 16 16 16 17 17 17 17 17 17 16 21 27 29 29 31 30 26 19 20 20 20 21 22 22 21 21 22
13 14 15 15 15 15 14 15 15 16 14 12 11 11 13 14 13 14 14 16 17 17 16 17 17 23 28 29 29 29 29 22 20 23 21 21 22 22 22 21 21 21
12 14 15 15 15 15 15 15 16 15 14 13 13 12 11 13 15 14 15 15 15 16 16 17 19 24 27 30 29 30 30 18 19 21 21 21 23 23 22 23 23 24
12 13 14 14 15 14 15 15 14 14 14 13 13 12 12 10 11 13 15 16 15 16 17 19 20 23 27 28 30 31 29 22 20 20 21 21 23 22 23 21 21 22
10 12 13 13 13 14 15 14 14 14 14 13 13 13 14 14 12 13 14 14 16 17 18 19 19 22 26 28 29 31 25 23 21 20 20 21 21 22 22 21 21 24
9 10 11 11 12 13 13 12 11 11 13 13 13 13 14 13 12 12 13 13 15 16 19 19 19 21 26 28 28 29 25 23 22 21 21 19 21 22 21 20 22 30
9 9 10 11 12 11 10 11 11 11 9 10 11 10 11 10 12 12 13 13 13 15 19 21 19 20 24 27 28 28 29 23 23 20 23 23 23 24 22 21 25 21
8 9 9 11 11 10 10 10 8 9 12 10 10 9 10 10 10 11 12 14 13 14 17 18 19 20 23 27 28 28 28 28 20 23 26 25 22 25 27 25 26 27

ECMWFNIL_sfc_gust_093.txt.gz
Wind_Gust
10 8 9 9 9 9 10 10 9 10 11 12 12 12 12 12 13 15 14 13 14 15 15 14 13 12 11 9 10 11 10 11 12 10 11 12 12 12 15 13 14 16
10 9 9 9 9 10 10 10 12 14 15 14 15 15 14 16 16 14 15 16 15 15 16 17 18 20 18 14 11 10 10 11 13 12 12 13 14 14 15 15 15 14
11 11 11 9 10 10 11 11 12 13 13 14 15 17 17 17 18 17 17 17 15 15 16 21 22 23 22 21 21 17 15 13 12 11 12 13 12 13 13 13 13 13
12 11 10 11 12 12 12 14 14 14 14 16 15 16 18 18 17 18 17 18 17 18 18 21 22 22 22 22 21 19 19 18 18 18 16 13 13 14 14 13 14 14
12 13 12 11 11 12 13 15 15 15 15 15 15 15 17 18 19 19 20 19 18 17 17 20 21 22 23 21 21 20 20 18 18 18 17 17 14 14 13 12 13 16
13 12 13 12 12 13 15 16 17 17 17 17 17 16 16 15 17 17 20 19 19 19 18 20 23 22 24 23 23 21 20 19 19 19 18 17 18 17 15 13 14 16
13 12 12 13 14 14 15 17 16 17 17 15 15 16 16 16 17 17 19 19 18 19 18 20 20 20 21 20 19 19 20 19 20 20 19 18 17 20 19 16 15 16
13 12 12 13 14 14 14 14 13 14 14 14 14 14 15 15 17 14 16 17 16 18 19 18 19 19 20 20 21 21 21 18 19 20 19 19 18 18 20 19 18 17
12 12 12 11 12 12 13 13 12 12 14 16 17 16 16 16 16 15 16 16 16 17 18 17 19 18 19 20 21 21 21 21 20 20 19 20 20 20 21 21 20 20
11 11 12 12 13 13 13 14 14 12 12 13 14 15 18 16 17 17 17 19 19 20 19 17 18 20 21 20 21 22 22 22 22 20 19 18 19 20 20 21 20 21
7 8 10 12 13 13 12 12 14 14 14 14 13 15 16 17 19 18 17 20 19 20 20 19 19 20 21 22 22 21 21 21 20 20 20 20 20 20 19 20 22 21
7 8 9 10 10 11 12 12 13 13 14 14 14 15 15 18 19 19 21 20 20 19 19 19 19 22 22 23 23 23 21 20 19 19 19 20 20 20 20 20 21 23
11 12 10 8 9 10 11 12 13 14 16 17 16 14 15 19 19 19 20 19 20 19 20 20 21 22 24 25 24 23 22 22 21 19 18 18 18 20 21 22 22 23
12 11 12 10 7 8 10 11 12 14 15 17 16 16 17 18 19 19 18 18 18 17 18 18 20 22 23 27 26 25 25 22 21 21 20 19 18 19 20 22 22 22
11 10 11 11 10 9 11 11 11 12 15 15 15 15 18 18 16 16 19 19 18 19 17 18 20 23 25 27 29 27 25 22 21 20 21 20 20 21 20 21 21 22
13 12 12 12 12 12 11 10 9 11 14 14 15 14 15 16 15 15 15 18 20 20 18 17 20 19 29 32 25 28 27 23 22 20 18 19 20 23 23 21 21 22
13 13 13 14 13 13 13 13 11 11 12 13 13 14 15 16 15 17 17 17 18 20 20 18 15 24 29 25 26 30 29 23 20 21 20 20 19 20 22 24 23 23
13 12 13 14 14 15 15 14 13 11 11 11 12 12 13 13 15 14 14 15 15 15 15 16 16 21 27 28 28 28 27 26 18 20 21 20 21 23 23 22 23 25
11 13 13 14 14 14 13 14 14 13 12 12 13 11 9 13 13 14 15 15 15 16 16 16 15 20 26 28 28 28 29 27 18 21 20 20 21 22 22 22 23 25
13 13 14 14 13 13 13 13 13 13 12 11 12 12 13 12 13 14 14 15 16 15 14 16 15 21 26 28 28 29 29 23 17 20 20 20 21 22 22 22 22 23
12 12 14 13 13 13 13 13 13 13 13 12 12 12 13 13 13 14 15 15 15 16 15 17 18 23 25 28 29 29 30 18 18 19 20 20 21 21 21 22 23 24
10 12 13 13 13 13 14 14 14 13 14 13 13 12 12 11 12 12 14 15 15 16 17 19 19 22 26 27 29 30 28 20 20 20 21 22 22 21 22 23 23 23
9 11 12 11 11 13 14 13 13 13 13 12 12 12 12 13 12 13 13 13 16 17 18 19 19 22 26 28 28 30 24 22 21 21 21 22 23 22 21 22 22 25
8 10 11 10 10 12 11 11 10 9 11 10 11 11 13 13 11 13 13 12 14 16 19 19 19 21 26 28 28 28 25 22 22 22 23 23 23 21 20 20 22 29
8 9 9 9 10 9 9 9 9 9 7 8 9 9 10 9 12 12 13 13 13 14 18 20 18 19 23 27 29 28 30 23 22 21 23 23 24 24 20 23 24 22
7 9 8 9 9 8 9 8 7 8 11 9 9 9 10 11 10 11 12 14 13 14 16 18 19 20 23 27 28 28 27 28 20 23 26 26 23 25 27 24 24 25

ECMWFNIL_sfc_gust_096.txt.gz
Wind_Gust
13 12 14 14 14 15 16 16 16 15 15 15 16 15 15 15 17 15 15 14 15 16 19 20 20 21 21 20 20 18 17 16 15 15 17 16 13 12 13 12 13 14
14 15 15 14 15 14 14 14 14 15 16 16 16 16 15 17 17 16 16 16 16 16 20 21 21 22 21 20 20 20 19 18 18 19 19 17 16 15 15 14 14 13
15 15 16 14 14 14 13 13 13 13 13 13 14 17 17 17 19 17 17 17 16 15 18 20 20 21 20 20 21 20 20 19 19 20 19 18 18 18 18 17 13 13
14 13 13 13 14 12 12 14 14 13 13 15 14 14 16 16 16 18 17 18 17 17 18 18 19 18 18 18 18 17 17 17 18 19 19 18 17 18 18 19 18 15
13 14 13 11 10 12 12 14 14 13 13 12 12 13 14 14 14 16 18 17 17 17 17 18 18 18 19 19 19 18 19 18 19 19 19 18 17 18 18 18 18 19
13 12 12 12 11 11 13 11 12 12 13 13 14 13 13 12 14 16 16 14 16 17 17 17 19 19 21 21 20 19 20 19 20 20 19 18 20 18 18 17 19 19
13 13 14 13 13 13 12 13 13 14 13 15 14 15 15 14 17 18 17 18 17 18 18 19 20 21 22 22 21 22 22 20 19 19 19 19 19 20 19 19 19 20
13 13 13 14 14 14 15 15 14 14 13 15 15 16 16 16 18 19 18 18 18 19 20 20 20 20 21 22 22 23 22 20 20 20 20 19 19 19 20 21 19 20
13 14 13 14 15 14 15 15 15 15 16 16 16 15 15 16 17 18 18 18 18 19 19 19 21 20 22 22 22 21 22 21 20 19 18 19 20 20 21 21 21 20
13 12 14 14 15 14 15 15 15 15 16 17 15 15 18 16 18 17 18 18 18 19 20 20 21 22 22 22 22 21 22 22 21 20 19 17 17 19 20 21 21 21
11 11 12 13 13 14 14 15 15 15 15 16 16 17 17 18 19 17 18 19 21 20 20 21 21 21 22 22 22 21 20 21 21 19 18 19 19 18 18 20 21 21
10 10 11 12 12 12 12 13 14 14 14 14 15 16 15 16 17 18 20 19 19 19 19 20 20 21 22 23 23 22 21 21 20 19 19 19 20 20 17 18 18 20
12 11 10 10 9 10 10 11 12 13 14 14 14 14 15 16 17 16 17 18 17 18 19 19 21 22 23 24 24 23 22 22 22 21 20 20 19 21 19 16 17 17
11 11 12 12 11 11 11 10 10 11 12 13 13 15 15 15 15 16 16 18 18 17 18 17 18 21 22 24 23 23 24 22 21 21 21 21 20 21 20 20 20 19
11 11 12 13 13 13 13 13 13 12 11 11 13 13 14 13 13 14 14 15 15 16 15 15 16 18 21 26 25 24 24 22 22 20 22 22 22 22 21 20 20 20
12 12 13 13 14 14 13 13 13 13 13 13 13 12 12 13 13 13 14 15 16 16 15 15 16 17 29 29 25 27 22 20 22 21 21 21 22 22 21 21 21 22
13 13 13 14 12 13 12 13 13 13 13 13 14 14 14 13 14 15 16 15 16 17 17 16 16 23 28 24 25 28 26 20 18 20 21 21 21 21 21 23 23 24
12 13 14 13 13 13 12 11 11 12 13 13 13 14 14 13 16 15 14 16 15 15 16 17 16 22 25 27 26 28 28 26 16 19 22 20 21 22 22 21 23 26
12 13 12 12 11 10 10 11 12 12 13 14 15 12 12 16 15 16 15 15 16 16 17 19 17 20 25 27 27 27 29 25 16 18 20 20 21 21 21 22 23 24
11 11 12 10 10 10 10 11 11 12 10 10 12 13 14 14 14 15 14 15 15 16 15 16 16 21 25 27 27 27 27 22 16 18 19 19 20 21 21 22 23 24
10 10 11 10 10 9 10 11 11 12 13 12 12 12 12 12 12 13 14 13 14 15 14 17 18 23 24 27 27 28 27 17 17 18 17 18 19 19 21 21 22 23
9 9 9 8 9 10 11 12 11 11 12 11 11 12 11 10 12 11 13 14 14 14 15 17 18 21 24 25 27 27 26 18 18 19 20 20 21 20 21 22 22 23
7 9 8 8 8 10 11 10 10 11 11 10 12 11 12 13 12 12 11 12 13 15 15 16 16 20 23 25 26 28 22 22 21 21 22 23 23 22 20 21 22 24
7 8 8 7 8 9 7 7 7 7 8 8 10 11 13 12 11 12 12 11 12 13 15 15 16 19 23 25 26 27 25 25 23 23 23 23 23 21 21 22 24 30
6 7 7 7 7 6 6 6 6 6 5 7 9 9 10 10 11 11 12 12 13 13 17 17 16 18 23 25 27 26 28 23 23 23 23 24 25 24 22 23 23 23
5 6 5 6 5 5 5 6 5 6 10 9 9 9 10 11 11 11 12 13 13 14 16 16 17 18 22 24 25 26 25 26 21 24 26 26 24 25 27 24 23 24

ECMWFNIL_sfc_gust_099.txt.gz
Wind_Gust
16 16 16 17 16 16 16 17 17 18 18 17 17 16 17 17 17 17 16 16 16 17 17 17 16 16 16 15 16 16 16 16 15 16 17 17 16 17 18 18 18 19
17 16 17 17 19 18 19 19 18 18 18 17 17 16 16 17 18 17 18 16 16 19 18 17 17 18 18 18 18 17 17 17 17 17 18 17 18 17 17 19 18 19
18 19 20 19 20 19 19 19 20 19 19 18 17 18 17 17 18 18 19 18 17 19 20 20 20 20 20 20 19 18 19 19 20 21 20 18 18 18 18 19 18 19
19 19 19 19 19 19 19 20 20 20 19 20 20 19 19 17 18 19 19 19 18 18 20 21 21 21 22 22 21 20 19 18 19 20 19 19 19 19 19 18 18 19
17 19 19 20 19 19 18 19 20 20 20 19 18 18 19 18 18 19 19 19 18 19 20 21 22 23 23 23 21 21 21 19 19 20 20 19 18 19 19 20 21 21
18 19 20 20 20 20 21 20 19 20 20 19 20 20 19 17 18 19 19 19 19 21 21 22 22 23 23 22 22 21 21 20 21 21 20 20 20 20 20 20 20 20
18 18 19 21 21 21 21 20 19 19 21 19 19 21 20 20 20 20 20 19 20 21 22 22 22 23 23 22 22 22 22 20 20 22 21 21 21 21 20 20 21 22
18 18 20 22 21 22 22 21 21 21 20 20 20 21 20 20 20 19 19 20 20 21 22 22 23 23 23 23 23 23 22 22 22 22 21 21 21 21 21 21 21 23
19 20 20 21 21 22 23 23 22 20 21 21 22 21 21 21 19 19 19 19 20 21 21 22 24 24 24 23 23 23 23 22 22 21 21 21 21 21 22 22 22 23
21 21 22 21 22 22 22 21 21 20 20 20 20 20 21 19 18 19 19 20 20 21 21 23 24 24 23 23 24 24 24 23 23 21 20 20 20 21 22 23 23 23
21 22 23 23 23 22 21 21 20 20 19 20 20 20 20 19 20 19 20 21 22 22 23 24 25 25 25 25 24 24 24 24 23 21 21 21 20 21 20 23 23 22
21 21 22 22 22 22 22 21 20 20 19 19 19 20 19 20 20 20 21 20 21 21 22 24 25 26 27 27 26 25 24 23 23 21 21 21 21 21 22 22 22 21
21 21 22 21 21 20 20 20 20 19 19 19 19 19 20 20 20 20 19 19 20 21 23 25 26 26 28 28 27 26 25 23 23 22 21 21 20 21 22 21 21 21
18 17 18 18 17 17 18 18 18 18 18 18 18 19 20 20 19 19 18 19 20 20 22 24 25 27 29 29 28 27 25 23 23 22 22 21 21 22 21 21 21 22
17 16 17 17 17 17 18 18 19 18 19 19 19 19 18 19 18 19 19 20 20 22 23 24 26 28 29 31 30 28 24 22 22 22 23 22 23 23 22 22 22 23
18 17 17 17 18 18 18 18 19 19 19 19 19 19 18 18 18 18 20 23 23 22 23 23 26 26 29 27 25 30 26 23 21 21 21 22 23 24 23 23 23 23
17 17 17 18 17 18 18 20 20 19 19 20 19 19 19 19 19 20 22 22 23 23 24 23 25 29 27 23 25 28 28 24 23 23 22 23 23 24 25 25 24 25
17 17 18 18 18 19 19 19 19 20 20 20 20 19 19 19 21 21 21 22 23 24 25 25 24 22 23 25 25 26 27 27 23 24 25 25 25 25 24 24 25 27
16 18 18 19 18 18 17 18 20 21 21 20 20 18 19 21 21 21 22 23 24 24 24 25 25 22 23 25 25 26 26 24 23 24 25 25 25 25 24 24 24 26
17 18 19 18 17 18 19 20 22 21 18 17 17 18 20 20 20 21 22 23 24 23 23 24 27 23 24 26 26 27 26 20 24 25 25 25 24 25 24 25 24 26
18 19 19 17 17 18 20 20 19 18 18 17 18 19 19 20 20 20 22 23 24 24 24 24 28 23 24 27 27 28 26 17 25 25 25 24 24 24 24 23 23 25
18 18 17 17 18 19 20 19 16 16 16 16 18 19 19 19 19 21 23 24 24 24 23 24 26 21 23 24 25 26 24 25 25 25 25 25 25 24 24 24 23 26
16 17 16 17 18 19 18 16 15 16 16 15 18 19 20 20 19 21 23 24 24 24 23 23 25 23 21 23 24 25 23 26 25 26 25 24 24 24 25 25 25 27
14 16 17 17 17 17 16 15 14 14 15 14 17 18 20 19 18 19 20 23 24 25 24 22 24 22 22 24 26 26 25 26 26 26 25 25 25 25 25 25 27 30
14 15 16 15 16 13 12 14 14 13 13 13 15 16 18 18 18 19 19 20 22 23 19 24 25 22 22 25 26 26 29 26 26 26 25 25 26 27 26 27 28 26
13 14 13 13 13 12 12 12 11 13 14 14 15 16 17 18 18 18 18 19 21 24 25 26 26 26 25 23 24 25 25 29 26 27 26 26 26 28 28 27 29 30

ECMWFNIL_sfc_gust_102.txt.gz
Wind_Gust
17 16 17 17 18 17 17 17 17 16 16 15 16 15 16 17 17 17 16 15 17 19 19 19 18 19 19 18 20 18 18 17 18 18 19 20 19 18 20 19 18 19
18 18 18 18 19 18 19 19 18 18 17 16 16 15 16 17 17 17 17 17 18 20 20 20 20 20 20 20 20 20 19 19 19 20 20 19 19 18 18 19 18 19
18 18 19 18 19 18 18 19 20 19 18 18 17 17 17 17 17 18 18 18 18 19 21 20 20 21 20 20 19 18 20 19 20 21 21 19 20 20 20 20 20 20
18 18 18 18 18 18 18 19 20 20 19 19 19 19 19 18 18 19 19 18 19 20 20 21 21 21 20 20 19 19 18 17 19 20 19 19 19 20 20 19 20 21
17 18 18 19 19 19 18 19 20 20 20 20 19 19 20 19 19 20 20 20 20 20 20 20 20 21 20 20 20 20 19 19 20 20 20 19 19 20 19 20 21 21
19 20 20 20 20 20 21 20 20 20 20 19 20 20 20 19 20 20 20 20 20 21 19 20 20 20 20 20 20 21 20 20 21 21 21 20 20 20 20 20 21 22
19 19 20 21 20 21 21 20 21 20 21 19 19 20 19 20 20 20 20 20 20 21 20 20 20 20 20 19 20 21 21 20 20 22 22 22 21 21 20 20 22 23
20 20 21 22 21 21 22 23 21 21 20 20 19 20 19 20 20 19 19 19 19 20 20 20 20 21 20 19 21 21 20 21 21 21 22 22 22 22 22 22 21 23
21 22 22 21 22 22 23 23 21 19 20 20 20 20 20 20 19 18 18 18 19 19 20 20 21 20 20 20 20 21 21 21 22 22 22 22 23 23 24 24 23 23
22 22 22 21 21 21 20 19 19 19 19 20 20 19 20 18 18 19 18 18 19 20 20 20 21 21 21 21 21 21 22 21 22 22 21 22 22 22 23 24 24 24
22 22 22 22 22 21 20 20 19 19 19 20 19 20 19 18 18 17 18 19 20 21 21 22 22 23 23 23 22 21 21 21 22 21 21 22 22 22 19 23 24 23
21 21 22 21 21 20 19 19 19 19 19 19 19 19 18 18 18 18 19 20 20 20 21 22 23 24 24 25 23 22 21 21 22 22 22 22 22 23 23 23 24 25
21 21 22 21 19 18 18 19 19 18 19 20 19 19 19 18 19 19 18 19 20 20 22 23 23 25 27 26 25 24 23 23 23 22 23 23 22 24 24 23 23 24
20 20 19 18 18 18 18 18 18 19 19 18 18 18 19 19 19 18 18 18 20 20 21 23 24 26 28 29 27 26 25 23 23 23 23 23 23 24 24 24 24 24
18 17 18 18 18 19 19 19 19 18 19 19 18 18 17 18 18 19 19 20 20 20 22 24 25 28 30 31 30 27 25 22 22 22 23 23 23 24 24 24 23 24
19 18 19 18 19 19 19 19 19 19 19 20 20 20 19 18 18 18 19 20 20 21 21 23 26 27 28 26 23 29 25 22 22 22 22 22 24 24 24 24 24 25
19 19 19 19 19 19 19 20 20 19 20 20 20 20 19 19 19 20 21 21 21 21 21 22 25 29 24 21 22 25 25 22 22 24 23 24 24 25 25 25 25 26
19 19 19 20 20 20 20 20 20 20 21 21 21 20 20 19 20 21 21 21 21 21 22 23 23 21 20 22 22 24 23 24 22 24 25 25 26 25 25 26 27 28
18 18 19 20 20 20 20 20 21 22 22 21 21 19 19 21 21 21 21 22 21 21 21 23 25 21 21 24 24 24 22 22 22 24 26 26 25 25 25 26 27 28
18 19 21 20 20 21 21 22 22 22 20 19 18 18 20 20 20 22 22 22 21 20 20 22 27 23 23 25 26 26 24 21 22 24 25 25 24 25 25 25 26 28
19 20 21 20 21 21 22 22 21 20 20 19 19 19 20 20 20 21 22 22 22 21 20 21 27 22 22 24 24 25 25 19 22 23 25 24 24 24 24 24 25 27
20 20 20 21 21 21 21 21 21 20 19 18 19 19 19 19 19 21 22 23 22 22 21 22 25 21 22 23 24 26 27 19 22 24 25 25 23 24 24 25 25 27
20 21 21 21 21 21 21 20 20 19 18 17 19 20 20 20 19 20 22 23 23 23 22 21 24 23 21 23 23 26 22 22 21 23 26 26 25 25 25 25 26 27
20 21 21 20 20 21 20 19 18 18 17 17 18 19 20 20 18 19 19 22 23 24 24 21 22 22 20 21 22 24 25 24 24 24 26 26 26 26 26 26 26 26
20 20 20 20 20 19 18 18 18 17 17 17 17 18 19 19 18 19 19 20 22 23 19 22 23 21 19 21 23 23 27 25 26 26 25 26 26 27 26 27 28 24
18 18 18 19 19 18 17 17 16 17 17 17 18 19 19 19 18 18 18 19 19 21 24 25 25 25 25 20 22 21 22 28 27 27 25 25 26 27 28 27 28 30

ECMWFNIL_sfc_gust_105.txt.gz
Wind_Gust
14 13 14 14 14 14 14 13 13 13 14 13 13 13 13 13 14 14 13 14 15 16 16 17 17 17 17 16 17 17 16 16 18 17 18 20 19 18 19 19 19 21
15 14 14 15 15 14 15 14 14 14 14 13 13 13 13 14 15 15 14 15 16 17 17 17 17 18 18 17 17 16 16 17 18 18 19 18 18 18 18 19 18 19
15 15 15 15 15 14 14 15 15 14 15 14 14 14 14 15 15 15 16 16 16 16 17 17 18 18 17 17 16 15 16 16 18 19 19 18 18 19 19 19 19 19
16 16 16 15 15 15 15 15 14 15 14 15 15 16 16 16 15 16 16 15 16 17 17 17 18 18 18 18 17 16 16 15 18 18 18 18 18 19 19 19 20 21
16 17 16 16 15 16 16 16 16 16 15 16 16 16 17 16 16 16 15 15 16 17 17 18 18 18 18 18 17 17 16 16 16 18 19 18 19 20 20 20 21 21
16 17 17 17 16 16 16 16 17 16 16 15 16 16 16 15 15 15 16 16 17 18 18 18 19 19 19 18 18 18 17 18 18 18 18 19 19 20 20 20 21 21
17 17 17 18 17 17 17 17 16 16 16 16 16 16 16 16 17 16 17 17 18 18 19 19 19 20 19 19 19 19 19 17 18 20 19 19 20 20 20 20 22 23
18 17 17 17 17 18 19 20 19 18 17 17 16 16 16 17 17 16 16 17 18 19 19 20 20 20 19 19 20 20 19 18 18 20 20 20 20 21 22 22 21 23
19 18 19 18 18 18 19 19 17 16 16 15 16 17 17 17 17 17 17 18 18 19 19 20 21 20 20 19 20 20 20 19 19 19 20 21 21 22 23 23 23 23
19 19 18 18 19 19 17 16 16 16 17 17 17 16 18 16 16 17 17 17 18 19 20 21 22 22 21 21 21 20 20 20 20 19 20 20 21 23 23 24 24 23
17 18 18 18 18 17 17 17 16 17 16 17 17 17 16 16 16 16 17 18 19 20 21 22 22 23 23 23 22 20 19 19 19 20 20 20 21 22 18 23 24 24
18 18 18 18 17 17 17 16 16 16 16 16 16 17 16 17 17 18 18 19 20 21 21 22 23 23 24 24 23 21 19 18 18 19 20 21 22 22 23 23 23 24
19 18 17 16 16 16 16 17 17 16 16 17 16 16 17 17 18 19 18 18 19 21 22 22 23 24 25 25 24 22 20 19 18 18 20 20 21 23 24 23 24 24
18 17 16 17 16 16 16 16 16 16 16 16 16 17 18 18 18 18 17 18 19 20 21 22 23 24 26 26 25 23 21 19 19 19 19 19 21 23 23 23 24 23
17 17 16 17 17 17 16 16 16 16 16 17 17 17 17 17 17 18 18 18 19 20 21 22 23 24 25 28 26 23 21 18 19 20 20 20 22 23 23 24 24 23
19 17 18 17 17 17 17 16 16 16 16 17 18 18 17 17 18 17 18 18 19 20 20 21 24 24 25 25 21 24 21 19 18 19 20 21 22 24 23 24 24 24
19 18 18 18 17 17 16 17 17 16 16 17 18 18 18 17 17 18 17 18 19 20 21 21 23 27 22 20 21 22 20 20 19 19 19 21 23 25 24 25 26 26
19 19 18 18 18 18 17 16 16 17 18 18 18 17 17 17 17 17 17 16 17 19 21 22 23 20 20 22 21 23 19 24 19 19 19 21 24 25 25 26 27 28
19 19 19 18 17 17 16 17 18 18 18 17 17 16 16 18 18 17 17 16 16 18 20 23 24 20 21 23 22 23 22 22 19 20 20 21 24 24 25 26 27 28
20 20 20 18 17 17 18 18 18 18 16 16 16 16 17 17 17 17 17 17 16 16 18 22 26 21 20 23 22 24 22 21 17 19 20 23 23 24 23 24 25 27
21 20 19 19 19 19 19 19 18 17 17 16 17 17 17 17 16 17 17 16 16 16 17 20 25 21 21 23 23 24 26 20 17 19 21 20 22 23 23 23 25 26
20 20 19 19 19 19 19 19 18 17 17 16 16 17 16 16 16 16 17 17 17 16 16 19 25 21 20 22 23 25 27 17 19 18 20 22 23 24 23 24 24 26
20 20 20 19 19 19 19 18 17 17 16 16 17 17 16 16 16 16 17 17 18 17 16 19 22 22 20 21 23 25 22 20 20 19 21 21 23 25 24 24 25 23
20 20 20 19 19 19 18 17 16 16 17 16 18 17 17 16 15 16 16 17 18 20 20 18 21 21 19 19 22 24 24 22 22 20 21 23 23 24 25 25 25 17
20 19 19 19 19 17 16 17 17 17 16 15 16 16 16 16 16 17 16 16 17 17 13 19 20 19 17 17 19 21 27 23 23 21 22 24 25 26 24 27 26 19
19 18 18 18 18 16 16 16 16 17 16 16 16 17 17 16 16 17 17 17 15 15 16 19 20 21 22 16 18 18 21 27 22 22 24 24 25 26 26 25 26 27

ECMWFNIL_sfc_gust_108.txt.gz
Wind_Gust
14 15 15 16 16 16 14 14 14 15 15 14 14 14 14 13 13 12 12 14 14 15 15 14 14 14 15 14 14 14 14 15 16 15 16 16 15 16 18 18 16 18
16 15 16 16 15 15 15 15 15 15 14 14 15 14 14 13 12 13 13 14 14 14 14 15 15 15 15 16 15 15 15 15 16 16 16 16 15 16 17 17 16 19
15 15 15 15 15 15 16 16 15 15 16 15 14 14 13 13 12 14 14 14 13 13 15 15 15 15 15 15 15 14 15 14 16 16 16 16 16 17 17 17 17 18
16 16 16 15 15 15 15 16 15 16 15 15 15 14 13 13 14 13 12 13 13 14 14 15 16 16 15 15 14 14 14 14 16 16 16 15 16 16 16 17 18 19
16 16 16 16 16 16 16 16 16 16 15 14 14 13 14 13 13 13 13 13 13 14 15 16 16 16 16 16 16 15 15 15 16 17 16 15 16 17 16 17 18 18
16 17 17 17 16 15 17 17 17 15 14 14 14 14 13 13 14 14 14 14 15 15 15 16 17 16 16 16 16 16 16 17 17 17 17 17 17 17 17 16 17 19
17 17 16 18 16 16 17 16 15 15 16 15 14 13 13 13 14 15 15 15 16 16 17 17 17 17 17 16 16 17 16 16 17 18 18 17 17 17 17 17 19 19
17 16 17 18 16 16 16 17 17 16 14 14 14 14 14 15 15 14 14 16 16 17 18 19 18 18 17 17 18 17 16 16 16 18 18 17 17 18 19 19 19 20
17 17 17 15 16 17 16 16 15 14 14 15 15 14 14 14 15 15 16 16 17 18 18 18 19 18 18 18 18 17 17 17 16 17 17 17 19 19 20 19 19 20
18 17 16 17 17 16 15 15 16 15 15 15 14 14 16 14 15 16 16 16 17 18 19 19 20 20 19 19 19 18 18 17 17 17 18 18 19 19 20 20 20 21
17 17 17 16 16 16 15 15 14 14 14 15 14 15 14 13 14 16 16 17 18 19 19 20 21 21 21 21 20 18 17 16 16 17 17 18 18 19 17 20 22 22
18 17 17 16 16 15 15 14 14 14 14 14 15 15 15 15 15 16 17 18 19 19 20 21 21 22 22 22 21 19 17 15 16 17 16 17 18 18 20 20 20 20
18 16 16 15 15 15 14 15 15 14 15 15 14 15 14 15 15 16 16 17 18 20 20 21 21 22 23 22 21 19 19 17 16 16 16 16 17 18 20 19 20 20
16 16 16 16 15 15 15 15 15 15 15 15 14 14 14 15 15 15 15 16 18 19 20 20 22 23 23 23 21 20 19 18 16 16 16 17 17 18 18 19 20 21
17 16 16 16 16 16 16 16 15 15 15 15 14 14 14 14 14 16 16 17 18 18 20 20 21 21 22 23 22 21 19 18 17 17 17 17 17 18 18 20 21 20
18 16 17 16 16 16 16 16 16 15 15 16 16 15 14 13 14 15 16 17 19 19 19 19 21 21 22 21 16 19 19 19 19 16 16 17 18 18 19 20 21 21
18 18 17 17 16 16 16 17 17 17 17 17 15 14 12 12 13 15 15 17 19 19 19 19 20 23 20 20 20 18 17 18 18 16 16 17 17 19 20 21 22 23
18 18 18 18 17 18 18 17 17 17 16 15 14 13 12 12 13 14 14 14 16 19 20 20 20 18 19 21 20 22 18 21 18 16 16 16 18 19 20 21 22 24
19 19 19 19 18 18 17 16 15 15 15 15 15 13 12 13 13 13 13 12 15 17 19 22 22 17 19 21 21 22 21 19 17 16 14 16 18 19 19 22 23 24
20 20 19 18 17 16 15 15 15 16 14 14 13 13 13 13 13 13 13 13 13 15 18 21 23 18 19 21 21 23 21 19 13 15 15 16 18 18 19 21 21 23
21 20 19 18 17 16 16 16 15 14 14 13 12 12 12 13 13 13 13 12 13 15 17 19 21 19 19 22 22 24 25 19 12 14 15 15 16 17 17 19 19 22
20 19 19 18 18 17 17 17 15 14 13 12 12 12 13 13 13 14 14 13 12 14 16 18 22 17 18 21 22 24 25 17 17 13 15 14 16 18 18 19 20 19
20 20 19 18 18 18 17 15 14 13 12 12 12 12 13 13 13 14 14 14 14 13 14 18 20 17 15 18 21 24 20 20 17 16 16 15 15 17 17 19 17 17
20 19 19 18 17 17 16 14 13 12 12 11 13 13 13 13 13 14 14 15 16 16 15 14 16 15 13 14 18 22 23 21 19 18 16 18 18 17 16 20 20 18
20 19 19 18 17 16 14 14 12 12 12 12 13 13 13 13 14 14 13 13 14 14 8 12 13 12 11 12 14 16 23 21 20 19 18 20 21 18 16 18 18 14
19 18 17 17 17 15 14 13 12 13 12 11 12 13 13 13 14 15 14 13 11 11 12 14 14 13 14 10 11 13 16 22 19 21 20 22 22 20 19 17 19 19

ECMWFNIL_sfc_gust_111.txt.gz
Wind_Gust
16 16 16 17 16 14 15 15 14 14 14 14 11 9 5 6 11 10 8 11 10 9 9 9 9 10 11 10 10 10 11 10 10 10 12 12 12 11 13 12 12 13
16 16 16 16 15 14 15 15 13 12 14 10 8 5 4 9 9 9 10 9 10 10 10 10 10 10 10 10 10 10 10 11 11 10 13 13 12 10 12 11 10 11
16 16 16 15 15 14 15 14 13 14 11 9 5 3 8 7 10 8 7 8 9 10 11 10 10 10 10 10 9 10 10 11 11 10 11 11 11 12 12 13 15 16
14 14 15 15 13 14 13 13 9 8 6 6 6 7 9 10 7 9 9 10 10 10 10 10 11 10 10 11 10 11 11 11 10 9 11 11 12 11 13 16 17 19
13 14 13 12 12 11 9 11 9 7 7 7 8 10 9 8 9 10 12 11 10 9 10 11 11 12 10 11 10 10 10 11 11 10 11 11 12 14 16 17 17 18
12 13 13 13 12 13 12 11 10 10 11 9 9 10 10 11 11 11 10 11 12 12 12 12 13 12 12 11 10 10 10 11 11 11 11 12 13 14 15 17 17 19
11 11 12 12 11 10 9 10 10 11 10 9 10 10 9 10 11 12 12 13 13 13 14 13 13 13 13 11 10 10 10 10 11 12 12 12 14 15 15 15 17 18
10 9 11 10 11 13 13 13 11 10 9 10 10 10 11 11 11 10 12 13 13 15 14 15 14 14 13 12 14 11 9 10 11 12 11 13 12 14 14 15 16 17
11 11 12 12 14 11 11 12 11 10 10 10 10 10 10 12 12 13 13 14 14 15 15 15 16 15 14 14 13 14 11 9 10 10 11 11 13 14 14 13 15 16
11 12 13 12 12 10 11 10 10 10 10 11 11 13 14 13 13 14 14 14 15 16 16 16 17 16 14 14 13 14 14 11 10 11 11 11 11 13 13 15 15 15
12 12 13 12 11 10 10 10 11 11 10 12 11 11 10 13 13 13 14 15 17 17 17 17 17 16 15 14 14 14 15 12 10 10 12 11 11 13 14 15 16 15
13 13 13 12 11 10 10 10 11 10 10 10 12 15 15 14 14 14 15 16 16 16 17 17 17 16 16 15 15 14 15 15 9 9 11 11 10 13 14 14 14 14
12 12 12 11 10 10 10 10 11 10 11 11 11 13 14 13 14 15 14 15 16 16 17 16 16 16 15 15 15 16 15 16 11 10 10 10 10 13 14 14 14 14
12 11 11 11 11 12 11 11 11 11 11 10 10 13 14 14 14 14 13 14 14 14 15 15 14 15 15 15 15 14 15 14 14 8 11 10 9 11 11 13 14 14
12 11 11 12 12 12 12 11 11 11 11 11 11 14 16 15 15 15 15 15 15 14 16 16 15 15 14 14 13 14 13 13 14 8 9 8 8 11 11 12 12 11
13 12 13 12 12 12 11 11 11 11 12 12 12 14 15 16 15 15 15 16 16 15 13 13 14 12 17 16 11 11 11 12 13 8 8 7 7 9 8 9 12 10
14 13 13 13 12 13 13 13 14 13 13 13 11 11 14 15 15 15 14 15 15 14 12 13 13 16 18 17 16 15 11 11 11 8 6 6 6 8 8 9 10 10
14 14 14 14 14 14 13 13 13 12 12 11 11 11 12 13 14 13 13 12 13 13 13 13 13 15 18 19 18 19 13 12 11 6 6 8 6 8 8 11 10 10
14 16 16 15 14 13 12 12 12 13 12 11 11 10 9 13 13 14 13 13 14 14 13 14 14 15 17 18 18 18 18 13 10 5 5 6 10 9 9 9 10 10
16 16 16 15 14 13 12 12 12 12 11 10 11 10 10 10 12 13 13 13 13 13 12 13 14 14 18 20 20 21 19 15 9 8 8 7 10 10 10 9 10 10
17 17 16 14 12 13 14 13 13 12 12 10 11 10 9 10 12 12 12 13 13 12 11 12 14 15 18 19 20 22 23 16 12 13 13 14 13 8 10 10 10 10
18 17 15 13 13 13 12 12 10 11 12 10 11 10 10 10 10 10 10 10 11 11 9 10 12 15 16 18 19 21 21 14 12 14 13 12 14 7 8 9 8 5
15 15 14 14 13 13 13 12 13 12 11 11 12 10 10 10 9 8 9 8 7 8 9 8 9 11 14 15 17 20 16 13 12 14 13 15 15 11 9 7 6 3
14 15 15 14 13 13 12 11 11 11 12 13 14 13 12 11 10 10 8 8 8 8 9 9 7 8 11 12 14 17 16 13 12 12 13 14 15 17 9 9 7 14
15 14 14 14 13 12 12 11 11 12 12 13 14 12 13 12 11 11 9 7 6 9 12 11 9 6 7 9 10 12 15 13 12 13 13 14 14 16 13 4 6 8
14 15 13 14 13 11 12 12 11 12 12 13 12 12 12 10 10 11 9 9 8 8 10 10 9 6 6 8 7 8 11 12 9 12 13 13 13 14 13 11 11 11

ECMWFNIL_sfc_gust_114.txt.gz
Wind_Gust
16 16 17 18 17 16 17 18 16 15 12 12 13 10 10 7 11 10 9 11 10 11 11 11 11 11 12 11 10 11 11 11 11 11 15 19 19 19 19 17 16 16
16 16 16 16 17 15 15 16 15 15 13 11 11 10 7 10 9 10 10 11 12 11 10 11 10 11 11 11 10 12 12 12 13 14 19 18 16 18 18 17 16 17
16 16 16 16 17 16 15 15 14 13 13 11 10 9 10 10 11 10 10 11 12 12 12 11 11 11 11 10 10 11 12 13 15 15 18 16 16 17 16 17 17 17
15 15 16 16 15 15 13 14 14 13 12 12 9 11 13 12 13 12 12 12 11 12 12 12 12 11 10 10 11 12 12 14 13 14 16 15 15 15 17 16 17 18
15 14 14 14 13 13 13 16 14 13 12 11 12 13 14 13 13 13 13 13 12 12 13 13 13 13 11 11 10 13 14 14 12 14 15 14 14 15 16 16 17 18
13 14 14 14 13 13 13 14 13 13 13 14 14 13 13 13 14 14 14 14 14 14 13 13 14 14 14 12 11 12 13 13 11 13 14 14 13 13 13 14 16 17
12 12 12 11 11 12 14 14 13 13 14 13 14 13 14 15 15 15 15 15 14 14 13 13 14 14 13 12 12 11 11 11 11 13 14 13 12 12 12 14 16 16
11 10 12 11 12 12 13 14 14 14 13 16 15 14 15 16 16 15 15 15 14 13 12 13 13 13 12 12 14 12 9 10 12 14 14 12 11 12 13 14 14 16
11 11 12 13 13 12 14 14 14 14 16 18 16 15 16 17 16 16 15 14 14 13 12 12 12 11 12 13 13 14 11 9 13 13 12 12 12 13 14 13 15 15
12 13 13 12 12 13 13 12 14 15 17 17 15 17 19 17 17 15 13 13 13 13 13 13 14 13 13 12 13 12 13 10 11 12 12 11 12 13 13 15 14 13
12 12 13 12 12 12 12 12 14 16 16 16 17 17 16 16 15 13 13 14 15 13 13 13 13 13 13 13 12 11 10 11 10 11 10 11 12 13 13 13 13 12
13 12 13 12 12 12 12 13 16 16 16 16 18 18 16 15 14 14 14 14 13 13 12 11 11 11 11 11 11 12 12 12 9 10 9 11 10 12 12 11 10 10
12 12 12 11 12 12 13 15 16 16 16 16 16 17 17 15 13 14 12 13 13 12 12 10 10 10 11 11 10 11 10 9 9 8 9 9 9 12 12 9 8 8
11 10 11 12 11 12 13 14 15 15 15 15 16 17 16 14 13 13 11 12 12 11 10 9 10 11 11 11 9 9 9 8 7 6 8 7 9 10 9 9 7 8
11 10 11 12 13 13 13 13 14 15 15 16 17 16 16 15 13 12 12 12 10 10 10 10 12 12 10 10 10 9 7 7 6 4 7 7 8 9 8 8 7 8
13 12 13 13 13 13 12 14 16 16 17 17 17 16 15 16 14 13 12 11 11 11 12 13 12 10 11 10 7 4 5 6 6 5 4 6 7 8 7 9 11 10
14 14 13 13 12 13 13 16 16 17 17 16 15 15 16 15 15 14 12 12 11 10 11 10 10 9 9 9 9 9 6 4 4 5 4 7 6 8 7 11 10 8
14 14 14 14 14 14 14 15 16 16 16 15 15 15 14 14 14 13 12 10 10 10 11 9 8 10 12 13 14 12 9 6 4 4 5 10 7 8 8 11 8 8
14 15 15 15 14 13 13 15 15 15 15 15 15 14 13 14 13 14 13 11 11 11 10 8 7 10 12 13 14 14 14 10 10 9 6 7 10 8 9 8 7 8
16 16 16 16 14 13 13 14 14 14 12 13 15 14 14 12 12 13 12 11 10 9 8 7 8 10 14 16 16 17 16 11 10 11 12 12 9 9 8 8 6 6
17 17 17 15 14 14 14 14 13 13 14 14 15 15 15 14 13 12 9 10 8 7 8 9 8 12 15 17 18 18 17 11 12 12 13 13 10 5 6 6 4 4
18 17 16 14 15 15 15 14 12 12 14 13 13 12 11 11 10 10 9 8 7 7 8 8 8 12 14 16 18 17 15 13 12 12 12 10 12 7 4 5 7 6
17 17 15 14 15 15 14 13 14 14 13 12 15 13 13 11 10 9 8 9 7 7 8 6 6 10 14 15 16 15 10 11 11 11 11 11 9 8 6 5 6 6
16 16 16 15 14 15 15 14 14 13 13 13 16 14 13 11 10 9 8 9 9 8 8 8 5 7 10 12 13 14 10 8 9 10 10 11 12 10 9 7 7 13
15 15 15 15 15 14 15 16 15 16 14 13 14 13 13 11 10 10 7 7 10 10 11 10 6 5 7 9 9 10 10 7 9 10 12 12 11 12 10 8 10 10
14 16 15 15 15 14 14 15 14 15 14 14 12 13 12 10 10 10 9 8 9 9 9 8 7 3 4 8 8 8 8 7 7 11 11 10 10 9 10 11 10 11

ECMWFNIL_sfc_gust_117.txt.gz
Wind_Gust
14 14 16 16 15 15 15 14 12 14 13 12 14 11 12 9 12 13 12 13 13 14 13 13 13 14 16 16 16 17 17 17 17 16 18 19 19 19 20 17 16 15
14 15 15 15 15 13 13 13 13 14 13 12 12 12 10 13 11 12 13 14 14 14 13 14 14 15 15 16 16 18 17 17 17 16 19 18 16 18 18 16 15 14
15 15 15 15 16 14 14 13 13 12 14 13 13 12 12 12 13 12 13 14 15 14 14 14 15 15 15 15 15 16 16 16 16 15 18 16 16 17 15 15 14 13
13 14 15 14 14 14 13 14 12 13 14 15 13 13 14 13 14 14 14 14 15 14 14 15 14 13 14 14 15 16 14 15 13 14 16 16 16 16 14 14 13 12
14 14 13 13 12 12 13 14 14 14 15 15 14 14 16 14 14 14 15 14 14 14 14 14 13 12 12 13 13 15 14 15 13 15 16 15 12 14 12 12 11 12
12 13 12 13 12 12 13 14 15 16 16 15 15 15 14 14 14 13 13 14 13 14 14 13 13 12 11 12 14 14 14 14 14 15 16 14 12 11 10 9 10 13
12 11 11 11 11 12 14 15 15 16 15 14 15 15 14 15 14 13 12 13 13 14 13 12 12 12 11 12 14 15 14 14 15 15 15 13 12 10 9 10 12 13
10 9 10 10 12 12 15 15 16 16 15 17 16 12 14 14 13 11 11 12 14 13 12 12 11 11 10 12 15 15 13 14 15 15 14 11 10 10 10 11 10 11
11 10 11 12 14 13 15 15 16 16 17 18 16 14 13 13 12 11 11 12 13 12 11 11 11 10 10 12 13 13 13 13 13 13 12 11 10 10 9 8 10 9
11 12 13 12 14 14 15 14 16 16 17 18 15 14 16 12 11 11 11 13 13 11 11 10 11 10 11 11 11 12 13 12 12 12 11 10 10 8 8 8 7 7
11 12 13 13 13 14 15 16 16 16 17 16 15 15 12 12 11 9 11 12 13 11 11 11 10 9 11 10 10 10 11 11 11 11 10 9 7 7 8 6 5 5
11 12 13 13 14 14 15 16 17 16 15 14 16 15 12 11 11 10 12 12 11 10 10 9 8 9 10 10 10 10 10 9 9 10 9 8 6 7 6 5 4 3
12 12 13 13 14 14 15 17 17 15 16 15 14 14 13 13 11 13 10 11 10 10 10 9 9 9 10 10 9 9 9 9 9 8 8 7 6 6 5 4 3 1
10 11 12 13 13 14 15 16 16 15 15 14 14 14 13 12 12 13 10 11 10 10 7 7 9 10 8 9 9 8 9 7 8 8 7 6 6 5 5 3 2 3
10 10 12 13 14 15 15 15 15 15 14 14 14 13 12 11 10 11 12 12 10 9 9 8 11 9 7 7 10 8 7 8 6 7 7 7 7 5 5 4 4 4
11 11 13 14 14 15 14 15 16 15 15 15 14 13 12 11 11 10 11 11 11 10 9 10 9 7 9 9 7 8 7 7 7 6 6 7 6 6 4 3 4 5
13 12 13 14 14 15 14 16 16 16 16 15 14 13 13 11 11 12 10 10 10 10 10 10 9 9 9 8 10 11 9 8 8 6 6 6 6 6 3 2 4 5
13 13 14 13 15 16 16 15 16 16 15 14 14 14 11 10 12 10 9 8 10 10 10 9 8 8 9 12 12 12 9 10 9 8 7 9 7 6 2 1 2 5
14 14 15 15 15 16 15 15 16 15 14 14 14 12 11 13 10 10 10 8 11 11 10 9 7 8 12 14 13 13 12 10 9 9 8 5 6 5 3 2 2 4
14 15 14 14 14 15 15 15 15 15 12 13 14 12 13 12 10 11 9 9 9 10 9 8 8 8 12 13 12 12 12 10 8 9 8 6 4 3 3 3 4 4
14 14 14 13 14 15 15 14 15 14 13 13 14 14 14 13 12 10 8 8 8 8 11 10 8 8 12 12 12 12 11 9 8 8 8 5 2 1 4 5 5 6
16 15 15 13 14 15 15 14 14 15 15 13 12 11 9 9 8 10 9 8 7 9 11 10 6 9 12 12 11 10 10 9 8 8 7 6 5 4 4 6 6 6
17 18 17 16 16 16 15 14 14 13 11 12 14 12 12 11 10 8 8 9 8 8 11 8 7 7 10 10 9 8 8 9 7 8 6 5 5 3 5 5 6 6
16 17 17 15 15 16 15 13 12 12 13 13 16 14 12 11 9 9 7 8 9 8 9 9 6 6 8 8 8 7 7 9 7 9 6 6 4 4 4 5 6 12
15 16 17 16 14 14 15 14 14 14 12 11 13 12 12 10 10 10 7 5 6 6 10 10 6 5 6 7 7 6 6 5 7 8 8 5 5 7 5 6 10 10
16 16 15 16 14 13 13 15 12 12 12 12 10 11 12 10 9 10 10 8 6 5 6 6 7 3 4 7 7 7 6 5 4 10 7 4 4 3 9 10 9 10

ECMWFNIL_sfc_gust_120.txt.gz
Wind_Gust
16 15 16 16 14 13 15 15 13 14 13 11 13 11 11 8 10 11 10 11 10 12 12 13 14 16 17 17 17 18 17 17 17 15 16 17 16 15 17 15 13 13
15 16 14 15 15 13 13 14 14 15 14 12 12 12 10 11 9 11 11 12 12 12 13 14 15 16 16 16 16 18 17 17 17 14 17 16 14 15 16 13 12 11
15 15 15 16 17 15 15 14 15 15 15 13 12 12 12 10 11 10 11 11 13 13 14 14 15 15 16 16 16 17 17 17 17 14 16 15 14 15 13 12 13 12
13 14 16 16 16 17 16 16 14 14 14 14 13 12 12 10 11 11 11 12 13 14 14 15 14 15 16 17 17 18 16 16 14 14 15 14 13 13 12 12 13 13
15 15 15 16 16 16 16 17 16 14 15 14 13 11 12 11 11 12 12 12 13 14 14 14 14 15 16 17 16 18 15 16 13 14 15 14 12 12 10 12 12 13
13 14 15 16 15 16 17 16 15 16 16 14 13 11 11 10 11 11 12 13 12 14 14 14 14 14 16 15 16 16 15 16 13 13 15 14 12 10 10 10 11 13
15 15 15 15 16 15 17 16 15 14 15 13 13 12 11 12 12 12 12 13 13 14 14 14 15 14 13 15 15 15 14 14 12 13 14 11 11 10 9 10 11 13
14 13 14 16 17 16 16 16 15 15 14 12 14 9 10 13 12 11 11 12 14 13 13 14 14 14 12 14 16 15 13 12 12 11 11 10 9 10 9 10 10 12
14 14 16 17 18 16 15 15 15 14 12 16 14 12 10 11 11 11 11 12 13 12 13 13 13 13 12 14 14 14 14 11 9 10 10 10 10 10 9 9 10 11
14 15 17 16 16 15 16 14 14 13 12 15 13 11 13 10 9 10 11 13 13 13 13 13 13 12 12 13 14 13 12 11 9 9 9 9 9 9 9 9 10 10
14 15 17 16 16 15 16 14 13 13 12 14 14 13 10 11 10 9 12 12 14 13 13 13 13 13 14 12 11 11 11 11 9 8 8 8 8 8 9 9 8 9
15 15 16 17 16 16 14 14 13 13 13 10 13 14 10 9 11 9 11 12 11 11 12 12 12 12 13 12 11 10 9 9 9 8 8 8 8 8 8 7 8 8
15 16 17 17 15 15 14 13 13 12 13 13 10 12 13 11 10 12 8 12 10 10 12 12 12 12 12 11 11 10 10 10 9 8 8 8 7 7 6 6 7 8
15 15 15 15 14 14 14 13 13 12 13 11 11 12 11 11 12 12 9 10 10 11 10 11 12 11 10 10 10 10 10 9 9 8 8 7 7 6 7 8 8 8
15 14 14 15 15 15 14 13 13 12 12 11 11 11 11 9 9 11 12 12 10 10 10 9 12 11 10 11 11 9 9 10 8 8 8 8 7 7 8 8 8 8
15 14 15 15 15 15 14 13 13 12 12 12 11 11 10 9 9 8 10 12 12 10 9 9 9 8 8 10 9 11 10 9 8 8 7 7 7 7 7 8 8 9
16 15 16 15 14 15 13 14 13 13 12 12 11 10 10 9 9 10 9 9 11 11 10 8 7 6 8 10 11 12 11 10 10 7 6 7 8 8 7 6 8 8
17 16 16 15 15 15 14 13 13 13 12 11 12 11 9 9 10 8 9 9 10 9 10 8 7 7 10 12 12 12 10 11 9 8 6 7 7 7 5 7 7 9
18 18 17 16 15 15 14 14 13 13 12 12 12 9 8 10 8 9 9 8 10 11 9 7 6 6 11 13 12 11 12 11 9 9 8 7 6 5 6 7 8 10
21 20 19 18 16 16 16 15 14 12 10 10 11 9 10 9 7 8 8 8 9 10 9 6 6 6 11 12 12 12 12 10 9 9 7 7 5 4 6 7 7 8
21 21 21 19 20 20 18 16 15 12 11 11 12 11 11 11 10 10 7 8 8 9 10 8 5 6 11 12 12 12 12 9 9 8 8 6 4 6 6 6 7 7
21 21 21 19 18 17 17 17 15 14 13 10 9 9 7 8 7 8 9 9 7 9 11 8 4 7 10 11 11 11 11 9 9 9 7 6 5 7 6 6 6 7
21 21 20 19 18 19 18 18 17 13 11 11 12 9 10 9 8 7 7 9 8 8 11 7 5 6 10 10 10 11 10 10 9 9 7 6 5 5 6 6 7 7
22 23 23 21 20 20 18 14 13 13 13 12 15 13 11 9 9 9 5 7 9 8 9 10 5 5 9 8 9 7 8 12 9 9 7 5 4 5 6 7 8 9
19 22 23 23 21 20 20 18 16 16 13 10 11 11 11 9 9 10 7 5 5 7 10 10 7 5 7 9 9 8 9 9 10 10 8 5 5 5 6 6 7 9
17 20 20 22 20 18 18 18 15 14 13 12 10 11 12 9 8 9 10 6 2 4 6 7 8 4 5 8 9 8 8 10 8 10 8 4 4 4 7 8 8 9

ECMWFNIL_sfc_gust_123.txt.gz
Wind_Gust
16 15 16 17 16 14 17 16 13 14 13 12 13 13 14 14 14 15 16 16 16 17 16 16 16 16 16 16 16 17 17 18 17 16 17 17 17 16 18 17 16 16
18 16 16 16 16 14 14 14 15 15 14 12 12 14 14 15 14 15 16 17 17 17 17 17 17 17 16 16 15 17 17 17 18 15 17 17 17 17 18 17 17 15
17 16 17 18 18 16 16 14 15 15 14 14 13 14 15 14 16 15 16 17 18 17 17 17 17 16 16 16 16 17 17 17 18 16 17 17 17 18 17 17 18 17
17 17 17 16 17 19 17 17 14 14 14 15 14 14 16 16 17 17 17 17 18 18 17 16 17 16 17 17 16 17 17 17 16 16 17 18 18 18 17 17 18 18
18 18 16 17 17 17 16 17 16 14 13 14 15 15 18 17 17 18 18 17 18 18 17 17 16 17 17 17 16 18 16 17 15 15 18 19 17 17 16 18 18 19
15 17 18 18 18 19 17 16 16 16 16 15 14 15 17 17 17 18 18 18 18 18 18 17 18 17 17 16 16 16 16 17 16 16 19 19 18 17 16 17 18 19
18 17 18 18 17 16 17 16 15 15 14 14 14 15 17 18 18 19 19 19 19 18 19 18 18 17 16 16 17 17 17 16 17 18 20 19 19 18 17 17 18 19
20 16 17 17 17 16 16 17 15 14 14 15 15 15 16 18 19 17 18 19 19 19 19 19 18 18 17 17 18 18 16 14 16 18 19 19 18 19 17 16 16 18
21 19 18 18 18 16 17 17 15 13 12 15 16 16 15 17 18 18 18 19 19 19 20 19 19 18 16 17 18 18 18 16 16 18 18 19 19 19 18 16 17 17
17 18 18 17 16 15 16 14 15 13 12 14 17 17 18 16 17 19 18 18 19 20 19 19 19 17 18 18 18 18 19 19 18 17 17 18 18 18 17 17 17 17
18 17 18 17 16 16 15 15 14 14 13 16 17 18 17 18 17 17 18 19 20 20 20 20 19 19 18 18 16 16 17 17 17 17 16 17 17 16 13 16 17 16
19 17 17 17 17 17 16 15 14 14 15 15 17 19 18 17 18 17 18 19 20 20 20 20 20 19 19 19 18 17 16 16 16 15 16 16 15 15 16 15 15 15
18 17 18 17 16 16 16 16 15 15 16 18 17 18 19 18 17 17 16 19 19 19 20 20 20 19 18 18 18 17 17 16 15 15 15 14 14 15 15 14 14 14
17 17 18 18 17 16 16 15 15 16 16 16 17 17 18 18 19 18 16 17 18 19 19 18 18 18 18 18 17 17 16 15 15 15 15 15 14 14 13 14 13 13
18 17 17 18 18 18 17 17 16 15 16 16 16 16 15 17 17 18 19 18 17 17 18 16 17 17 16 17 18 16 15 15 15 15 15 15 14 14 13 13 14 14
20 18 19 19 19 18 18 17 17 16 16 16 16 16 16 16 17 17 18 19 19 18 16 14 15 13 10 10 9 16 15 14 13 14 14 14 14 13 13 13 13 13
21 20 20 20 18 18 17 18 18 17 17 17 16 16 16 16 17 17 17 18 19 18 17 14 14 13 10 10 11 12 13 14 14 14 13 13 12 12 12 12 13 13
21 21 20 19 18 18 18 17 17 17 17 17 17 16 15 15 15 15 15 16 16 18 17 15 14 8 12 11 12 12 10 15 14 14 13 13 12 12 12 11 12 12
22 22 21 19 18 18 17 17 18 17 17 17 16 14 14 14 13 13 13 14 16 17 16 15 14 10 11 12 12 12 12 12 15 13 13 12 11 11 11 11 11 12
23 23 22 20 18 18 18 18 17 16 15 13 14 13 12 11 11 12 13 14 15 16 15 14 13 10 11 12 13 13 12 10 14 12 11 12 11 9 8 10 11 11
24 22 21 20 19 19 18 18 17 15 15 12 12 14 13 12 13 13 12 13 13 14 15 14 11 9 10 11 13 13 12 8 14 12 11 10 9 8 8 9 9 9
24 23 23 21 20 18 17 16 17 20 22 19 18 15 17 15 8 10 13 13 13 14 15 14 11 6 8 10 12 12 12 14 14 13 11 10 8 7 7 8 9 10
25 26 23 24 22 20 17 17 17 17 16 16 15 14 13 13 13 12 12 13 13 13 14 13 12 8 7 9 12 13 11 15 14 13 12 10 8 7 8 9 10 10
23 25 25 23 21 22 20 18 17 16 17 18 19 18 16 15 14 13 12 12 13 13 13 14 13 9 8 8 11 14 11 15 15 14 12 10 10 8 7 9 11 9
23 24 26 25 23 21 20 21 20 19 17 17 17 17 17 16 15 16 14 12 11 12 10 13 13 10 7 8 9 9 11 13 15 14 13 11 11 11 8 9 11 8
22 22 21 23 22 20 20 20 19 19 18 17 17 18 18 16 16 16 16 14 12 12 12 11 13 12 12 8 9 9 8 12 14 14 14 13 11 10 10 9 9 9